[[{"header":{"parameterUnit":"m.s-1","parameterCategory":1,"la1":31.0,"la2":29.5877,"lo1":-88.7671,"lo2":-86.6584,"dy":0.0162,"dx":0.0185,"nx":115,"ny":88,"refTime":"2023-06-14T06:00:00:Z","depth":0,"parameterNumber":2,"parameterNumberName":"U-component_of_WINDS"},"data":[0.0,0.0,0.0,0.0,0.0,0.0,0.0,0.0,0.0,0.0,0.0,0.0,0.0,0.0,0.0,0.0,0.0,0.0,0.0,0.0,0.0,0.0,0.0,0.0,0.0,0.0,0.0,0.0,0.0,0.0,0.0,0.0,0.0,0.0,0.0,0.0,0.0,0.0,0.0,0.0,0.0,0.0,0.0,0.0,0.0,0.0,0.0,0.0,0.0,0.0,0.0,0.0,0.0,0.0,0.0,0.0,0.0,0.0,0.0,0.0,0.0,0.0,0.0,0.0,0.0,0.0,0.0,0.0,0.0,0.0,0.0,0.0,0.0,0.0,0.0,0.0,0.0,0.0,0.0,0.0,0.0,0.0,0.0,0.0,0.0,0.0,0.0,0.0,0.0,0.0,0.0,0.0,0.0,0.0,0.0,0.0,0.0,0.0,0.0,0.0,0.0,0.0,0.0,0.0,0.0,0.0,0.0,0.0,0.0,0.0,0.0,0.0,0.0,0.0,0.0,0.0,0.0,0.0,0.0,0.0,0.0,0.0,0.0,0.0,0.0,0.0,0.0,0.0,0.0,0.0,0.0,0.0,0.0,0.0,0.0,0.0,0.0,0.0,0.0,0.0,0.0,0.0,0.0,0.0,0.0,0.0,0.0,0.0,0.0,0.0,0.0,0.0,0.0,0.0,0.0,0.0,0.0,0.0,0.0,0.0,0.0,0.0,0.0,0.0,0.0,0.0,0.0,0.0,0.0,0.0,0.0,0.0,0.0,0.0,0.0,0.0,0.0,0.0,0.0,0.0,0.0,0.0,0.0,0.0,0.0,0.0,0.0,0.0,0.0,0.0,0.0,0.0,0.0,0.0,0.0,0.0,0.0,0.0,0.0,0.0,0.0,0.0,0.0,0.0,0.0,0.0,0.0,0.0,0.0,0.0,0.0,0.0,0.0,0.0,0.0,0.0,0.0,0.0,0.0,0.0,0.0,0.0,0.0,0.0,0.0,0.0,0.0,0.0,0.0,0.0,0.0,0.0,0.0,0.0,0.0,0.0,0.0,0.0,0.0,0.0,0.0,0.0,0.0,0.0,0.0,0.0,0.0,0.0,0.0,0.0,0.0,0.0,0.0,0.0,0.0,0.0,0.0,0.0,0.0,0.0,0.0,0.0,0.0,0.0,0.0,0.0,0.0,0.0,0.0,0.0,0.0,0.0,0.0,0.0,0.0,0.0,0.0,0.0,0.0,0.0,0.0,0.0,0.0,0.0,0.0,0.0,0.0,0.0,0.0,0.0,0.0,0.0,0.0,0.0,0.0,0.0,0.0,0.0,0.0,0.0,0.0,0.0,0.0,0.0,0.0,0.0,0.0,0.0,0.0,0.0,0.0,0.0,0.0,0.0,0.0,0.0,0.0,0.0,0.0,0.0,0.0,0.0,0.0,0.0,0.0,0.0,0.0,0.0,0.0,0.0,0.0,0.0,0.0,0.0,0.0,0.0,0.0,0.0,0.0,0.0,0.0,0.0,0.0,0.0,0.0,0.0,0.0,0.0,0.0,0.0,0.0,0.0,0.0,0.0,0.0,0.0,0.0,0.0,0.0,0.0,0.0,0.0,0.0,0.0,0.0,0.0,0.0,0.0,0.0,0.0,0.0,0.0,0.0,0.0,0.0,0.0,0.0,0.0,0.0,0.0,0.0,0.0,0.0,0.0,0.0,0.0,0.0,0.0,0.0,0.0,0.0,0.0,0.0,0.0,0.0,0.0,0.0,0.0,0.0,0.0,0.0,0.0,0.0,0.0,0.0,0.0,0.0,0.0,0.0,0.0,0.0,0.0,0.0,0.0,0.0,0.0,0.0,0.0,0.0,0.0,0.0,0.0,0.0,0.0,0.0,0.0,0.0,0.0,0.0,0.0,0.0,0.0,0.0,0.0,0.0,0.0,0.0,0.0,0.0,0.0,0.0,0.0,0.0,0.0,0.0,0.0,0.0,0.0,0.0,0.0,0.0,0.0,0.0,0.0,0.0,0.0,0.0,0.0,0.0,0.0,0.0,0.0,0.0,0.0,0.0,0.0,0.0,0.0,0.0,0.0,0.0,0.0,0.0,0.0,0.0,0.0,0.0,0.0,0.0,0.0,0.0,0.0,0.0,0.0,0.0,0.0,0.0,0.0,0.0,0.0,0.0,0.0,0.0,0.0,0.0,0.0,0.0,0.0,0.0,0.0,0.0,0.0,0.0,0.0,0.0,0.0,0.0,0.0,0.0,0.0,0.0,0.0,0.0,0.0,0.0,0.0,0.0,0.0,0.0,0.0,0.0,0.0,0.0,0.0,0.0,0.0,0.0,0.0,0.0,0.0,0.0,0.0,0.0,0.0,0.0,0.0,0.0,0.0,0.0,0.0,0.0,0.0,0.0,0.0,0.0,0.0,0.0,0.0,0.0,0.0,0.0,0.0,0.0,0.0,0.0,0.0,0.0,0.0,0.0,0.0,0.0,0.0,0.0,0.0,0.0,0.0,0.0,0.0,0.0,0.0,0.0,0.0,0.0,0.0,0.0,0.0,0.0,0.0,0.0,0.0,0.0,0.0,0.0,0.0,0.0,0.0,0.0,0.0,0.0,0.0,0.0,0.0,0.0,0.0,0.0,0.0,0.0,0.0,0.0,0.0,0.0,0.0,0.0,0.0,0.0,0.0,0.0,0.0,0.0,0.0,0.0,0.0,0.0,0.0,0.0,0.0,0.0,0.0,0.0,0.0,0.0,0.0,0.0,0.0,0.0,0.0,0.0,0.0,0.0,0.0,0.0,0.0,0.0,0.0,0.0,0.0,0.0,0.0,0.0,0.0,0.0,0.0,0.0,0.0,0.0,0.0,0.0,0.0,0.0,0.0,0.0,0.0,0.0,0.0,0.0,0.0,0.0,0.0,0.0,0.0,0.0,0.0,0.0,0.0,0.0,0.0,0.0,0.0,0.0,0.0,0.0,0.0,0.0,0.0,0.0,0.0,0.0,0.0,0.0,0.0,0.0,0.0,0.0,0.0,0.0,0.0,0.0,0.0,0.0,0.0,0.0,0.0,0.0,0.0,0.0,0.0,0.0,0.0,0.0,0.0,0.0,0.0,0.0,0.0,0.0,0.0,0.0,0.0,0.0,0.0,0.0,0.0,0.0,0.0,0.0,0.0,0.0,0.0,0.0,0.0,0.0,0.0,0.0,0.0,0.0,0.0,0.0,0.0,0.0,0.0,0.0,0.0,0.0,0.0,0.0,0.0,0.0,0.0,0.0,0.0,0.0,0.0,0.0,0.0,0.0,0.0,0.0,0.0,0.0,0.0,0.0,0.0,0.0,0.0,0.0,0.0,0.0,0.0,0.0,0.0,0.0,0.0,0.0,0.0,0.0,0.0,0.0,0.0,0.0,0.0,0.0,0.0,0.0,0.0,0.0,0.0,0.0,0.0,0.0,0.0,0.0,0.0,0.0,0.0,0.0,0.0,0.0,0.0,0.0,0.0,0.0,0.0,0.0,0.0,0.0,0.0,0.0,0.0,0.0,0.0,0.0,0.0,0.0,0.0,0.0,0.0,0.0,0.0,0.0,0.0,0.0,0.0,0.0,0.0,0.0,0.0,0.0,0.0,0.0,0.0,0.0,0.0,0.0,0.0,0.0,0.0,0.0,0.0,0.0,0.0,0.0,0.0,0.0,0.0,0.0,0.0,0.0,0.0,0.0,0.0,0.0,0.0,0.0,0.0,0.0,0.0,0.0,0.0,0.0,0.0,0.0,0.0,0.0,0.0,0.0,0.0,0.0,0.0,0.0,0.0,0.0,0.0,0.0,0.0,0.0,0.0,0.0,0.0,0.0,0.0,0.0,0.0,0.0,0.0,0.0,0.0,0.0,0.0,0.0,0.0,0.0,0.0,0.0,0.0,0.0,0.0,0.0,0.0,0.0,0.0,0.0,0.0,0.0,0.0,0.0,0.0,0.0,0.0,0.0,0.0,0.0,0.0,0.0,0.0,0.0,0.0,0.0,0.0,0.0,0.0,0.0,0.0,0.0,0.0,0.0,0.0,0.0,0.0,0.0,0.0,0.0,0.0,0.0,0.0,0.0,0.0,0.0,0.0,0.0,0.0,0.0,0.0,0.0,0.0,0.0,0.0,0.0,0.0,0.0,0.0,0.0,0.0,0.0,0.0,0.0,0.0,0.0,0.0,0.0,0.0,0.0,0.0,0.0,0.0,0.0,0.0,0.0,0.0,0.0,0.0,0.0,0.0,0.0,0.0,0.0,0.0,-2.4926,0.0,0.0,0.0,0.0,0.0,0.0,0.0,0.0,0.0,0.0,0.0,0.0,0.0,0.0,0.0,0.0,0.0,0.0,0.0,0.0,0.0,0.0,0.0,0.0,0.0,0.0,0.0,0.0,0.0,0.0,0.0,0.0,0.0,0.0,0.0,0.0,0.0,0.0,0.0,0.0,0.0,0.0,0.0,0.0,0.0,0.0,0.0,0.0,0.0,0.0,0.0,0.0,0.0,0.0,0.0,0.0,0.0,0.0,0.0,0.0,0.0,0.0,0.0,0.0,0.0,0.0,0.0,0.0,0.0,0.0,0.0,0.0,0.0,0.0,0.0,0.0,0.0,0.0,0.0,0.0,0.0,0.0,0.0,0.0,0.0,0.0,0.0,0.0,0.0,0.0,0.0,0.0,0.0,0.0,0.0,0.0,0.0,0.0,0.0,0.0,0.0,0.0,0.0,0.0,0.0,0.0,0.0,0.0,0.0,0.0,-2.513,-2.5146,-2.5166,-2.5166,-2.5048,0.0,0.0,0.0,0.0,0.0,0.0,0.0,0.0,0.0,0.0,0.0,0.0,0.0,0.0,0.0,0.0,0.0,0.0,0.0,0.0,0.0,0.0,0.0,0.0,0.0,0.0,0.0,0.0,0.0,0.0,0.0,0.0,0.0,0.0,0.0,0.0,0.0,0.0,0.0,0.0,0.0,0.0,0.0,0.0,0.0,0.0,0.0,0.0,0.0,0.0,0.0,0.0,0.0,0.0,0.0,0.0,0.0,0.0,0.0,0.0,0.0,0.0,0.0,0.0,0.0,0.0,0.0,0.0,0.0,0.0,0.0,0.0,0.0,0.0,0.0,0.0,0.0,0.0,0.0,0.0,0.0,0.0,0.0,0.0,0.0,0.0,0.0,0.0,0.0,0.0,0.0,0.0,0.0,0.0,0.0,0.0,0.0,0.0,0.0,0.0,0.0,0.0,0.0,0.0,0.0,0.0,0.0,0.0,0.0,0.0,0.0,0.0,-2.5776,-2.558,-2.5369,0.0,0.0,0.0,0.0,0.0,0.0,0.0,0.0,0.0,0.0,0.0,0.0,0.0,0.0,0.0,0.0,0.0,0.0,0.0,0.0,0.0,0.0,0.0,0.0,0.0,0.0,0.0,0.0,0.0,0.0,0.0,0.0,0.0,0.0,0.0,0.0,0.0,0.0,0.0,0.0,0.0,0.0,0.0,0.0,0.0,0.0,0.0,0.0,0.0,0.0,0.0,0.0,0.0,0.0,0.0,0.0,0.0,0.0,0.0,0.0,0.0,0.0,0.0,0.0,0.0,0.0,0.0,0.0,0.0,0.0,0.0,0.0,0.0,0.0,0.0,0.0,0.0,0.0,0.0,0.0,0.0,0.0,0.0,0.0,0.0,0.0,0.0,0.0,0.0,0.0,0.0,0.0,0.0,0.0,0.0,0.0,0.0,0.0,0.0,0.0,0.0,0.0,0.0,0.0,0.0,0.0,0.0,0.0,0.0,0.0,-2.6541,-2.7794,-2.6958,0.0,-2.6174,0.0,0.0,0.0,0.0,0.0,0.0,0.0,0.0,0.0,0.0,0.0,0.0,0.0,0.0,0.0,0.0,0.0,0.0,0.0,0.0,0.0,0.0,0.0,0.0,0.0,0.0,0.0,0.0,0.0,0.0,0.0,0.0,0.0,0.0,0.0,0.0,0.0,0.0,0.0,0.0,0.0,0.0,0.0,0.0,0.0,0.0,0.0,0.0,0.0,0.0,0.0,0.0,0.0,0.0,0.0,0.0,0.0,0.0,0.0,0.0,0.0,0.0,0.0,0.0,0.0,0.0,0.0,0.0,0.0,0.0,0.0,0.0,0.0,0.0,0.0,0.0,0.0,0.0,0.0,0.0,0.0,0.0,0.0,0.0,0.0,0.0,0.0,0.0,0.0,0.0,0.0,0.0,0.0,0.0,0.0,0.0,0.0,0.0,0.0,0.0,0.0,0.0,0.0,0.0,0.0,0.0,0.0,0.0,0.0,0.0,-2.7863,-2.8787,-2.7938,-2.7052,0.0,0.0,0.0,0.0,0.0,0.0,0.0,0.0,0.0,0.0,0.0,0.0,0.0,0.0,0.0,0.0,0.0,0.0,0.0,0.0,0.0,0.0,0.0,0.0,0.0,0.0,0.0,0.0,0.0,0.0,0.0,0.0,0.0,0.0,0.0,0.0,0.0,0.0,0.0,0.0,0.0,0.0,0.0,0.0,0.0,0.0,0.0,0.0,0.0,0.0,0.0,0.0,0.0,0.0,0.0,0.0,0.0,0.0,0.0,0.0,0.0,0.0,0.0,0.0,0.0,0.0,0.0,0.0,0.0,0.0,0.0,0.0,0.0,0.0,0.0,0.0,0.0,0.0,0.0,0.0,0.0,0.0,0.0,0.0,0.0,0.0,0.0,0.0,0.0,0.0,0.0,0.0,0.0,0.0,0.0,0.0,0.0,0.0,0.0,0.0,0.0,0.0,0.0,0.0,0.0,0.0,0.0,0.0,0.0,0.0,-2.8985,-2.8959,-2.9303,-2.8596,-2.7626,-2.6498,0.0,0.0,0.0,0.0,0.0,0.0,0.0,0.0,0.0,0.0,0.0,0.0,0.0,0.0,0.0,0.0,0.0,0.0,0.0,0.0,0.0,0.0,0.0,0.0,0.0,0.0,0.0,0.0,0.0,0.0,0.0,0.0,0.0,0.0,0.0,0.0,0.0,0.0,0.0,0.0,0.0,0.0,0.0,0.0,0.0,0.0,0.0,0.0,0.0,0.0,0.0,0.0,0.0,0.0,0.0,0.0,0.0,0.0,0.0,0.0,0.0,0.0,0.0,0.0,0.0,0.0,0.0,0.0,0.0,0.0,0.0,0.0,0.0,0.0,0.0,0.0,0.0,0.0,0.0,0.0,0.0,0.0,0.0,0.0,0.0,0.0,0.0,0.0,0.0,0.0,0.0,0.0,0.0,0.0,0.0,0.0,0.0,0.0,0.0,0.0,0.0,0.0,0.0,0.0,0.0,0.0,0.0,0.0,-3.1692,-3.047,-2.9668,-2.9503,-2.8774,-2.822,0.0,0.0,0.0,0.0,0.0,0.0,0.0,0.0,0.0,0.0,0.0,0.0,0.0,0.0,0.0,0.0,0.0,0.0,0.0,0.0,0.0,0.0,0.0,0.0,0.0,0.0,0.0,0.0,0.0,0.0,0.0,0.0,0.0,0.0,0.0,0.0,0.0,0.0,0.0,0.0,0.0,0.0,0.0,0.0,0.0,0.0,0.0,0.0,0.0,0.0,0.0,0.0,0.0,0.0,0.0,0.0,0.0,0.0,0.0,0.0,0.0,0.0,0.0,0.0,0.0,0.0,0.0,0.0,0.0,0.0,0.0,0.0,0.0,0.0,0.0,0.0,0.0,0.0,0.0,0.0,0.0,0.0,0.0,0.0,0.0,0.0,0.0,0.0,0.0,0.0,0.0,0.0,0.0,0.0,0.0,0.0,0.0,0.0,0.0,0.0,0.0,0.0,0.0,0.0,0.0,0.0,0.0,0.0,0.0,-3.124,-3.1227,-3.0734,-2.9752,-2.9885,-2.9653,0.0,0.0,0.0,0.0,0.0,0.0,0.0,0.0,0.0,0.0,0.0,0.0,0.0,0.0,0.0,0.0,0.0,0.0,0.0,0.0,0.0,0.0,0.0,0.0,0.0,0.0,0.0,0.0,0.0,0.0,0.0,0.0,0.0,0.0,0.0,0.0,0.0,0.0,0.0,0.0,0.0,0.0,0.0,0.0,0.0,0.0,0.0,0.0,0.0,0.0,0.0,0.0,0.0,0.0,0.0,0.0,0.0,0.0,0.0,0.0,0.0,0.0,0.0,0.0,0.0,0.0,0.0,0.0,0.0,0.0,0.0,0.0,0.0,0.0,0.0,0.0,0.0,0.0,0.0,0.0,0.0,0.0,0.0,0.0,0.0,0.0,0.0,0.0,0.0,0.0,0.0,0.0,0.0,0.0,0.0,0.0,0.0,0.0,0.0,0.0,0.0,0.0,0.0,0.0,0.0,0.0,0.0,0.0,0.0,-3.1698,0.0,-3.2097,-3.0663,-3.1029,-3.0694,0.0,0.0,0.0,0.0,0.0,0.0,0.0,0.0,0.0,0.0,0.0,0.0,0.0,0.0,0.0,0.0,0.0,0.0,0.0,0.0,0.0,0.0,0.0,0.0,0.0,0.0,0.0,0.0,0.0,0.0,0.0,0.0,0.0,0.0,0.0,0.0,0.0,0.0,0.0,0.0,0.0,0.0,0.0,0.0,0.0,0.0,0.0,0.0,0.0,0.0,0.0,0.0,0.0,0.0,0.0,0.0,0.0,0.0,0.0,0.0,0.0,0.0,0.0,0.0,0.0,0.0,0.0,0.0,0.0,0.0,0.0,0.0,0.0,0.0,0.0,0.0,0.0,0.0,0.0,0.0,0.0,0.0,0.0,0.0,0.0,0.0,0.0,0.0,0.0,0.0,0.0,0.0,0.0,0.0,0.0,0.0,0.0,0.0,0.0,0.0,0.0,0.0,0.0,0.0,0.0,0.0,0.0,0.0,-3.1681,-3.3271,-3.4032,-3.3634,-3.2268,-3.2043,-3.1224,0.0,0.0,0.0,0.0,0.0,0.0,0.0,0.0,0.0,0.0,0.0,0.0,0.0,0.0,0.0,0.0,0.0,0.0,0.0,0.0,0.0,0.0,0.0,0.0,0.0,0.0,0.0,0.0,0.0,0.0,0.0,0.0,0.0,0.0,0.0,0.0,0.0,0.0,0.0,0.0,0.0,0.0,0.0,0.0,0.0,0.0,0.0,0.0,0.0,0.0,0.0,0.0,0.0,0.0,0.0,0.0,0.0,0.0,0.0,0.0,0.0,0.0,0.0,0.0,0.0,0.0,0.0,0.0,0.0,0.0,0.0,0.0,0.0,0.0,0.0,0.0,0.0,0.0,0.0,0.0,0.0,0.0,0.0,0.0,0.0,0.0,0.0,0.0,0.0,0.0,0.0,0.0,0.0,0.0,0.0,0.0,0.0,0.0,0.0,0.0,0.0,0.0,0.0,0.0,0.0,0.0,0.0,0.0,0.0,-3.1404,-3.2992,-3.3647,-3.3147,-3.2457,-3.2152,0.0,0.0,0.0,0.0,0.0,0.0,0.0,0.0,0.0,0.0,0.0,0.0,0.0,0.0,0.0,0.0,0.0,0.0,0.0,0.0,0.0,0.0,0.0,0.0,0.0,0.0,0.0,0.0,0.0,0.0,0.0,0.0,0.0,0.0,0.0,0.0,0.0,0.0,0.0,0.0,0.0,0.0,0.0,0.0,0.0,0.0,0.0,0.0,0.0,0.0,0.0,0.0,0.0,0.0,0.0,0.0,0.0,0.0,0.0,0.0,0.0,0.0,0.0,0.0,0.0,0.0,0.0,0.0,0.0,0.0,0.0,0.0,0.0,0.0,0.0,0.0,0.0,0.0,0.0,0.0,0.0,0.0,0.0,0.0,0.0,0.0,0.0,0.0,0.0,0.0,0.0,0.0,0.0,0.0,0.0,0.0,0.0,0.0,0.0,0.0,0.0,0.0,0.0,0.0,0.0,0.0,0.0,0.0,0.0,-3.3305,-3.459,-3.5245,-3.4997,-3.4236,-3.3638,-3.3313,0.0,0.0,0.0,0.0,0.0,0.0,0.0,0.0,0.0,0.0,0.0,0.0,0.0,0.0,0.0,0.0,0.0,0.0,0.0,0.0,0.0,0.0,0.0,0.0,0.0,0.0,0.0,0.0,0.0,0.0,0.0,0.0,0.0,0.0,0.0,0.0,0.0,0.0,0.0,0.0,0.0,0.0,0.0,0.0,0.0,0.0,0.0,0.0,0.0,0.0,0.0,0.0,0.0,0.0,0.0,0.0,0.0,0.0,0.0,0.0,0.0,0.0,0.0,0.0,0.0,0.0,0.0,0.0,0.0,0.0,0.0,0.0,0.0,0.0,0.0,0.0,0.0,0.0,0.0,0.0,0.0,0.0,0.0,0.0,0.0,0.0,0.0,0.0,0.0,0.0,0.0,0.0,0.0,0.0,0.0,0.0,0.0,0.0,0.0,0.0,0.0,0.0,0.0,0.0,0.0,0.0,0.0,0.0,-3.8029,-3.8455,-3.8326,-3.7594,-3.7025,-3.5555,0.0,0.0,0.0,0.0,0.0,0.0,0.0,0.0,0.0,0.0,0.0,0.0,0.0,0.0,0.0,0.0,0.0,0.0,0.0,0.0,0.0,0.0,0.0,0.0,0.0,0.0,0.0,0.0,0.0,0.0,0.0,0.0,0.0,0.0,0.0,0.0,0.0,0.0,0.0,0.0,0.0,0.0,0.0,0.0,0.0,0.0,0.0,0.0,0.0,0.0,0.0,0.0,0.0,0.0,0.0,0.0,0.0,0.0,0.0,0.0,0.0,0.0,0.0,0.0,0.0,0.0,0.0,0.0,0.0,0.0,0.0,0.0,0.0,0.0,0.0,0.0,0.0,0.0,0.0,0.0,0.0,0.0,0.0,0.0,0.0,0.0,0.0,0.0,0.0,0.0,0.0,0.0,0.0,0.0,0.0,0.0,0.0,0.0,0.0,0.0,0.0,0.0,0.0,0.0,0.0,0.0,0.0,0.0,0.0,-4.1078,-4.2354,-4.2346,-4.0925,-3.8722,-3.6943,0.0,0.0,0.0,0.0,0.0,0.0,0.0,0.0,0.0,0.0,0.0,0.0,0.0,0.0,0.0,0.0,0.0,0.0,0.0,0.0,0.0,0.0,0.0,0.0,0.0,0.0,0.0,0.0,0.0,0.0,0.0,0.0,0.0,0.0,0.0,0.0,0.0,0.0,0.0,0.0,0.0,0.0,0.0,0.0,0.0,0.0,0.0,0.0,0.0,0.0,0.0,0.0,0.0,0.0,0.0,0.0,0.0,0.0,0.0,0.0,0.0,0.0,0.0,0.0,0.0,0.0,0.0,0.0,0.0,0.0,0.0,0.0,0.0,0.0,0.0,0.0,0.0,0.0,0.0,0.0,0.0,0.0,0.0,0.0,0.0,0.0,0.0,0.0,0.0,0.0,0.0,0.0,0.0,0.0,0.0,0.0,0.0,0.0,0.0,0.0,0.0,0.0,0.0,0.0,0.0,0.0,0.0,0.0,-4.0901,-4.3108,-4.4996,-4.5555,-4.4607,-4.1621,-3.915,0.0,0.0,0.0,0.0,0.0,0.0,0.0,0.0,0.0,0.0,0.0,0.0,0.0,0.0,0.0,0.0,0.0,0.0,0.0,0.0,0.0,0.0,0.0,0.0,0.0,0.0,0.0,0.0,0.0,0.0,0.0,0.0,0.0,0.0,0.0,0.0,0.0,0.0,0.0,0.0,0.0,0.0,0.0,0.0,0.0,0.0,0.0,0.0,0.0,0.0,0.0,0.0,0.0,0.0,0.0,0.0,0.0,0.0,0.0,0.0,0.0,0.0,0.0,0.0,0.0,0.0,0.0,0.0,0.0,0.0,0.0,0.0,0.0,0.0,0.0,0.0,0.0,0.0,0.0,0.0,0.0,0.0,0.0,0.0,0.0,0.0,0.0,0.0,0.0,0.0,0.0,0.0,0.0,0.0,0.0,0.0,0.0,0.0,0.0,0.0,0.0,0.0,0.0,0.0,0.0,0.0,0.0,0.0,-4.2389,-4.4467,-4.6689,-4.7963,-4.8024,-4.4824,-4.1502,0.0,0.0,0.0,0.0,0.0,0.0,0.0,0.0,0.0,0.0,0.0,0.0,0.0,0.0,0.0,0.0,0.0,0.0,0.0,0.0,0.0,0.0,0.0,0.0,0.0,0.0,0.0,0.0,0.0,0.0,0.0,0.0,0.0,0.0,0.0,0.0,0.0,0.0,0.0,0.0,0.0,0.0,0.0,0.0,0.0,0.0,0.0,0.0,0.0,0.0,0.0,0.0,0.0,0.0,0.0,0.0,0.0,0.0,0.0,0.0,0.0,0.0,0.0,0.0,0.0,0.0,0.0,0.0,0.0,0.0,0.0,0.0,0.0,0.0,0.0,0.0,0.0,0.0,0.0,0.0,0.0,0.0,0.0,0.0,0.0,0.0,0.0,0.0,0.0,0.0,0.0,0.0,0.0,0.0,0.0,0.0,0.0,0.0,0.0,0.0,0.0,0.0,0.0,0.0,0.0,0.0,0.0,0.0,-4.2405,-4.5571,-4.7361,-4.866,-4.9434,-4.508,-4.1482,0.0,0.0,0.0,0.0,0.0,0.0,0.0,0.0,0.0,0.0,0.0,0.0,0.0,0.0,0.0,0.0,0.0,0.0,0.0,0.0,0.0,0.0,0.0,0.0,0.0,0.0,0.0,0.0,0.0,0.0,0.0,0.0,0.0,0.0,0.0,0.0,0.0,0.0,0.0,0.0,0.0,0.0,0.0,0.0,0.0,0.0,0.0,0.0,-2.3501,0.0,0.0,0.0,0.0,0.0,0.0,0.0,0.0,0.0,0.0,0.0,0.0,0.0,0.0,0.0,0.0,0.0,0.0,0.0,0.0,0.0,0.0,0.0,0.0,0.0,0.0,0.0,0.0,0.0,0.0,0.0,0.0,0.0,0.0,0.0,0.0,0.0,0.0,0.0,0.0,0.0,0.0,0.0,0.0,0.0,0.0,0.0,0.0,0.0,0.0,0.0,0.0,0.0,0.0,0.0,0.0,0.0,0.0,0.0,-4.2505,-4.5287,-4.6355,-4.7279,-4.7978,-4.4478,-4.1652,0.0,0.0,0.0,0.0,0.0,0.0,0.0,0.0,0.0,0.0,0.0,0.0,0.0,0.0,0.0,0.0,0.0,0.0,0.0,0.0,0.0,0.0,0.0,0.0,0.0,0.0,0.0,0.0,0.0,0.0,0.0,0.0,0.0,0.0,0.0,0.0,0.0,0.0,0.0,0.0,0.0,0.0,0.0,0.0,0.0,0.0,0.0,0.0,0.0,0.0,0.0,0.0,0.0,0.0,0.0,0.0,0.0,0.0,0.0,0.0,0.0,0.0,0.0,0.0,0.0,0.0,0.0,0.0,0.0,0.0,0.0,0.0,0.0,0.0,0.0,0.0,0.0,0.0,0.0,0.0,0.0,0.0,0.0,0.0,0.0,0.0,0.0,0.0,0.0,0.0,0.0,0.0,0.0,0.0,0.0,0.0,0.0,0.0,0.0,0.0,0.0,0.0,0.0,0.0,0.0,0.0,0.0,-4.0718,-4.2671,-4.4911,-4.5246,-4.5687,-4.6284,-4.3963,-4.1994,-4.0655,0.0,0.0,0.0,0.0,0.0,0.0,0.0,0.0,0.0,0.0,0.0,0.0,0.0,0.0,0.0,0.0,0.0,0.0,0.0,0.0,0.0,0.0,0.0,0.0,0.0,0.0,0.0,0.0,0.0,0.0,0.0,0.0,0.0,0.0,0.0,0.0,0.0,0.0,-2.1433,-2.2059,0.0,0.0,0.0,0.0,0.0,0.0,0.0,0.0,-2.6046,0.0,0.0,0.0,0.0,0.0,0.0,0.0,0.0,0.0,0.0,0.0,0.0,0.0,0.0,0.0,0.0,0.0,0.0,0.0,0.0,0.0,0.0,0.0,0.0,0.0,0.0,0.0,0.0,0.0,0.0,0.0,0.0,0.0,0.0,0.0,0.0,0.0,0.0,0.0,0.0,0.0,0.0,0.0,0.0,0.0,0.0,0.0,0.0,0.0,0.0,0.0,0.0,0.0,0.0,0.0,0.0,-4.1468,-4.1244,-4.2858,-4.6329,-4.6175,-4.636,-4.6945,-4.4892,-4.2682,-4.0431,0.0,0.0,0.0,0.0,0.0,0.0,0.0,0.0,0.0,0.0,0.0,0.0,0.0,0.0,0.0,0.0,0.0,0.0,0.0,0.0,0.0,0.0,0.0,0.0,0.0,0.0,0.0,0.0,0.0,0.0,0.0,0.0,0.0,0.0,0.0,0.0,0.0,0.0,0.0,-2.4559,-2.5089,0.0,0.0,0.0,0.0,0.0,0.0,0.0,0.0,-2.782,0.0,0.0,0.0,0.0,0.0,0.0,0.0,0.0,0.0,0.0,0.0,0.0,0.0,0.0,0.0,0.0,0.0,0.0,0.0,0.0,0.0,0.0,0.0,0.0,0.0,0.0,0.0,0.0,0.0,0.0,0.0,0.0,0.0,0.0,0.0,0.0,0.0,0.0,0.0,0.0,0.0,0.0,0.0,0.0,0.0,0.0,0.0,0.0,0.0,0.0,0.0,0.0,0.0,0.0,0.0,-4.1023,-4.1415,-4.2793,-4.5246,-4.5271,-4.5439,-4.5788,-4.4071,-4.2341,0.0,0.0,0.0,0.0,0.0,0.0,0.0,0.0,0.0,0.0,0.0,0.0,0.0,0.0,0.0,0.0,0.0,0.0,0.0,0.0,0.0,0.0,0.0,0.0,0.0,0.0,0.0,0.0,0.0,0.0,0.0,0.0,0.0,0.0,0.0,0.0,0.0,0.0,0.0,0.0,-2.6947,-2.7726,-2.8218,0.0,0.0,0.0,0.0,0.0,0.0,-2.9375,-2.9335,0.0,0.0,0.0,0.0,0.0,0.0,0.0,0.0,0.0,0.0,0.0,0.0,0.0,0.0,0.0,0.0,0.0,0.0,0.0,0.0,0.0,0.0,0.0,0.0,0.0,0.0,0.0,0.0,0.0,0.0,0.0,0.0,0.0,0.0,0.0,0.0,0.0,0.0,0.0,0.0,0.0,0.0,0.0,0.0,0.0,0.0,0.0,0.0,0.0,0.0,0.0,0.0,0.0,0.0,0.0,-4.0396,-4.157,-4.2746,-4.4016,-4.4343,-4.4578,-4.4767,-4.3169,-4.1842,0.0,0.0,0.0,0.0,0.0,0.0,0.0,0.0,0.0,0.0,0.0,0.0,0.0,0.0,0.0,0.0,0.0,0.0,0.0,0.0,0.0,0.0,0.0,0.0,0.0,0.0,0.0,0.0,0.0,0.0,0.0,0.0,0.0,0.0,0.0,0.0,0.0,0.0,0.0,0.0,0.0,-3.0385,-3.0979,-3.0953,0.0,0.0,0.0,0.0,-3.0628,-3.1372,0.0,0.0,0.0,0.0,0.0,0.0,0.0,0.0,0.0,0.0,0.0,0.0,0.0,0.0,0.0,0.0,0.0,0.0,0.0,0.0,0.0,0.0,0.0,0.0,0.0,0.0,0.0,0.0,0.0,0.0,0.0,0.0,0.0,0.0,0.0,0.0,0.0,0.0,0.0,0.0,0.0,0.0,0.0,0.0,0.0,0.0,0.0,0.0,0.0,0.0,0.0,0.0,0.0,0.0,0.0,0.0,-4.0548,-4.1921,-4.3127,-4.4228,-4.487,-4.5278,-4.5459,-4.3401,-4.1807,0.0,0.0,0.0,0.0,0.0,0.0,0.0,0.0,0.0,0.0,0.0,0.0,0.0,0.0,0.0,0.0,0.0,0.0,0.0,0.0,0.0,0.0,0.0,0.0,0.0,0.0,0.0,0.0,0.0,0.0,0.0,0.0,0.0,0.0,0.0,0.0,0.0,0.0,0.0,0.0,0.0,-3.2805,-3.2213,-3.2889,-3.3196,0.0,0.0,-3.3565,-3.4174,-3.5368,0.0,0.0,0.0,0.0,0.0,0.0,0.0,0.0,0.0,0.0,0.0,0.0,0.0,0.0,0.0,0.0,0.0,0.0,0.0,0.0,0.0,0.0,0.0,0.0,0.0,0.0,0.0,0.0,0.0,0.0,0.0,0.0,0.0,0.0,0.0,0.0,0.0,0.0,0.0,0.0,0.0,0.0,0.0,0.0,0.0,0.0,0.0,0.0,0.0,0.0,0.0,0.0,0.0,0.0,0.0,-3.8798,-4.0428,-4.1452,-4.2582,-4.3875,-4.4546,-4.4986,-4.5186,-4.3101,-4.1514,0.0,0.0,0.0,0.0,0.0,0.0,0.0,0.0,0.0,0.0,0.0,0.0,0.0,0.0,0.0,0.0,0.0,0.0,0.0,0.0,0.0,0.0,0.0,0.0,0.0,0.0,0.0,0.0,0.0,0.0,0.0,0.0,0.0,0.0,0.0,0.0,0.0,0.0,0.0,0.0,0.0,0.0,-3.4255,-3.4887,0.0,0.0,0.0,-3.5139,-3.5126,0.0,0.0,0.0,0.0,0.0,0.0,0.0,0.0,0.0,0.0,0.0,0.0,0.0,0.0,0.0,0.0,0.0,0.0,0.0,0.0,0.0,0.0,0.0,0.0,0.0,0.0,0.0,0.0,0.0,0.0,0.0,0.0,0.0,0.0,0.0,0.0,0.0,0.0,0.0,0.0,0.0,0.0,0.0,0.0,0.0,0.0,0.0,0.0,0.0,0.0,0.0,0.0,0.0,0.0,0.0,0.0,0.0,-4.0091,-4.1047,-4.2179,-4.3422,-4.433,-4.4848,-4.4865,-4.2933,0.0,0.0,0.0,0.0,0.0,0.0,0.0,0.0,0.0,0.0,0.0,0.0,0.0,0.0,0.0,0.0,0.0,0.0,0.0,0.0,0.0,0.0,0.0,0.0,0.0,0.0,0.0,-2.6058,0.0,0.0,0.0,0.0,0.0,0.0,0.0,0.0,0.0,0.0,0.0,0.0,0.0,0.0,-3.5636,-3.5866,-3.6767,-3.7565,0.0,0.0,-3.6208,-3.6284,-3.7704,-3.7767,0.0,0.0,0.0,0.0,0.0,0.0,0.0,0.0,0.0,0.0,0.0,0.0,0.0,0.0,0.0,0.0,0.0,0.0,0.0,0.0,0.0,0.0,0.0,0.0,0.0,0.0,0.0,0.0,0.0,0.0,0.0,0.0,0.0,0.0,0.0,0.0,0.0,0.0,0.0,0.0,0.0,0.0,0.0,0.0,0.0,0.0,0.0,0.0,0.0,0.0,0.0,0.0,0.0,0.0,-3.8576,-3.9373,-4.1105,-4.2315,-4.3062,-4.4456,-4.5113,-4.4894,-4.3202,-4.165,0.0,0.0,0.0,0.0,0.0,0.0,0.0,0.0,0.0,0.0,0.0,0.0,0.0,0.0,0.0,0.0,0.0,0.0,0.0,0.0,0.0,0.0,0.0,0.0,0.0,0.0,0.0,0.0,0.0,0.0,0.0,0.0,0.0,0.0,0.0,0.0,0.0,0.0,0.0,0.0,0.0,-3.6985,-3.653,-3.8501,-4.0167,0.0,-3.8294,-3.7064,-3.8743,-4.063,-4.0373,-3.5827,0.0,0.0,0.0,0.0,0.0,0.0,0.0,0.0,0.0,0.0,0.0,0.0,0.0,0.0,0.0,0.0,0.0,0.0,0.0,0.0,0.0,0.0,0.0,0.0,0.0,0.0,0.0,0.0,0.0,0.0,0.0,0.0,0.0,0.0,0.0,0.0,0.0,0.0,0.0,0.0,0.0,0.0,0.0,0.0,0.0,0.0,0.0,0.0,0.0,0.0,0.0,0.0,0.0,-3.8043,-3.9104,-4.0238,-4.1726,-4.3572,-4.4182,-4.4763,-4.525,-4.3196,-4.1424,0.0,0.0,0.0,0.0,0.0,0.0,0.0,0.0,0.0,0.0,0.0,0.0,0.0,0.0,0.0,0.0,0.0,0.0,0.0,0.0,0.0,0.0,0.0,0.0,0.0,0.0,0.0,0.0,-2.8299,-2.8488,-2.8941,0.0,0.0,0.0,0.0,0.0,0.0,0.0,0.0,0.0,0.0,-3.7196,-3.7655,-3.88,0.0,0.0,-3.8563,-3.7794,-3.8686,-3.9555,-3.9156,-3.6185,-3.5248,0.0,0.0,0.0,0.0,0.0,0.0,0.0,0.0,0.0,0.0,0.0,0.0,0.0,0.0,0.0,0.0,0.0,0.0,0.0,0.0,0.0,0.0,0.0,0.0,0.0,0.0,0.0,0.0,0.0,0.0,0.0,0.0,0.0,0.0,0.0,0.0,0.0,0.0,0.0,0.0,0.0,0.0,0.0,0.0,0.0,0.0,0.0,0.0,0.0,0.0,0.0,0.0,-3.7692,-3.8943,-3.9682,-4.1163,-4.3384,-4.379,-4.4182,-4.4568,-4.3055,-4.1355,0.0,0.0,0.0,0.0,0.0,0.0,0.0,0.0,0.0,0.0,0.0,0.0,0.0,0.0,0.0,0.0,0.0,0.0,0.0,0.0,0.0,0.0,0.0,0.0,0.0,0.0,0.0,0.0,-2.9131,-2.9209,-2.947,0.0,0.0,0.0,0.0,0.0,0.0,0.0,0.0,0.0,0.0,-3.7306,-3.8128,-3.9155,-3.9735,-3.9478,-3.8624,-3.8152,-3.829,-3.8642,-3.8191,-3.6158,0.0,0.0,0.0,0.0,0.0,0.0,0.0,0.0,0.0,0.0,0.0,0.0,0.0,0.0,0.0,0.0,0.0,0.0,0.0,0.0,0.0,0.0,0.0,0.0,0.0,0.0,0.0,0.0,0.0,0.0,-3.9673,0.0,0.0,0.0,0.0,0.0,0.0,0.0,0.0,0.0,0.0,0.0,0.0,0.0,0.0,0.0,0.0,0.0,0.0,0.0,0.0,0.0,0.0,-3.7671,-3.8789,-3.9658,-4.0771,-4.215,-4.334,-4.3617,-4.284,-4.2681,-4.1676,-3.9524,0.0,0.0,0.0,0.0,0.0,0.0,0.0,0.0,0.0,0.0,0.0,0.0,0.0,0.0,0.0,0.0,0.0,0.0,0.0,0.0,0.0,0.0,0.0,0.0,0.0,0.0,-2.9802,-2.9804,-2.9778,0.0,0.0,0.0,0.0,0.0,0.0,0.0,0.0,0.0,0.0,-3.5594,-3.729,-3.768,-3.9727,-4.0773,-3.9813,-3.8717,-3.7979,-3.8003,-3.8479,-3.8115,0.0,0.0,0.0,0.0,0.0,0.0,0.0,0.0,0.0,0.0,0.0,0.0,0.0,0.0,0.0,0.0,0.0,0.0,0.0,0.0,0.0,0.0,0.0,0.0,0.0,0.0,0.0,-4.0718,-4.0458,0.0,0.0,0.0,0.0,0.0,0.0,0.0,0.0,0.0,0.0,0.0,-4.1466,-4.1595,0.0,0.0,0.0,0.0,0.0,0.0,0.0,0.0,0.0,0.0,0.0,0.0,-3.7514,-3.8752,-3.9658,-4.0879,-4.2448,-4.291,-4.3041,-4.2837,-4.2466,-4.0972,-3.8311,0.0,0.0,0.0,0.0,0.0,0.0,0.0,0.0,0.0,0.0,0.0,0.0,0.0,0.0,0.0,0.0,0.0,0.0,0.0,0.0,0.0,0.0,0.0,0.0,0.0,-3.1145,0.0,0.0,0.0,0.0,0.0,0.0,0.0,0.0,0.0,0.0,0.0,-3.2864,-3.3948,-3.5878,-3.7249,-3.734,-3.9018,-3.9956,0.0,0.0,0.0,0.0,0.0,0.0,0.0,0.0,0.0,0.0,0.0,0.0,0.0,0.0,-3.211,-3.1324,-3.0648,-3.0073,-2.9764,0.0,0.0,0.0,0.0,0.0,0.0,0.0,0.0,0.0,0.0,0.0,0.0,0.0,0.0,-4.185,0.0,-4.1741,0.0,0.0,0.0,0.0,0.0,0.0,0.0,0.0,-4.2347,-4.2958,-4.2938,-4.3341,-4.3111,0.0,-4.1863,-4.0567,0.0,0.0,0.0,0.0,0.0,0.0,0.0,0.0,-3.7659,-3.8875,-3.9838,-4.0989,-4.2194,-4.2481,-4.2453,-4.2263,-4.1509,-4.0069,-3.788,-3.6458,-3.5159,0.0,0.0,0.0,0.0,0.0,0.0,0.0,0.0,0.0,0.0,0.0,0.0,0.0,0.0,0.0,0.0,0.0,0.0,0.0,0.0,0.0,0.0,0.0,-3.1585,0.0,0.0,0.0,0.0,0.0,0.0,0.0,0.0,0.0,-3.2584,-3.322,-3.4085,-3.5332,-3.6719,-3.7509,-3.7211,0.0,0.0,0.0,0.0,0.0,0.0,0.0,-3.6471,-3.5918,-3.5749,-3.5796,-3.6081,-3.526,-3.4541,-3.4602,0.0,0.0,-3.2364,-3.1756,-3.1411,-3.1298,-3.1168,-3.0997,-3.0878,-3.0582,-3.0312,0.0,0.0,0.0,0.0,0.0,0.0,0.0,0.0,-4.2459,-4.2896,0.0,-4.3061,0.0,0.0,0.0,0.0,0.0,-4.2945,0.0,0.0,-4.5018,-4.5425,-4.4095,-4.3948,-4.3664,-4.3332,-4.2803,-4.1983,-4.0952,-3.9319,0.0,0.0,0.0,0.0,0.0,0.0,-3.8023,-3.9122,-4.0213,-4.0988,-4.1396,-4.1953,-4.1825,-4.1001,-4.0013,-3.9088,-3.8228,-3.6893,-3.5853,-3.5198,-3.3515,0.0,0.0,0.0,0.0,0.0,0.0,0.0,0.0,0.0,0.0,0.0,0.0,0.0,0.0,0.0,0.0,0.0,0.0,0.0,0.0,-3.1133,0.0,0.0,0.0,0.0,0.0,0.0,0.0,0.0,0.0,0.0,-3.3858,-3.4302,-3.5341,-3.7264,0.0,0.0,0.0,0.0,-3.7613,-3.6656,-3.7321,-3.7471,-3.5915,-3.6558,-3.7036,-3.6556,0.0,0.0,-3.8517,-3.688,-3.5592,-3.5717,-3.5037,-3.4246,-3.3287,-3.27,-3.2322,-3.2131,-3.2085,-3.1922,-3.1511,-3.1234,-3.0983,-4.7947,0.0,0.0,0.0,0.0,-4.4901,-4.5358,-4.6027,-4.6134,-4.5846,-4.5244,-4.4649,0.0,0.0,0.0,0.0,0.0,0.0,-4.3294,-4.4636,-4.5902,-4.6598,-4.6784,-4.765,-4.699,-4.498,-4.5449,-4.4212,-4.1588,-4.1156,-3.9884,-3.7794,0.0,0.0,0.0,0.0,-3.8026,-3.947,-4.0187,-4.0724,-4.1085,-4.1312,-4.1114,-4.0587,-4.0104,-3.9457,-3.8651,-3.7812,-3.6661,-3.5197,-3.3953,0.0,0.0,0.0,0.0,0.0,0.0,0.0,0.0,0.0,0.0,0.0,0.0,0.0,0.0,0.0,0.0,0.0,0.0,0.0,-3.2201,-3.2135,-3.2134,0.0,0.0,0.0,0.0,0.0,0.0,0.0,0.0,0.0,-3.567,-3.5416,-3.5449,0.0,0.0,-3.6729,-3.6094,-3.692,-3.761,-3.7574,0.0,0.0,0.0,-3.7826,-3.7713,-3.755,-3.7929,-3.7966,-3.712,-3.6273,-3.5634,-3.525,-3.4461,-3.3817,-3.351,-3.3223,-3.302,-3.2933,-3.2814,-3.2868,-3.3159,-3.2824,-3.248,-4.982,-4.8018,-4.7158,-4.6733,-4.6632,-4.6581,-4.6994,-4.7725,-4.7943,-4.7453,-4.6478,-4.5945,-4.4886,-4.3453,-4.2758,0.0,0.0,0.0,-4.4291,-4.5693,-4.6825,-4.7523,-4.7826,-4.8859,-4.8287,-4.6307,-4.6454,-4.5362,-4.3016,-4.2228,-4.1074,-3.9476,0.0,0.0,-3.7887,-3.8048,-3.8677,-3.9824,-4.0385,-4.0674,-4.0759,-4.0674,-4.0473,-4.0124,-3.9936,-3.9516,-3.8653,-3.8285,-3.7282,-3.5513,-3.4477,-3.3253,0.0,0.0,0.0,0.0,0.0,0.0,0.0,0.0,0.0,0.0,0.0,-2.9432,-2.9316,0.0,0.0,0.0,-3.1789,-3.2234,-3.2556,-3.255,0.0,0.0,0.0,0.0,0.0,0.0,0.0,-3.4577,-3.4886,-3.5427,-3.6361,-3.6173,-3.6175,-3.6785,-3.7238,-3.7245,-3.6596,0.0,-3.7964,-3.8002,-3.8087,-3.8274,-3.8504,-3.8241,-3.8054,-3.8303,-3.8116,-3.7714,-3.6791,-3.5994,-3.5344,-3.4914,-3.4222,-3.3625,-3.3625,-3.3298,-3.3153,-3.3546,-3.3678,-3.3897,-3.4379,-3.436,-3.4207,-5.1155,-4.9517,-4.7603,-4.6994,-4.7263,-4.7328,-4.7475,-4.7802,-4.8299,-4.7951,-4.7077,-4.6814,-4.5934,-4.4591,-4.3955,0.0,-4.3829,-4.5128,-4.5755,-4.6008,-4.7664,-4.8083,-4.7533,-4.8177,-4.7966,-4.6951,-4.6299,-4.5579,-4.4703,-4.2808,-4.158,-4.1053,-3.9672,-3.8832,-3.866,-3.917,-3.9648,-4.0151,-4.0647,-4.0717,-4.0399,-4.011,-3.9892,-3.97,-3.97,-3.9267,-3.845,-3.8369,-3.7585,-3.6047,-3.5004,-3.3957,-3.2864,0.0,0.0,0.0,0.0,0.0,0.0,0.0,0.0,0.0,0.0,0.0,0.0,0.0,0.0,0.0,-3.2025,0.0,-3.2344,-3.2587,0.0,0.0,0.0,-3.4004,-3.4211,-3.4774,-3.5206,-3.5405,0.0,0.0,-3.6184,-3.6515,-3.7061,-3.8072,-3.869,-3.8767,-3.7903,-3.8129,-3.8379,-3.7866,-3.7687,-3.766,-3.7903,-3.7879,-3.7954,-3.8297,-3.8182,-3.7493,-3.6813,-3.5745,-3.4902,-3.4571,-3.3981,-3.343,-3.3452,-3.2836,-3.273,-3.3671,-3.416,-3.4549,-3.4571,-3.5135,-3.5146,-5.129,-5.0353,-4.8991,-4.818,-4.7886,-4.8353,-4.8481,-4.8347,-4.8434,-4.7877,-4.6845,-4.6266,-4.5254,-4.3946,-4.3753,-4.3974,-4.4496,-4.4828,-4.573,-4.7029,-4.7007,-4.7103,-4.7294,-4.7497,-4.6757,-4.5348,-4.6214,-4.5489,-4.3333,-4.3223,-4.2473,-4.1041,-4.0505,-4.0067,-3.9696,-3.8901,-3.9203,-4.0562,-4.0238,-4.0196,-4.0371,-3.9993,-3.973,-3.97,-3.951,-3.9078,-3.8437,-3.7946,-3.7053,-3.5542,-3.4795,-3.372,-3.221,-3.1707,0.0,0.0,0.0,0.0,0.0,0.0,0.0,0.0,0.0,-3.0495,-3.0523,0.0,-3.197,0.0,-3.1969,-3.2081,-3.2081,-3.2535,0.0,0.0,-3.3707,-3.4119,-3.4525,-3.4923,-3.5307,-3.574,-3.6167,-3.6333,-3.6085,-3.6491,-3.6638,-3.6369,-3.7109,-3.7338,-3.6403,-3.7106,-3.7529,-3.701,-3.7444,-3.7829,-3.7506,-3.7306,-3.7053,-3.6771,-3.6447,-3.5944,-3.517,-3.4656,-3.3994,-3.3041,-3.254,-3.2177,-3.1999,-3.1764,-3.1842,-3.2211,-3.2287,-3.2277,-3.2517,-3.3486,-3.3824,-5.1299,-5.0504,-4.9771,-4.8933,-4.8026,-4.8379,-4.8558,-4.8593,-4.8535,-4.7914,-4.6866,-4.6144,-4.5381,-4.467,-4.4938,-4.5112,-4.5218,-4.6045,-4.6815,-4.7486,-4.7598,-4.7754,-4.7993,-4.8024,-4.7446,-4.6388,-4.6551,-4.5631,-4.3764,-4.3199,-4.2285,-4.1001,-4.1084,-4.0969,-4.0746,-3.98,-3.9787,-4.0688,-4.0151,-3.9937,-4.0081,-3.973,-3.9373,-3.9114,-3.8881,-3.8374,-3.7509,-3.7044,-3.6164,-3.4695,-3.4328,-3.3398,-3.1856,-3.1564,-3.0997,0.0,0.0,0.0,0.0,0.0,0.0,0.0,0.0,0.0,0.0,0.0,-3.2178,-3.2142,-3.225,-3.2293,-3.2181,-3.2645,-3.2967,-3.2855,-3.3322,-3.3818,-3.4313,-3.465,-3.5083,-3.5694,-3.5827,-3.5775,-3.55,-3.5905,-3.5953,-3.5206,-3.5904,-3.6431,-3.6284,-3.6826,-3.7122,-3.6862,-3.7023,-3.7097,-3.6775,-3.6708,-3.6563,-3.5951,-3.5437,-3.4855,-3.4121,-3.365,-3.3052,-3.2188,-3.1701,-3.1428,-3.136,-3.1249,-3.1179,-3.1202,-3.0938,-3.0905,-3.1638,-3.2141,-3.2097,-5.1177,-5.0245,-5.0026,-4.9159,-4.788,-4.788,-4.8097,-4.8413,-4.8299,-4.7743,-4.6902,-4.6133,-4.5855,-4.5981,-4.6534,-4.6534,-4.6181,-4.7743,-4.8145,-4.7667,-4.8366,-4.8732,-4.8691,-4.8599,-4.8409,-4.8035,-4.6808,-4.5748,-4.4805,-4.3153,-4.1919,-4.1199,-4.1535,-4.1657,-4.1488,-4.1039,-4.0744,-4.0546,-4.0172,-3.9878,-3.97,-3.9452,-3.902,-3.8363,-3.8206,-3.751,-3.634,-3.6064,-3.531,-3.3814,-3.3691,-3.3052,-3.1741,-3.1308,-3.0742,0.0,-2.96,0.0,0.0,0.0,0.0,0.0,0.0,0.0,0.0,-3.1671,-3.2125,-3.2344,-3.2552,-3.2581,-3.235,-3.2791,-3.2836,-3.2208,-3.2755,-3.3437,-3.3879,-3.4125,-3.4553,-3.5255,-3.4872,-3.4583,-3.451,-3.493,-3.4915,-3.4216,-3.4577,-3.5219,-3.6033,-3.6352,-3.6612,-3.686,-3.6209,-3.5574,-3.5536,-3.5677,-3.5604,-3.509,-3.44,-3.381,-3.3243,-3.2598,-3.2017,-3.1641,-3.1158,-3.0887,-3.1184,-3.0853,-3.0615,-3.0531,-3.0083,-3.0062,-3.1025,-3.0985,-3.0459,-5.0899,-4.9512,-4.928,-4.8414,-4.7103,-4.7103,-4.7047,-4.7001,-4.6804,-4.647,-4.6033,-4.5886,-4.6108,-4.6613,-4.674,-4.7056,-4.7514,-4.7633,-4.7864,-4.8113,-4.7565,-4.7227,-4.7022,-4.6513,-4.5919,-4.5418,-4.5631,-4.5154,-4.4113,-4.4065,-4.3285,-4.1866,-4.2211,-4.1896,-4.094,0.0,0.0,0.0,-3.9877,-3.9878,-3.9686,-3.9452,-3.8932,-3.8189,-3.8118,0.0,-3.6158,-3.6035,-3.5112,-3.3206,-3.3088,0.0,0.0,0.0,0.0,0.0,0.0,0.0,0.0,0.0,0.0,0.0,-3.1368,-3.1616,-3.1792,-3.2108,-3.2269,-3.2081,-3.2135,-3.2059,-3.1862,-3.23,-3.2623,-3.2682,-3.302,-3.3395,-3.371,-3.3611,-3.3592,-3.3712,-3.3642,-3.3408,-3.3078,-3.3019,-3.2912,-3.2435,-3.2542,-3.2815,-3.3064,-3.4351,-3.5048,-3.4742,-3.4216,-3.3776,-3.3498,-3.325,-3.3017,-3.2442,-3.2179,-3.1865,-3.1682,-3.1239,-3.0884,-3.0674,-3.0381,-3.017,-3.0263,-3.018,-3.0097,-2.9855,-2.9668,-2.9657,-2.9927,-2.9617,-2.9233,-5.0667,0.0,-4.8839,-4.8285,0.0,-4.7184,-4.6982,-4.7114,-4.6548,-4.61,-4.5807,-4.5807,-4.5997,-4.6345,-4.7024,-4.7265,-4.7253,-4.8012,-4.8098,-4.7636,-4.7691,-4.7484,-4.7096,-4.7096,-4.6622,-4.5795,-4.5627,-4.4874,-4.3495,-4.3212,-4.2553,-4.141,-4.1885,-4.1783,-4.1193,-4.1343,-4.0861,-3.9726,-3.977,-3.976,-3.9496,-3.9349,-3.8976,-3.8276,0.0,0.0,0.0,0.0,0.0,0.0,0.0,0.0,0.0,0.0,0.0,-3.0858,-3.061,-3.0513,-3.0525,-3.0723,-3.1031,-3.1296,-3.1548,-3.1749,-3.1849,-3.1981,-3.1981,-3.1862,-3.2091,-3.2107,-3.1753,-3.1974,-3.2041,-3.1881,-3.18,-3.1957,-3.2424,-3.2333,-3.2346,-3.27,-3.2653,-3.2453,-3.2182,-3.217,-3.2028,-3.1802,-3.1838,-3.1921,-3.2015,-3.2779,-3.3323,-3.301,-3.2655,-3.2266,-3.1991,-3.1542,-3.1266,-3.1224,-3.0947,-3.0745,-3.0657,-3.0446,-3.0159,-2.9921,-2.9921,-3.0005,-2.9995,-2.9879,-2.9774,-2.9606,-2.9343,-2.9142,-2.9152,-2.895,-2.8747,-5.0578,-5.0001,-4.8852,-4.8609,-4.888,-4.7637,-4.7222,-4.7396,0.0,0.0,0.0,-4.5934,-4.5981,-4.6092,-4.7413,-4.7583,-4.6991,-4.8403,-4.8397,-4.7298,-4.8055,-4.8065,-4.7465,-4.8004,-4.765,-4.6572,-4.58,-4.4629,-4.3123,-4.2379,-4.1682,-4.1138,-4.1643,-4.1882,-4.1783,-4.1279,-4.0711,-4.0037,-3.9804,-3.9554,-3.9305,-3.9305,-3.902,-3.835,-3.8206,-3.7322,-3.5748,-3.5516,-3.4741,-3.3296,-3.3126,-3.2604,-3.1559,-3.1728,-3.1452,-3.0598,-3.0857,-3.1055,-3.1011,-3.1011,-3.1247,-3.1681,-3.1705,-3.1705,-3.1705,-3.1705,-3.1705,-3.1705,-3.2094,-3.2199,-3.1765,-3.1731,-3.151,-3.0939,-3.0578,-3.0582,-3.1043,-3.0928,-3.1101,-3.1586,-3.148,-3.1395,-3.135,-3.1338,-3.1395,-3.1395,-3.1257,-3.1348,-3.1382,-3.1746,-3.2073,-3.1857,-3.1552,-3.1117,-3.0818,-3.036,-3.0182,-3.0373,-3.0084,-2.9891,-2.995,-2.9893,-2.9731,-2.957,-2.9754,-2.9952,-2.9964,-2.9774,-2.9606,-2.9491,-2.9019,-2.8565,-2.8565,-2.8443,-2.837,-5.1019,-5.0082,-4.9888,-4.9515,-4.8965,-4.8188,-4.7329,-4.6493,-4.6235,-4.6024,-4.5839,-4.6424,-4.6661,-4.6724,-4.7954,-4.842,-4.8302,-4.8228,-4.837,0.0,-4.8024,-4.7388,-4.6757,-4.6834,-4.6152,-4.4916,-4.4703,-4.4248,-4.3488,-4.3272,-4.2927,-4.246,-4.2921,-4.295,-4.2402,-4.0938,-4.0136,-4.0009,-3.9804,-3.9554,-3.9305,-3.9305,-3.8932,-3.8202,-3.8118,-3.7652,-3.673,-3.6647,-3.5953,-3.4508,-3.3951,-3.3314,-3.2611,-3.181,-3.154,-3.2,-3.178,-3.1597,-3.1597,-3.1585,-3.1633,-3.1693,-3.1705,-3.1705,-3.1705,-3.1705,-3.1705,-3.1717,-3.1801,-3.1801,-3.1717,-3.1701,-3.1413,-3.096,-3.0802,-3.0636,-3.0182,-3.0114,-3.0045,-2.9986,-2.9837,-2.9871,-2.9973,-2.9962,-2.9973,-2.9882,-3.0041,-2.9801,-2.9911,-3.0816,-3.1542,-3.1422,-3.0855,-3.0323,-2.9961,-2.9393,-2.907,-2.901,-2.9004,-2.9046,-2.9326,-2.9386,-2.9448,-2.9777,-2.9827,-2.9931,-2.9953,-2.9784,-2.9481,-2.9187,-2.864,-2.816,-2.7921,-2.7604,-2.7523,-5.0774,-5.0066,-4.9677,-4.9564,-4.9511,-4.8651,-4.7762,-4.6857,-4.6219,-4.588,-4.5839,-4.6139,-4.6266,-4.6324,-4.7098,-4.7385,-4.7285,-4.7387,-4.753,-4.7657,-4.7259,-4.6911,-4.6619,-4.6364,-4.5738,-4.4717,-4.4373,-4.3704,-4.2752,-4.2509,-4.2317,-4.2078,-4.2225,-4.2348,-4.2289,-4.1021,-4.0343,-4.0285,-4.0076,-3.9778,-3.9319,-3.9617,-3.945,-3.8793,-3.8766,-3.8408,-3.7741,-3.7714,-3.7,-3.5526,-3.4912,-3.4187,-3.3214,-3.2628,-3.225,-3.2194,-3.214,-3.203,-3.1717,-3.1705,-3.1705,-3.1705,-3.1705,-3.1705,-3.1705,-3.1705,-3.1705,-3.1705,-3.1705,-3.1705,-3.1661,-3.1205,-3.0802,-3.0544,-3.008,-2.9634,-2.937,-2.9416,-2.9416,-2.9312,-2.9405,-2.9531,-2.9531,-2.9531,-2.9531,-2.9485,-2.9393,-2.9163,-2.8921,-2.9506,-3.0028,-2.9792,-2.931,-2.8965,-2.8696,-2.8299,-2.8068,-2.824,-2.8265,-2.8335,-2.8624,-2.8971,-2.9299,-2.8996,-2.9192,-2.9444,-2.9435,-2.9264,-2.8958,-2.8623,-2.8232,-2.7806,-2.7415,-2.7036,-2.7023,-5.0627,-5.0066,-4.9677,-4.9742,-5.0029,-4.9288,-4.8381,-4.7369,-4.6623,-4.6108,-4.5855,-4.595,-4.5965,-4.585,-4.6438,-4.6532,-4.628,-4.6501,-4.6647,-4.6573,-4.6434,-4.6333,-4.6214,-4.5854,-4.527,-4.4495,-4.3917,-4.3157,-4.2219,-4.1928,-4.1866,-4.1934,-4.1784,-4.1914,-4.2268,-4.131,-4.0727,-4.0603,-4.0486,-4.0038,-3.9346,-3.9766,-3.9753,-3.9346,-3.9305,-3.9074,-3.8654,-3.8496,-3.7828,-3.6546,-3.5735,-3.4838,-3.3794,-3.3271,-3.2697,-3.2135,-3.2216,-3.2118,-3.1765,-3.1705,-3.1705,-3.1705,-3.1661,-3.1617,-3.1705,-3.1661,-3.1661,-3.1717,-3.1705,-3.1705,-3.1617,-3.0937,-3.0306,-3.017,-2.9485,-2.8989,-2.885,-2.8932,-2.9035,-2.9035,-2.922,-2.9347,-2.9347,-2.9347,-2.9301,-2.9209,-2.9024,-2.8746,-2.8491,-2.8445,-2.8362,-2.8196,-2.8055,-2.7972,-2.7631,-2.7452,-2.7492,-2.7748,-2.7759,-2.7821,-2.8053,-2.8847,-2.9062,-2.8242,-2.8221,-2.8592,-2.8696,-2.8687,-2.8555,-2.8344,-2.8035,-2.7552,-2.6982,-2.6703,-2.6592,-5.1067,-5.0281,-5.0681,-5.0633,-5.0175,-5.0267,-4.9197,-4.7556,-4.7569,-4.6961,-4.595,-4.6439,-4.6345,-4.5992,-4.6894,-4.6908,-4.6187,-4.6058,-4.6183,-4.6489,-4.5957,-4.5485,-4.5215,-4.486,-4.4128,-4.3204,-4.2867,-4.2667,-4.2463,-4.246,-4.2635,-4.2938,-4.2962,-4.2768,-4.2578,-4.175,-4.1051,-4.0617,-4.0849,-4.0472,-3.9386,-3.9359,-3.9359,-3.9319,-3.9305,-3.9278,-3.9183,-3.8778,-3.8289,-3.7632,-3.6224,-3.5105,-3.428,-3.3148,-3.2362,-3.2038,-3.1854,-3.1741,-3.1717,-3.1705,-3.1705,-3.1673,-3.1496,-3.1427,-3.1673,-3.1484,-3.1439,-3.1661,-3.1705,-3.1717,-3.1661,-3.1128,-3.0578,-3.0125,-2.9669,-2.9301,-2.8885,-2.8803,-2.8839,-2.885,-2.8896,-2.885,-2.8943,-2.8885,-2.8803,-2.8581,-2.8337,-2.8092,-2.7867,-2.7773,-2.7715,-2.7584,-2.7726,-2.7867,-2.7631,-2.7452,-2.7351,-2.7403,-2.7392,-2.75,-2.7755,-2.7741,-2.76,-2.7912,-2.731,-2.7312,-2.8065,-2.8331,-2.8252,-2.8196,-2.7914,-2.7444,-2.6699,-2.6395,-2.6295,-5.1394,-5.0762,-5.1054,-5.0962,-5.0505,-4.9748,-4.901,-4.8381,-4.7151,-4.6534,-4.6392,-4.6281,-4.606,-4.5818,-4.617,-4.6062,-4.5588,-4.5421,-4.5572,-4.5934,-4.5295,-4.5025,-4.4913,-4.4028,-4.3382,-4.2877,-4.2467,-4.2178,-4.201,-4.2008,-4.2015,-4.2015,-4.1893,-4.2012,-4.24,-4.1688,-4.1126,-4.0922,-4.1047,-4.0526,-3.9509,-3.9644,-3.9658,-3.9346,-3.9305,-3.9305,-3.9278,-3.8803,-3.81,-3.7323,-3.6095,-3.4917,-3.3911,-3.2926,-3.2257,-3.2038,-3.1793,-3.1705,-3.1705,-3.1705,-3.1705,-3.1705,-3.1439,-3.1395,-3.1661,-3.1439,-3.1395,-3.1673,-3.1705,-3.1572,-3.1261,-3.0769,-3.0306,-2.9795,-2.9347,-2.9035,-2.885,-2.8803,-2.8803,-2.8803,-2.8803,-2.8803,-2.8803,-2.8664,-2.8384,-2.8066,-2.782,-2.7678,-2.7489,-2.7394,-2.7404,-2.7357,-2.7489,-2.7536,-2.7452,-2.7347,-2.7309,-2.732,-2.732,-2.7434,-2.7438,-2.7475,-2.7379,-2.7459,-2.6703,-2.6448,-2.7272,-2.7705,-2.7894,-2.7832,-2.739,-2.6777,-2.6445,-2.6083,-2.5739,-5.1443,-5.0929,-5.0892,-5.0908,-5.0778,-4.9614,-4.8988,-4.8736,-4.7083,-4.6455,-4.6455,-4.6013,-4.5807,-4.5787,-4.5662,-4.5442,-4.522,-4.5055,-4.51,-4.5234,-4.4726,-4.4464,-4.4333,-4.3314,-4.2609,-4.232,-4.1853,-4.1606,-4.1601,-4.1723,-4.173,-4.1616,-4.1252,-4.1466,-4.2111,-4.1468,-4.1028,-4.0865,-4.0865,-4.035,-3.9468,-3.9563,-3.9576,-3.9332,-3.9305,-3.9224,-3.9061,-3.8671,-3.7909,-3.6813,-3.5826,-3.4756,-3.3531,-3.2771,-3.2257,-3.195,-3.1793,-3.1705,-3.1705,-3.1705,-3.1705,-3.1661,-3.1395,-3.1306,-3.1484,-3.1362,-3.135,-3.1528,-3.1673,-3.1484,-3.0937,-3.0487,-3.0034,-2.952,-2.9071,-2.8803,-2.8803,-2.8803,-2.8803,-2.8803,-2.8803,-2.8757,-2.8664,-2.843,-2.8113,-2.7726,-2.7594,-2.7499,-2.7357,-2.7309,-2.732,-2.732,-2.7309,-2.7309,-2.732,-2.7309,-2.732,-2.732,-2.732,-2.7262,-2.7272,-2.7235,-2.7081,-2.6903,-2.6153,-2.6025,-2.6734,-2.7123,-2.7448,-2.7156,-2.6814,-2.6483,-2.6306,-2.5856,-2.5555,-5.1149,-5.0249,-5.0163,-5.0488,-5.0842,-5.0528,-4.9601,-4.8258,-4.7832,-4.7056,-4.6029,-4.5839,-4.5807,-4.5807,-4.5787,-4.5552,-4.522,-4.5182,-4.5011,-4.4679,-4.4235,-4.3699,-4.3065,-4.2374,-4.1715,-4.1284,-4.1028,-4.1053,-4.1543,-4.1912,-4.2342,-4.2509,-4.1672,-4.1579,-4.1794,-4.1313,-4.0811,-4.035,-4.0241,-3.9916,-3.9305,-3.8762,-3.8776,-3.9156,-3.9278,-3.8979,-3.8556,-3.8523,-3.7824,-3.6188,-3.5636,-3.473,-3.3333,-3.2683,-3.2169,-3.1805,-3.1705,-3.1705,-3.1705,-3.1705,-3.1705,-3.1661,-3.1273,-3.1107,-3.1306,-3.1139,-3.1107,-3.1318,-3.154,-3.1439,-3.0892,-3.0454,-2.9977,-2.9485,-2.9082,-2.885,-2.8803,-2.8803,-2.8803,-2.8803,-2.8757,-2.8664,-2.8441,-2.8186,-2.7914,-2.7631,-2.7441,-2.7309,-2.7309,-2.732,-2.732,-2.732,-2.732,-2.732,-2.732,-2.732,-2.732,-2.732,-2.7262,-2.7214,-2.715,-2.7027,-2.6719,-2.64,-2.5945,-2.5947,-2.6358,-2.6678,-2.6994,-2.6943,-2.6858,-2.6616,-2.6276,-2.6287,-2.5954,-5.1394,-5.0795,-5.0795,-5.0585,-5.014,-4.955,-4.8813,-4.8046,-4.6988,-4.655,-4.6392,-4.5997,-4.5807,-4.5807,-4.5807,-4.5589,-4.522,-4.522,-4.498,-4.4587,-4.3996,-4.3472,-4.2941,-4.217,-4.1548,-4.1043,-4.0816,-4.08,-4.1011,-4.106,-4.0991,-4.0921,-4.0542,-4.0495,-4.0748,-4.0635,-4.039,-4.0187,-3.9834,-3.9332,-3.8762,-3.8165,-3.7919,-3.8122,-3.8122,-3.8204,-3.841,-3.7464,-3.6628,-3.5895,-3.4825,-3.3645,-3.2551,-3.2135,-3.1893,-3.1705,-3.1705,-3.1705,-3.1705,-3.1705,-3.1705,-3.1661,-3.1273,-3.1074,-3.1172,-3.0994,-3.0859,-3.105,-3.1196,-3.0972,-3.0465,-3.0227,-2.9886,-2.9209,-2.8896,-2.8803,-2.8803,-2.8803,-2.8803,-2.8803,-2.8664,-2.843,-2.8196,-2.7904,-2.7678,-2.7452,-2.7357,-2.7309,-2.732,-2.732,-2.732,-2.732,-2.732,-2.732,-2.732,-2.732,-2.732,-2.7214,-2.7167,-2.7034,-2.6959,-2.6767,-2.6458,-2.6149,-2.58,-2.5635,-2.5945,-2.5989,-2.6311,-2.6612,-2.6589,-2.6391,-2.6256,-2.6121,-2.5849,-5.1483,-5.1237,-5.1146,-5.0591,-4.9695,-4.9005,-4.8302,-4.7638,-4.6571,-4.6281,-4.6376,-4.5997,-4.5807,-4.5807,-4.5807,-4.5641,-4.5331,-4.522,-4.4905,-4.4328,-4.3693,-4.3115,-4.2537,-4.1798,-4.1254,-4.093,-4.0773,-4.0702,-4.0673,-4.0529,-4.0352,-4.0313,-3.9928,-3.9898,-4.0124,-4.0011,-3.9902,-3.9821,-3.9495,-3.902,-3.8423,-3.7783,-3.7499,-3.7472,-3.7309,-3.7363,-3.777,-3.6807,-3.5923,-3.5241,-3.4246,-3.3201,-3.2138,-3.1805,-3.1705,-3.1705,-3.1705,-3.1705,-3.1705,-3.1705,-3.1705,-3.1673,-3.1285,-3.1062,-3.1139,-3.0814,-3.0724,-3.0826,-3.0871,-3.0556,-3.0114,-2.9966,-2.968,-2.8989,-2.8803,-2.8803,-2.8803,-2.8803,-2.8757,-2.8617,-2.843,-2.8196,-2.7914,-2.7726,-2.7536,-2.7347,-2.732,-2.732,-2.732,-2.732,-2.732,-2.732,-2.732,-2.732,-2.7272,-2.7225,-2.7129,-2.7081,-2.7023,-2.689,-2.6651,-2.6448,-2.6207,-2.5887,-2.5664,-2.5469,-2.5388,-2.5362,-2.5629,-2.6012,-2.5982,-2.5806,-2.5779,-2.579,-2.5615,-5.1387,-5.1183,-5.101,-5.0305,-4.948,-4.9056,-4.8177,-4.6956,-4.6708,-4.6329,-4.595,-4.5807,-4.5807,-4.5807,-4.5807,-4.5698,-4.5478,-4.5294,-4.4776,-4.3966,-4.3299,-4.2592,-4.1813,-4.1296,-4.093,-4.0744,-4.0702,-4.0702,-4.0702,-4.0529,-4.0505,-4.0645,-4.0038,-3.9813,-4.0146,-3.9644,-3.9359,-3.9332,-3.9237,-3.8884,-3.841,-3.7675,-3.735,-3.7363,-3.6958,-3.6686,-3.6699,-3.6764,-3.597,-3.4455,-3.4216,-3.3552,-3.2198,-3.1805,-3.1705,-3.1705,-3.1705,-3.1705,-3.1705,-3.1705,-3.1705,-3.1629,-3.1285,-3.1029,-3.0984,-3.0769,-3.0578,-3.0578,-3.0578,-3.0363,-2.992,-2.9634,-2.9359,-2.8885,-2.8803,-2.8757,-2.8803,-2.8803,-2.871,-2.8441,-2.8149,-2.7914,-2.7678,-2.7584,-2.7499,-2.7357,-2.732,-2.732,-2.732,-2.732,-2.732,-2.732,-2.7309,-2.7309,-2.7225,-2.7092,-2.6996,-2.6842,-2.6794,-2.6699,-2.6352,-2.611,-2.5878,-2.5567,-2.5148,-2.5009,-2.5123,-2.5116,-2.5017,-2.5286,-2.522,-2.5291,-2.5321,-2.54,-2.5528,-5.1275,-5.1118,-5.0446,-4.9684,-4.8951,-4.8121,-4.7172,-4.6337,-4.6196,-4.5997,-4.5839,-4.5807,-4.5807,-4.5807,-4.5807,-4.5771,-4.5662,-4.5368,-4.4723,-4.3888,-4.3155,-4.2389,-4.1688,-4.1071,-4.0759,-4.0702,-4.0702,-4.0702,-4.0659,-4.0515,-4.038,-4.0217,-3.9914,-3.9649,-3.9635,-3.94,-3.9305,-3.921,-3.8491,-3.7946,-3.7675,-3.6781,-3.6483,-3.6836,-3.67,-3.6643,-3.6737,-3.6509,-3.5744,-3.4487,-3.3872,-3.3017,-3.2047,-3.1749,-3.1705,-3.1705,-3.1705,-3.1705,-3.1705,-3.1705,-3.1705,-3.1629,-3.1285,-3.1029,-3.0939,-3.0589,-3.0352,-3.0306,-3.0182,-2.9966,-2.968,-2.9405,-2.9117,-2.885,-2.8628,-2.8628,-2.8754,-2.8639,-2.8384,-2.8139,-2.7914,-2.7726,-2.7594,-2.751,-2.7404,-2.7309,-2.732,-2.732,-2.732,-2.732,-2.732,-2.732,-2.7309,-2.7235,-2.7092,-2.6989,-2.6838,-2.6633,-2.6496,-2.6448,-2.611,-2.5771,-2.5489,-2.5186,-2.4775,-2.4665,-2.4777,-2.4774,-2.4715,-2.4678,-2.4761,-2.4871,-2.4892,-2.503,-2.5235,-5.1296,-5.1005,-5.0091,-4.9235,-4.8503,-4.7453,-4.6607,-4.6016,-4.5859,-4.5807,-4.5807,-4.5807,-4.5807,-4.5807,-4.5807,-4.5807,-4.5771,-4.5352,-4.4648,-4.3663,-4.3036,-4.2307,-4.1577,-4.1001,-4.0702,-4.0702,-4.0702,-4.0702,-4.0702,-4.0587,-4.0371,-4.0154,-3.9906,-3.9686,-3.9452,-3.9336,-3.9305,-3.9169,-3.8383,-3.7702,-3.7336,-3.6564,-3.6212,-3.6551,-3.6605,-3.6545,-3.6527,-3.6253,-3.553,-3.4374,-3.3268,-3.2354,-3.1785,-3.1705,-3.1705,-3.1705,-3.1705,-3.1705,-3.1705,-3.1705,-3.1705,-3.1629,-3.1285,-3.1029,-3.0939,-3.051,-3.0216,-3.017,-2.9954,-2.968,-2.9485,-2.9163,-2.8943,-2.8803,-2.8675,-2.8657,-2.8813,-2.8559,-2.845,-2.8274,-2.8019,-2.7771,-2.7692,-2.7467,-2.733,-2.732,-2.732,-2.732,-2.732,-2.732,-2.7309,-2.7334,-2.7517,-2.7342,-2.6989,-2.6838,-2.6716,-2.6442,-2.6197,-2.611,-2.5917,-2.5538,-2.5205,-2.4843,-2.443,-2.444,-2.4483,-2.4415,-2.4347,-2.435,-2.444,-2.4587,-2.4735,-2.4883,-2.5039,-5.1424,-5.08,-4.9817,-4.8946,-4.8121,-4.7136,-4.6345,-4.5886,-4.5807,-4.5807,-4.5807,-4.5807,-4.5807,-4.5807,-4.5807,-4.5771,-4.5698,-4.5405,-4.4518,-4.3506,-4.2845,-4.224,-4.1339,-4.0859,-4.0702,-4.0702,-4.0702,-4.0702,-4.0702,-4.0659,-4.0587,-4.0342,-4.0097,-3.9878,-3.9642,-3.9452,-3.9305,-3.921,-3.8681,-3.8068,-3.7567,-3.6904,-3.6632,-3.6687,-3.6646,-3.6424,-3.6175,-3.5796,-3.5159,-3.3897,-3.2543,-3.1809,-3.1717,-3.1705,-3.1705,-3.1705,-3.1705,-3.1705,-3.1705,-3.1705,-3.1705,-3.1673,-3.133,-3.0984,-3.0927,-3.0589,-3.0261,-3.017,-2.9806,-2.9531,-2.9439,-2.9128,-2.8839,-2.8746,-2.8664,-2.8755,-2.8918,-2.846,-2.8309,-2.8516,-2.8278,-2.7862,-2.7748,-2.7448,-2.7314,-2.7225,-2.7225,-2.7167,-2.7167,-2.7119,-2.7214,-2.727,-2.7308,-2.7122,-2.6681,-2.6635,-2.6502,-2.6229,-2.6005,-2.5957,-2.582,-2.5369,-2.4939,-2.4526,-2.4301,-2.4251,-2.4202,-2.4202,-2.4211,-2.4251,-2.435,-2.444,-2.4538,-2.4646,-2.4695,-5.1064,-5.0745,-4.9207,-4.8397,-4.7988,-4.6708,-4.5981,-4.5823,-4.5807,-4.5807,-4.5807,-4.5807,-4.5807,-4.5807,-4.5807,-4.5698,-4.5552,-4.5331,-4.461,-4.3545,-4.2871,-4.1964,-4.1086,-4.0787,-4.0702,-4.0702,-4.0702,-4.0702,-4.0702,-4.0702,-4.0573,-4.0385,-4.014,-3.9922,-3.9686,-3.9452,-3.9305,-3.9224,-3.8708,-3.8355,-3.8014,-3.7134,-3.6849,-3.7174,-3.6836,-3.646,-3.593,-3.4698,-3.3838,-3.341,-3.2305,-3.1717,-3.1705,-3.1705,-3.1705,-3.1705,-3.1705,-3.1705,-3.1705,-3.1705,-3.1705,-3.1673,-3.1407,-3.1151,-3.0972,-3.0679,-3.0397,-3.017,-2.9795,-2.9531,-2.9439,-2.9071,-2.8699,-2.8279,-2.8384,-2.8365,-2.7984,-2.7783,-2.7787,-2.7727,-2.761,-2.7579,-2.7489,-2.7253,-2.7044,-2.6996,-2.689,-2.6736,-2.6832,-2.6832,-2.6832,-2.6736,-2.6711,-2.6557,-2.6392,-2.6345,-2.6229,-2.5937,-2.5859,-2.5932,-2.5685,-2.5398,-2.4889,-2.4393,-2.427,-2.4202,-2.4202,-2.4211,-2.4211,-2.4248,-2.426,-2.4359,-2.431,-2.4359,-2.4399,-5.101,-5.0631,-4.8903,-4.8126,-4.7876,-4.6429,-4.5807,-4.5807,-4.5807,-4.5807,-4.5807,-4.5807,-4.5807,-4.5807,-4.5807,-4.5714,-4.5494,-4.5294,-4.4572,-4.3427,-4.2386,-4.1464,-4.0859,-4.0702,-4.0702,-4.0702,-4.0702,-4.0702,-4.0702,-4.0702,-4.063,-4.0501,-4.0184,-3.9922,-3.9804,-3.9482,-3.9305,-3.921,-3.8735,-3.841,-3.8328,-3.7501,-3.7039,-3.7079,-3.6713,-3.6268,-3.5223,-3.3696,-3.2897,-3.2824,-3.2241,-3.1705,-3.1705,-3.1705,-3.1705,-3.1705,-3.1705,-3.1705,-3.1705,-3.1705,-3.1705,-3.1661,-3.1439,-3.1261,-3.1095,-3.0802,-3.0476,-3.0397,-2.9852,-2.9577,-2.9439,-2.9071,-2.8513,-2.8008,-2.8055,-2.8046,-2.7596,-2.7706,-2.78,-2.7766,-2.7665,-2.7541,-2.7521,-2.7157,-2.6959,-2.6842,-2.6699,-2.6592,-2.6544,-2.6496,-2.6448,-2.6448,-2.6549,-2.6512,-2.6415,-2.6338,-2.6143,-2.584,-2.5679,-2.5767,-2.5563,-2.5295,-2.4842,-2.4398,-2.4266,-2.4238,-2.4303,-2.4339,-2.4349,-2.4358,-2.4284,-2.4293,-2.433,-2.422,-2.4211,-5.1038,-5.031,-4.8795,-4.8019,-4.7599,-4.6408,-4.5807,-4.5807,-4.5807,-4.5807,-4.5807,-4.5807,-4.5807,-4.5807,-4.5807,-4.5662,-4.5457,-4.5182,-4.4289,-4.3086,-4.1867,-4.0972,-4.0816,-4.0702,-4.0702,-4.0702,-4.0702,-4.0702,-4.0702,-4.0702,-4.0702,-4.0573,-4.0227,-4.0053,-3.9878,-3.9513,-3.9305,-3.9224,-3.8871,-3.8627,-3.8518,-3.7962,-3.7487,-3.7092,-3.6478,-3.5617,-3.4347,-3.3101,-3.2521,-3.2682,-3.2035,-3.1741,-3.1705,-3.1705,-3.1705,-3.1705,-3.1705,-3.1705,-3.1705,-3.1705,-3.1705,-3.1661,-3.1484,-3.1306,-3.1184,-3.0892,-3.0623,-3.0487,-2.9897,-2.9531,-2.9301,-2.8978,-2.8373,-2.7773,-2.7773,-2.7878,-2.7776,-2.7754,-2.7968,-2.838,-2.8048,-2.7893,-2.7662,-2.7311,-2.6853,-2.6699,-2.6506,-2.6265,-2.6217,-2.6217,-2.6207,-2.6255,-2.6405,-2.6653,-2.6467,-2.6339,-2.6075,-2.578,-2.5545,-2.5471,-2.533,-2.5085,-2.4766,-2.4518,-2.4643,-2.4601,-2.4569,-2.4578,-2.4523,-2.4477,-2.4422,-2.4445,-2.451,-2.4312,-2.4211,-5.0291,-4.941,-4.8377,-4.7599,-4.6945,-4.6171,-4.5807,-4.5807,-4.5807,-4.5807,-4.5807,-4.5807,-4.5807,-4.5807,-4.5771,-4.5625,-4.5257,-4.4814,-4.3957,-4.2566,-4.1548,-4.1043,-4.0887,-4.0773,-4.0702,-4.0702,-4.0702,-4.0716,-4.073,-4.0786,-4.0716,-4.0644,-4.0354,-4.0009,-3.9922,-3.9571,-3.9305,-3.9292,-3.9142,-3.9074,-3.8966,-3.8532,-3.8095,-3.7768,-3.6433,-3.507,-3.3896,-3.2896,-3.2262,-3.199,-3.1834,-3.1705,-3.1705,-3.1705,-3.1705,-3.1705,-3.1705,-3.1705,-3.1705,-3.1705,-3.1705,-3.1705,-3.1617,-3.1439,-3.1118,-3.0972,-3.0679,-3.0318,-2.9806,-2.9347,-2.8978,-2.8664,-2.8102,-2.7584,-2.7394,-2.7245,-2.68,-2.7071,-2.7472,-2.7552,-2.7541,-2.7465,-2.7427,-2.6954,-2.6651,-2.6554,-2.6265,-2.5927,-2.5878,-2.5927,-2.5975,-2.6062,-2.6083,-2.6231,-2.6172,-2.6006,-2.5781,-2.5534,-2.5355,-2.514,-2.4997,-2.5249,-2.5093,-2.5084,-2.5072,-2.4996,-2.4698,-2.4679,-2.4606,-2.4528,-2.4482,-2.4496,-2.444,-2.4275,-2.422,-5.0326,-4.9594,-4.8396,-4.7672,-4.7182,-4.6266,-4.5807,-4.5807,-4.5807,-4.5807,-4.5807,-4.5807,-4.5807,-4.5807,-4.5787,-4.5589,-4.5055,-4.4305,-4.3448,-4.2433,-4.1577,-4.1142,-4.0958,-4.0816,-4.0702,-4.0702,-4.0702,-4.0828,-4.1053,-4.1095,-4.1165,-4.108,-4.0602,-4.0258,-3.995,-3.9513,-3.9305,-3.9305,-3.9305,-3.9305,-3.9237,-3.902,-3.8465,-3.7886,-3.6316,-3.4912,-3.421,-3.3003,-3.2409,-3.2059,-3.1862,-3.1717,-3.1705,-3.1705,-3.1705,-3.1705,-3.1705,-3.1705,-3.1705,-3.1705,-3.1705,-3.1705,-3.1617,-3.1407,-3.1139,-3.096,-3.0724,-3.0352,-2.9852,-2.9255,-2.8664,-2.8384,-2.7867,-2.7336,-2.7194,-2.6976,-2.6534,-2.6784,-2.7129,-2.7129,-2.7256,-2.7293,-2.7177,-2.6784,-2.6592,-2.6496,-2.612,-2.5781,-2.5781,-2.5781,-2.5781,-2.5781,-2.5781,-2.5762,-2.5771,-2.5586,-2.539,-2.5189,-2.5061,-2.4817,-2.4632,-2.5121,-2.5656,-2.5518,-2.5332,-2.4858,-2.4615,-2.4643,-2.4725,-2.4689,-2.4615,-2.445,-2.4349,-2.433,-2.4266,-5.0499,-4.981,-4.8459,-4.7782,-4.7419,-4.6297,-4.5807,-4.5807,-4.5807,-4.5807,-4.5807,-4.5807,-4.5807,-4.5807,-4.5735,-4.5478,-4.4739,-4.3918,-4.3025,-4.231,-4.1731,-4.1325,-4.11,-4.0901,-4.0744,-4.0702,-4.0702,-4.0969,-4.125,-4.1446,-4.1235,-4.1303,-4.0921,-4.0426,-3.9977,-3.9571,-3.9305,-3.9305,-3.9305,-3.9305,-3.9305,-3.9237,-3.8732,-3.7678,-3.656,-3.5321,-3.454,-3.3504,-3.2682,-3.2596,-3.2199,-3.1958,-3.1825,-3.1717,-3.1705,-3.1705,-3.1705,-3.1705,-3.1705,-3.1705,-3.1705,-3.1705,-3.1439,-3.1377,-3.1234,-3.0929,-3.0704,-3.0399,-2.9954,-2.9117,-2.8441,-2.8102,-2.762,-2.7098,-2.7061,-2.6965,-2.664,-2.6699,-2.69,-2.7034,-2.7129,-2.7177,-2.7081,-2.6832,-2.664,-2.64,-2.5965,-2.5684,-2.5684,-2.5684,-2.5684,-2.5625,-2.5577,-2.543,-2.5382,-2.5254,-2.4998,-2.5067,-2.4889,-2.4666,-2.4524,-2.5197,-2.5738,-2.5657,-2.5371,-2.5089,-2.49,-2.4946,-2.4964,-2.4854,-2.4606,-2.4367,-2.433,-2.4385,-2.433,-4.9764,-4.8301,-4.8004,-4.7245,-4.6234,-4.5886,-4.5807,-4.5807,-4.5807,-4.5807,-4.5807,-4.5807,-4.5807,-4.5787,-4.5589,-4.4964,-4.4135,-4.3488,-4.2905,-4.2269,-4.18,-4.1493,-4.1283,-4.1071,-4.0901,-4.0744,-4.0702,-4.0857,-4.0926,-4.0842,-4.1067,-4.084,-4.0463,-4.0134,-3.9933,-3.9557,-3.9305,-3.9305,-3.9305,-3.9305,-3.9305,-3.9234,-3.8795,-3.7759,-3.688,-3.5974,-3.4879,-3.4115,-3.3561,-3.322,-3.3056,-3.2743,-3.231,-3.1946,-3.1741,-3.1705,-3.1705,-3.1705,-3.1705,-3.1705,-3.1705,-3.1617,-3.1487,-3.1433,-3.1394,-3.1085,-3.0835,-3.0503,-2.9802,-2.8896,-2.8139,-2.7809,-2.7299,-2.687,-2.6716,-2.6764,-2.6438,-2.6554,-2.69,-2.7034,-2.7034,-2.7034,-2.7034,-2.688,-2.664,-2.6352,-2.5975,-2.5732,-2.5684,-2.5684,-2.5684,-2.5577,-2.5421,-2.5226,-2.5039,-2.4862,-2.4672,-2.4939,-2.4914,-2.4789,-2.4839,-2.5468,-2.5738,-2.5848,-2.5977,-2.592,-2.5745,-2.5359,-2.5157,-2.501,-2.4652,-2.4257,-2.4244,-2.4299,-2.4317,-4.94,-4.8351,-4.7656,-4.6961,-4.6329,-4.5934,-4.5807,-4.5807,-4.5807,-4.5807,-4.5807,-4.5807,-4.5807,-4.5735,-4.5589,-4.4889,-4.4073,-4.3448,-4.2985,-4.2418,-4.1951,-4.1646,-4.1535,-4.1325,-4.1213,-4.1043,-4.0958,-4.0956,-4.1151,-4.1193,-4.1123,-4.1063,-4.0685,-4.0313,-3.9963,-3.9557,-3.9349,-3.9305,-3.9305,-3.9305,-3.9305,-3.9305,-3.872,-3.7894,-3.7097,-3.6263,-3.531,-3.4182,-3.3801,-3.3547,-3.3164,-3.2803,-3.2442,-3.2046,-3.1717,-3.1729,-3.1729,-3.1717,-3.1717,-3.1705,-3.1705,-3.1697,-3.1553,-3.1567,-3.1586,-3.1414,-3.1008,-3.0475,-2.9821,-2.8757,-2.7914,-2.7478,-2.6965,-2.6476,-2.6438,-2.639,-2.6235,-2.639,-2.6688,-2.6976,-2.7081,-2.7081,-2.7167,-2.6928,-2.6592,-2.6304,-2.5975,-2.583,-2.5684,-2.5684,-2.5684,-2.5586,-2.543,-2.5128,-2.4883,-2.4646,-2.4588,-2.4803,-2.502,-2.4893,-2.5063,-2.5658,-2.609,-2.633,-2.6465,-2.6425,-2.5803,-2.5231,-2.5194,-2.512,-2.4689,-2.4358,-2.4253,-2.4203,-2.4322,-4.9082,-4.8367,-4.7261,-4.6708,-4.6518,-4.6044,-4.5807,-4.5807,-4.5807,-4.5807,-4.5807,-4.5807,-4.5771,-4.5698,-4.5426,-4.4927,-4.4205,-4.3566,-4.305,-4.2607,-4.2075,-4.1744,-4.166,-4.1549,-4.1438,-4.1297,-4.1071,-4.1184,-4.1309,-4.1307,-4.1446,-4.1315,-4.1019,-4.0617,-4.0184,-3.9622,-3.9448,-3.9305,-3.9305,-3.9305,-3.9305,-3.9261,-3.8832,-3.7887,-3.7105,-3.6429,-3.554,-3.4635,-3.4096,-3.3788,-3.3356,-3.2779,-3.2478,-3.2126,-3.1886,-3.1874,-3.1874,-3.1825,-3.1741,-3.1898,-3.1898,-3.1709,-3.1596,-3.1594,-3.1622,-3.1391,-3.106,-3.0251,-2.9415,-2.8571,-2.7678,-2.7098,-2.6668,-2.6284,-2.6187,-2.6197,-2.6304,-2.6448,-2.6582,-2.6832,-2.7023,-2.7023,-2.6928,-2.6774,-2.6342,-2.6255,-2.5917,-2.5781,-2.5684,-2.5684,-2.5684,-2.5606,-2.5401,-2.5088,-2.4784,-2.4538,-2.4544,-2.4776,-2.5043,-2.5082,-2.5393,-2.5855,-2.618,-2.6463,-2.6458,-2.6324,-2.5637,-2.5262,-2.5359,-2.5212,-2.4735,-2.4569,-2.4666,-2.4619,-2.465,-4.8525,-4.704,-4.6866,-4.6471,-4.5997,-4.5855,-4.5807,-4.5807,-4.5807,-4.5807,-4.5807,-4.5807,-4.5698,-4.5478,-4.5151,-4.4625,-4.4089,-4.3527,-4.313,-4.2729,-4.2269,-4.1926,-4.1773,-4.1688,-4.1663,-4.1537,-4.1227,-4.1029,-4.1128,-4.1027,-4.1123,-4.1289,-4.0801,-4.0272,-4.052,-3.9902,-3.9319,-3.9319,-3.9319,-3.9305,-3.9305,-3.9305,-3.8742,-3.7978,-3.7422,-3.6735,-3.574,-3.4955,-3.4594,-3.3994,-3.3862,-3.3368,-3.2695,-3.2454,-3.2406,-3.2406,-3.2346,-3.2235,-3.1946,-3.2042,-3.2034,-3.1668,-3.1395,-3.1358,-3.1448,-3.1124,-3.0531,-2.9677,-2.8907,-2.8149,-2.7431,-2.687,-2.6438,-2.6294,-2.6245,-2.6448,-2.6602,-2.6352,-2.6544,-2.6544,-2.664,-2.6602,-2.6554,-2.6342,-2.6149,-2.6052,-2.5917,-2.5781,-2.5723,-2.5713,-2.5664,-2.5565,-2.554,-2.5242,-2.5026,-2.4681,-2.4651,-2.4854,-2.5084,-2.5341,-2.5672,-2.5975,-2.6159,-2.6369,-2.6398,-2.6342,-2.5911,-2.5672,-2.5635,-2.5396,-2.5047,-2.5102,-2.5252,-2.5158,-2.4966,-4.7527,-4.6755,-4.6392,-4.6076,-4.5839,-4.5807,-4.5807,-4.5807,-4.5807,-4.5807,-4.5807,-4.5807,-4.5625,-4.5331,-4.5002,-4.4701,-4.4243,-4.3606,-4.321,-4.289,-4.2462,-4.221,-4.2315,-4.2156,-4.1971,-4.2049,-4.1595,-4.1255,-4.1114,-4.0915,-4.0884,-4.1038,-4.0888,-4.0658,-4.0764,-4.0268,-3.9871,-3.9619,-3.9407,-3.9319,-3.9305,-3.9203,-3.8742,-3.7684,-3.7407,-3.6615,-3.5644,-3.5114,-3.4655,-3.4054,-3.3813,-3.3284,-3.2599,-3.225,-3.2118,-3.2515,-3.2803,-3.2671,-3.225,-3.213,-3.1893,-3.1642,-3.14,-3.1516,-3.153,-3.0995,-3.0334,-2.9769,-2.891,-2.803,-2.7194,-2.6736,-2.6438,-2.6245,-2.6294,-2.6352,-2.6496,-2.64,-2.6352,-2.6304,-2.6265,-2.6217,-2.6207,-2.6149,-2.6052,-2.6004,-2.5917,-2.5732,-2.5722,-2.5769,-2.5689,-2.5557,-2.5566,-2.5511,-2.5274,-2.5048,-2.4974,-2.5093,-2.5231,-2.5506,-2.5828,-2.6104,-2.6315,-2.6443,-2.6535,-2.6379,-2.6094,-2.5966,-2.5855,-2.5644,-2.5362,-2.5472,-2.5573,-2.5418,-2.5401,-4.6365,-4.6212,-4.594,-4.5807,-4.5807,-4.5807,-4.5807,-4.5807,-4.5807,-4.5807,-4.5771,-4.5698,-4.5442,-4.5129,-4.4927,-4.4685,-4.4534,-4.3684,-4.3384,-4.3025,-4.2629,-4.2468,-4.2586,-4.2469,-4.2411,-4.2977,-4.1877,-4.1452,-4.1255,-4.1029,-4.0858,-4.094,-4.1142,-4.1054,-4.081,-4.0766,-4.0652,-3.9984,-3.9503,-3.9319,-3.9305,-3.9305,-3.8621,-3.7835,-3.7129,-3.6508,-3.5404,-3.4969,-3.4571,-3.3861,-3.3525,-3.3032,-3.231,-3.1994,-3.2066,-3.2406,-3.2791,-3.2803,-3.2503,-3.231,-3.1815,-3.1508,-3.1264,-3.125,-3.1123,-3.0682,-3.0163,-2.9642,-2.8694,-2.7804,-2.7098,-2.6688,-2.6448,-2.6294,-2.6245,-2.6245,-2.6245,-2.6245,-2.6255,-2.6304,-2.6217,-2.5965,-2.5965,-2.5955,-2.5955,-2.5955,-2.5868,-2.5693,-2.5693,-2.5729,-2.5599,-2.5429,-2.5424,-2.5428,-2.5326,-2.5182,-2.5199,-2.5313,-2.5451,-2.5635,-2.5929,-2.6241,-2.6508,-2.6554,-2.6591,-2.6407,-2.6104,-2.6085,-2.6067,-2.5892,-2.5773,-2.5757,-2.5777,-2.5691,-2.5755,-4.508,-4.48,-4.5515,-4.5771,-4.5771,-4.5807,-4.5807,-4.5807,-4.5807,-4.5771,-4.5735,-4.5442,-4.5167,-4.4927,-4.4776,-4.4648,-4.4534,-4.3684,-4.3429,-4.3085,-4.2614,-4.2582,-4.2687,-4.2629,-4.2382,-4.2761,-4.2061,-4.1578,-4.1396,-4.1142,-4.1197,-4.1488,-4.1397,-4.1307,-4.1316,-4.1373,-4.1103,-4.0402,-3.9724,-3.9363,-3.9305,-3.9158,-3.8607,-3.7684,-3.7163,-3.6508,-3.5271,-3.492,-3.4451,-3.3597,-3.3368,-3.2887,-3.2178,-3.1849,-3.2006,-3.2406,-3.2695,-3.2743,-3.2647,-3.2695,-3.2378,-3.1594,-3.0974,-3.0684,-3.056,-2.9953,-2.9507,-2.9157,-2.8344,-2.7547,-2.6955,-2.663,-2.639,-2.6352,-2.6294,-2.6342,-2.6294,-2.6197,-2.6207,-2.6255,-2.6159,-2.5868,-2.582,-2.5868,-2.582,-2.582,-2.5723,-2.5547,-2.5517,-2.5514,-2.5357,-2.5275,-2.5211,-2.5219,-2.5214,-2.5173,-2.5258,-2.547,-2.5626,-2.5782,-2.5984,-2.6306,-2.6582,-2.6591,-2.6564,-2.637,-2.6214,-2.6233,-2.6243,-2.6186,-2.6131,-2.6114,-2.6178,-2.6162,-2.6245,-4.4625,-4.4648,-4.522,-4.5515,-4.5625,-4.5641,-4.5698,-4.5807,-4.5807,-4.5735,-4.5589,-4.5204,-4.4964,-4.4836,-4.4685,-4.461,-4.4442,-4.3669,-4.3618,-4.3407,-4.2922,-4.2829,-4.2905,-4.2745,-4.2397,-4.2703,-4.2174,-4.199,-4.2166,-4.1412,-4.1426,-4.1606,-4.1543,-4.1835,-4.1957,-4.165,-4.1201,-4.0666,-3.9967,-3.9523,-3.9216,-3.8756,-3.8187,-3.7348,-3.6662,-3.5953,-3.5126,-3.4884,-3.439,-3.3885,-3.3489,-3.2887,-3.2262,-3.197,-3.2022,-3.2503,-3.2767,-3.2911,-3.2863,-3.2829,-3.2294,-3.1354,-3.0679,-3.0295,-3.017,-2.976,-2.9209,-2.8675,-2.8066,-2.7347,-2.6524,-2.6294,-2.6245,-2.6245,-2.6304,-2.64,-2.6294,-2.6149,-2.6062,-2.6072,-2.5975,-2.5781,-2.5732,-2.5781,-2.5732,-2.5684,-2.5538,-2.5459,-2.537,-2.5241,-2.5112,-2.5036,-2.5028,-2.5159,-2.5173,-2.5264,-2.5362,-2.558,-2.5754,-2.5901,-2.6048,-2.6325,-2.6582,-2.6582,-2.6591,-2.6508,-2.6408,-2.6499,-2.6426,-2.6278,-2.6352,-2.6472,-2.6554,-2.6591,-2.6591,-4.4189,-4.4266,-4.4792,-4.522,-4.5478,-4.5442,-4.5552,-4.5771,-4.5735,-4.5589,-4.5389,-4.5024,-4.4874,-4.4799,-4.4685,-4.4511,-4.4243,-4.3729,-4.3574,-4.3216,-4.2796,-4.2816,-4.2992,-4.2847,-4.2382,-4.2674,-4.2315,-4.2074,-4.2178,-4.1496,-4.154,-4.1694,-4.1577,-4.1615,-4.1683,-4.1574,-4.1152,-4.0897,-4.0316,-3.9735,-3.9328,-3.8621,-3.7867,-3.7116,-3.6427,-3.5679,-3.5066,-3.4799,-3.4498,-3.4054,-3.3646,-3.3272,-3.2755,-3.237,-3.2286,-3.2659,-3.3044,-3.3284,-3.3164,-3.2608,-3.1984,-3.1358,-3.059,-3.0239,-3.0034,-2.9715,-2.9209,-2.8373,-2.782,-2.7204,-2.6294,-2.6245,-2.6245,-2.6294,-2.6352,-2.64,-2.6207,-2.6052,-2.5868,-2.5781,-2.5742,-2.5732,-2.5732,-2.5732,-2.5732,-2.5684,-2.5635,-2.545,-2.5126,-2.5005,-2.4843,-2.4811,-2.479,-2.5019,-2.5231,-2.5313,-2.5344,-2.5472,-2.5708,-2.5911,-2.6122,-2.638,-2.6573,-2.6582,-2.6591,-2.6591,-2.6582,-2.6573,-2.6426,-2.6296,-2.6453,-2.6591,-2.6591,-2.6591,-2.6591,-4.3717,-4.3463,-4.4205,-4.4902,-4.5279,-4.5294,-4.5405,-4.5698,-4.5552,-4.5352,-4.5167,-4.4964,-4.4799,-4.4648,-4.4587,-4.4358,-4.4057,-4.3563,-4.3284,-4.2965,-4.2643,-4.2642,-4.2644,-4.2557,-4.2324,-4.2687,-4.2399,-4.197,-4.1946,-4.1565,-4.1682,-4.1667,-4.1338,-4.1011,-4.0841,-4.1171,-4.1494,-4.1684,-4.0972,-4.0062,-3.9433,-3.8597,-3.7671,-3.7103,-3.6238,-3.5404,-3.4969,-3.4775,-3.4546,-3.421,-3.397,-3.3669,-3.3272,-3.2767,-3.2743,-3.314,-3.3272,-3.3332,-3.3272,-3.2308,-3.1863,-3.1514,-3.0742,-3.0193,-2.992,-2.9588,-2.9024,-2.8139,-2.7726,-2.7109,-2.6678,-2.6448,-2.6352,-2.6294,-2.6304,-2.6255,-2.6062,-2.5917,-2.5781,-2.5732,-2.5684,-2.5684,-2.5684,-2.5684,-2.5684,-2.5684,-2.5684,-2.5499,-2.5166,-2.4899,-2.4737,-2.4563,-2.4624,-2.4716,-2.49,-2.5212,-2.5378,-2.5497,-2.5681,-2.5911,-2.614,-2.6353,-2.6499,-2.6564,-2.6591,-2.6591,-2.6591,-2.6582,-2.6526,-2.6443,-2.6517,-2.6591,-2.6591,-2.6591,-2.6591,-4.2296,-4.2433,-4.3041,-4.3463,-4.3879,-4.4682,-4.5151,-4.5331,-4.5188,-4.5077,-4.4964,-4.4799,-4.4685,-4.4549,-4.4335,-4.4127,-4.3916,-4.3681,-4.3363,-4.3196,-4.2796,-4.2831,-4.2774,-4.244,-4.2237,-4.2295,-4.215,-4.2283,-4.2632,-4.1933,-4.188,-4.1853,-4.1268,-4.1279,-4.1643,-4.1847,-4.1812,-4.2062,-4.1149,-4.0032,-3.9704,-3.8398,-3.7374,-3.7023,-3.5906,-3.5163,-3.4823,-3.4823,-3.4643,-3.4426,-3.4306,-3.3994,-3.3729,-3.3296,-3.314,-3.3404,-3.3525,-3.3742,-3.3516,-3.2876,-3.2065,-3.1598,-3.0823,-3.0171,-2.9886,-2.9451,-2.8746,-2.8008,-2.7615,-2.6986,-2.639,-2.6448,-2.64,-2.6197,-2.6149,-2.6014,-2.5868,-2.5771,-2.5684,-2.5684,-2.5684,-2.5684,-2.5684,-2.5684,-2.5684,-2.5635,-2.5635,-2.5674,-2.541,-2.5009,-2.4782,-2.4517,-2.4411,-2.4467,-2.4564,-2.4836,-2.5001,-2.5047,-2.547,-2.5957,-2.6186,-2.627,-2.6472,-2.6564,-2.6573,-2.6591,-2.6591,-2.6591,-2.6591,-2.6573,-2.6591,-2.6591,-2.6591,-2.6591,-2.6591,-4.1407,-4.1768,-4.2206,-4.255,-4.2953,-4.3994,-4.4679,-4.5008,-4.4964,-4.4911,-4.4874,-4.4685,-4.4496,-4.4358,-4.4143,-4.3714,-4.3617,-4.3623,-4.3175,-4.3177,-4.3088,-4.2845,-4.2557,-4.2324,-4.2165,-4.2092,-4.2121,-4.231,-4.2486,-4.2,-4.175,-4.154,-4.1141,-4.1307,-4.1741,-4.1807,-4.1644,-4.1734,-4.0987,-4.0257,-3.935,-3.8207,-3.7241,-3.649,-3.5619,-3.4823,-3.4775,-3.4775,-3.4763,-3.4715,-3.4535,-3.4246,-3.415,-3.3885,-3.3681,-3.3873,-3.4078,-3.4258,-3.4055,-3.3339,-3.2689,-3.2324,-3.1032,-3.0228,-2.9919,-2.9481,-2.8827,-2.8185,-2.7619,-2.7043,-2.6552,-2.6629,-2.6595,-2.6392,-2.6198,-2.6063,-2.5859,-2.5771,-2.5684,-2.5684,-2.5684,-2.5684,-2.5684,-2.5684,-2.5684,-2.5635,-2.5596,-2.5645,-2.5625,-2.5224,-2.4833,-2.4538,-2.4322,-2.4347,-2.4371,-2.445,-2.4578,-2.4606,-2.513,-2.5745,-2.5867,-2.5958,-2.6261,-2.6545,-2.6536,-2.6545,-2.6573,-2.6582,-2.6518,-2.6527,-2.6591,-2.6591,-2.6591,-2.6591,-2.6591,-4.0967,-4.14,-4.1782,-4.212,-4.2581,-4.3193,-4.3997,-4.4858,-4.4874,-4.4874,-4.4836,-4.4625,-4.4358,-4.405,-4.3934,-4.3503,-4.3097,-4.3399,-4.2989,-4.2682,-4.2947,-4.2629,-4.2368,-4.2121,-4.2092,-4.2092,-4.2107,-4.2136,-4.2094,-4.1787,-4.1452,-4.1171,-4.0929,-4.1138,-4.139,-4.1487,-4.1407,-4.1401,-4.1111,-4.0173,-3.8964,-3.8085,-3.7142,-3.6268,-3.5343,-3.486,-3.4775,-3.4775,-3.4775,-3.4751,-3.4727,-3.4727,-3.4583,-3.427,-3.4438,-3.4583,-3.4751,-3.4679,-3.439,-3.354,-3.3088,-3.2594,-3.1368,-3.0558,-3.0047,-2.9637,-2.8983,-2.8362,-2.7841,-2.7354,-2.6971,-2.6946,-2.6937,-2.6734,-2.6443,-2.6239,-2.5928,-2.5752,-2.5703,-2.5684,-2.5684,-2.5684,-2.5684,-2.5684,-2.5684,-2.5684,-2.5596,-2.5537,-2.5508,-2.5273,-2.4901,-2.4634,-2.4418,-2.4251,-2.4257,-2.4312,-2.4468,-2.4606,-2.4872,-2.5368,-2.5463,-2.5702,-2.6048,-2.6306,-2.6471,-2.6426,-2.6233,-2.6261,-2.6371,-2.6399,-2.6325,-2.6591,-2.6572,-2.6573,-2.6591,-3.9779,-4.0393,-4.0521,-4.0787,-4.1197,-4.1894,-4.2968,-4.4197,-4.4534,-4.4534,-4.4243,-4.422,-4.4089,-4.3972,-4.3369,-4.297,-4.3089,-4.3267,-4.2942,-4.2903,-4.3166,-4.2818,-4.2455,-4.2121,-4.2092,-4.2092,-4.2092,-4.2092,-4.2009,-4.1731,-4.1465,-4.1269,-4.0873,-4.0913,-4.094,-4.0983,-4.1181,-4.1207,-4.0935,-3.9898,-3.8786,-3.7881,-3.695,-3.598,-3.5199,-3.4872,-3.4775,-3.4775,-3.4775,-3.4775,-3.4775,-3.4775,-3.4739,-3.4619,-3.4691,-3.4715,-3.4727,-3.4594,-3.4054,-3.3599,-3.3134,-3.2731,-3.176,-3.1147,-3.0529,-2.9882,-2.9251,-2.8666,-2.8006,-2.747,-2.7282,-2.73,-2.7168,-2.6911,-2.6655,-2.6379,-2.6035,-2.5771,-2.5723,-2.5684,-2.5684,-2.5684,-2.5684,-2.5684,-2.5684,-2.5684,-2.5645,-2.5586,-2.54,-2.5215,-2.4901,-2.4585,-2.4477,-2.4301,-2.4202,-2.4257,-2.444,-2.4633,-2.4882,-2.5111,-2.5317,-2.5617,-2.5943,-2.6,-2.5949,-2.5848,-2.5727,-2.5784,-2.5977,-2.5913,-2.5876,-2.626,-2.6526,-2.6527,-2.6573,-3.9053,-3.9732,-3.9753,-4.0188,-4.0896,-4.124,-4.2041,-4.3016,-4.3822,-4.4044,-4.3762,-4.3949,-4.3832,-4.3409,-4.2945,-4.2754,-4.2931,-4.3539,-4.3557,-4.3456,-4.3573,-4.3195,-4.2716,-4.2194,-4.2092,-4.2092,-4.2092,-4.2092,-4.1953,-4.1662,-4.1396,-4.1198,-4.0816,-4.0744,-4.0744,-4.0771,-4.082,-4.0778,-4.0405,-3.9541,-3.8556,-3.7663,-3.6786,-3.5704,-3.4969,-3.4872,-3.4775,-3.4775,-3.4775,-3.4775,-3.4775,-3.4775,-3.4775,-3.4763,-3.4751,-3.4775,-3.4763,-3.4569,-3.4184,-3.3859,-3.3297,-3.2868,-3.2462,-3.1814,-3.0953,-3.016,-2.9642,-2.9072,-2.8257,-2.7642,-2.7603,-2.7572,-2.7342,-2.7122,-2.6824,-2.6517,-2.6173,-2.5869,-2.5742,-2.5693,-2.5684,-2.5684,-2.5684,-2.5684,-2.5684,-2.5684,-2.5693,-2.5625,-2.543,-2.5215,-2.4794,-2.4399,-2.435,-2.4291,-2.4251,-2.422,-2.4358,-2.4551,-2.473,-2.4968,-2.5258,-2.5151,-2.5156,-2.5218,-2.5252,-2.531,-2.5433,-2.5408,-2.5518,-2.5509,-2.5699,-2.6048,-2.6361,-2.6472,-2.6527,-3.8634,-3.9364,-3.94,-4.0141,-4.127,-4.0984,-4.1066,-4.143,-4.2756,-4.332,-4.3253,-4.3708,-4.3463,-4.293,-4.2622,-4.2626,-4.2869,-4.3426,-4.3587,-4.3819,-4.3674,-4.3297,-4.2716,-4.2382,-4.2136,-4.2092,-4.2092,-4.2051,-4.1912,-4.162,-4.1297,-4.1001,-4.0816,-4.0702,-4.0702,-4.0702,-4.0654,-4.0376,-4.0039,-3.9306,-3.7964,-3.724,-3.6716,-3.5199,-3.4823,-3.4775,-3.4775,-3.4775,-3.4775,-3.4775,-3.4775,-3.4775,-3.4775,-3.4775,-3.4775,-3.4775,-3.4775,-3.4593,-3.435,-3.407,-3.3822,-3.3552,-3.3369,-3.2375,-3.13,-3.0536,-2.9975,-2.9168,-2.8318,-2.7961,-2.7887,-2.7809,-2.7609,-2.7368,-2.7048,-2.6762,-2.6417,-2.6025,-2.5713,-2.5684,-2.5684,-2.5684,-2.5684,-2.5684,-2.5684,-2.5684,-2.5693,-2.5664,-2.542,-2.5156,-2.4794,-2.4332,-2.4242,-2.4242,-2.4251,-2.422,-2.4266,-2.445,-2.4684,-2.4803,-2.5047,-2.4715,-2.4241,-2.4488,-2.4793,-2.5072,-2.5258,-2.5207,-2.5262,-2.5497,-2.5672,-2.592,-2.6168,-2.6353,-2.6509,-3.8486,-3.8965,-3.943,-3.9787,-3.9943,-3.9994,-4.0059,-4.0254,-4.14,-4.2006,-4.2268,-4.2942,-4.317,-4.2703,-4.2392,-4.2376,-4.2555,-4.305,-4.2905,-4.3021,-4.3152,-4.3123,-4.2469,-4.2266,-4.2107,-4.2092,-4.2051,-4.1995,-4.1773,-4.1507,-4.1297,-4.1001,-4.0816,-4.0702,-4.0702,-4.0702,-4.0544,-4.0138,-3.9533,-3.8743,-3.7464,-3.6807,-3.6231,-3.5199,-3.4823,-3.4775,-3.4775,-3.4775,-3.4775,-3.4775,-3.4775,-3.4775,-3.4775,-3.4775,-3.4775,-3.4775,-3.4775,-3.4677,-3.4433,-3.42,-3.3915,-3.3481,-3.3081,-3.2252,-3.1531,-3.0888,-3.0147,-2.9216,-2.8598,-2.8338,-2.8144,-2.8041,-2.7895,-2.7602,-2.73,-2.6984,-2.665,-2.6201,-2.5732,-2.5684,-2.5684,-2.5684,-2.5684,-2.5684,-2.5684,-2.5684,-2.5684,-2.5596,-2.5245,-2.499,-2.4901,-2.4498,-2.4301,-2.4251,-2.4202,-2.422,-2.4266,-2.4551,-2.4882,-2.4867,-2.4872,-2.449,-2.4197,-2.4194,-2.4418,-2.4757,-2.5029,-2.4931,-2.5032,-2.5368,-2.5681,-2.5957,-2.614,-2.6307,-2.6463,-3.8427,-3.8855,-3.9451,-3.9559,-3.9436,-3.9502,-3.951,-3.9587,-4.0725,-4.1151,-4.1234,-4.2307,-4.2824,-4.2474,-4.2216,-4.2281,-4.2426,-4.2818,-4.3152,-4.3123,-4.276,-4.2818,-4.2528,-4.2208,-4.2121,-4.2092,-4.2051,-4.1953,-4.1676,-4.1465,-4.1255,-4.0958,-4.0759,-4.0702,-4.0702,-4.0659,-4.04,-3.9892,-3.9176,-3.8219,-3.7023,-3.6521,-3.6013,-3.5211,-3.4884,-3.4823,-3.4775,-3.4775,-3.4775,-3.4775,-3.4775,-3.4775,-3.4775,-3.4775,-3.4775,-3.4775,-3.4775,-3.4677,-3.4433,-3.415,-3.3866,-3.3481,-3.2857,-3.2128,-3.1208,-3.0595,-3.0078,-2.9179,-2.8589,-2.8231,-2.8241,-2.8147,-2.7983,-2.7712,-2.7474,-2.7229,-2.666,-2.6094,-2.5781,-2.5684,-2.5684,-2.5684,-2.5684,-2.5684,-2.5684,-2.5684,-2.5684,-2.5586,-2.5235,-2.4883,-2.4794,-2.4606,-2.435,-2.4202,-2.4211,-2.4229,-2.4257,-2.4597,-2.4946,-2.4937,-2.4877,-2.4468,-2.422,-2.4312,-2.4431,-2.4601,-2.4748,-2.4922,-2.5051,-2.5335,-2.5699,-2.6002,-2.6177,-2.6298,-2.6454,-3.8427,-3.8833,-3.9307,-3.9526,-3.9463,-3.9471,-3.9379,-3.9387,-4.0573,-4.089,-4.0679,-4.2041,-4.2333,-4.2216,-4.2121,-4.2469,-4.2673,-4.2658,-4.3108,-4.321,-4.2963,-4.2702,-4.2498,-4.2339,-4.2165,-4.2092,-4.2092,-4.1917,-4.1681,-4.1482,-4.1213,-4.0844,-4.0744,-4.0702,-4.0702,-4.0473,-4.0112,-3.9469,-3.8742,-3.7959,-3.7083,-3.625,-3.5727,-3.5307,-3.4981,-3.4823,-3.4775,-3.4775,-3.4775,-3.4775,-3.4775,-3.4775,-3.4775,-3.4775,-3.4775,-3.4775,-3.4775,-3.4677,-3.4494,-3.4261,-3.3915,-3.3519,-3.2773,-3.1953,-3.0991,-3.0328,-2.9816,-2.9185,-2.8538,-2.8325,-2.8335,-2.8242,-2.8027,-2.7904,-2.7689,-2.7376,-2.668,-2.6094,-2.5937,-2.5752,-2.5693,-2.5693,-2.5684,-2.5684,-2.5684,-2.5684,-2.5635,-2.5489,-2.5284,-2.4981,-2.4784,-2.4548,-2.4301,-2.4202,-2.4211,-2.422,-2.4248,-2.4404,-2.4689,-2.484,-2.4882,-2.4509,-2.4371,-2.454,-2.4679,-2.4799,-2.5093,-2.5307,-2.5408,-2.5546,-2.5867,-2.626,-2.6296,-2.6399,-2.6509,-3.8315,-3.8553,-3.8701,-3.9106,-3.9646,-3.972,-3.9978,-4.0501,-4.1179,-4.1405,-4.1353,-4.1869,-4.2325,-4.2092,-4.2092,-4.2252,-4.2339,-4.2368,-4.2295,-4.2324,-4.2455,-4.2368,-4.2353,-4.2411,-4.2165,-4.2107,-4.2138,-4.2104,-4.1967,-4.1625,-4.1426,-4.1404,-4.0898,-4.0743,-4.063,-4.0284,-3.9774,-3.9127,-3.8336,-3.75,-3.7095,-3.6358,-3.5727,-3.5307,-3.4932,-3.4823,-3.4775,-3.4775,-3.4775,-3.4775,-3.4775,-3.4775,-3.4775,-3.4775,-3.4775,-3.4775,-3.4775,-3.4775,-3.4592,-3.4261,-3.3965,-3.3408,-3.2572,-3.1556,-3.0744,-3.0026,-2.9448,-2.8824,-2.8388,-2.8398,-2.8408,-2.8291,-2.8154,-2.8027,-2.7914,-2.7356,-2.6699,-2.6367,-2.6152,-2.5947,-2.5723,-2.5703,-2.5684,-2.5684,-2.5684,-2.5684,-2.5684,-2.5547,-2.5282,-2.5047,-2.4794,-2.4573,-2.4352,-2.4202,-2.4211,-2.4211,-2.4238,-2.4349,-2.4459,-2.4665,-2.4734,-2.4559,-2.4504,-2.467,-2.4859,-2.5056,-2.5359,-2.5727,-2.5984,-2.6105,-2.6307,-2.6499,-2.6481,-2.6472,-2.6554]},{"header":{"parameterUnit":"m.s-1","parameterCategory":1,"la1":31.0,"la2":29.5877,"lo1":-88.7671,"lo2":-86.6584,"dy":0.0162,"dx":0.0185,"nx":115,"ny":88,"refTime":"2023-06-14T06:00:00:Z","depth":0,"parameterNumber":3,"parameterNumberName":"V-component_of_WINDS"},"data":[0.0,0.0,0.0,0.0,0.0,0.0,0.0,0.0,0.0,0.0,0.0,0.0,0.0,0.0,0.0,0.0,0.0,0.0,0.0,0.0,0.0,0.0,0.0,0.0,0.0,0.0,0.0,0.0,0.0,0.0,0.0,0.0,0.0,0.0,0.0,0.0,0.0,0.0,0.0,0.0,0.0,0.0,0.0,0.0,0.0,0.0,0.0,0.0,0.0,0.0,0.0,0.0,0.0,0.0,0.0,0.0,0.0,0.0,0.0,0.0,0.0,0.0,0.0,0.0,0.0,0.0,0.0,0.0,0.0,0.0,0.0,0.0,0.0,0.0,0.0,0.0,0.0,0.0,0.0,0.0,0.0,0.0,0.0,0.0,0.0,0.0,0.0,0.0,0.0,0.0,0.0,0.0,0.0,0.0,0.0,0.0,0.0,0.0,0.0,0.0,0.0,0.0,0.0,0.0,0.0,0.0,0.0,0.0,0.0,0.0,0.0,0.0,0.0,0.0,0.0,0.0,0.0,0.0,0.0,0.0,0.0,0.0,0.0,0.0,0.0,0.0,0.0,0.0,0.0,0.0,0.0,0.0,0.0,0.0,0.0,0.0,0.0,0.0,0.0,0.0,0.0,0.0,0.0,0.0,0.0,0.0,0.0,0.0,0.0,0.0,0.0,0.0,0.0,0.0,0.0,0.0,0.0,0.0,0.0,0.0,0.0,0.0,0.0,0.0,0.0,0.0,0.0,0.0,0.0,0.0,0.0,0.0,0.0,0.0,0.0,0.0,0.0,0.0,0.0,0.0,0.0,0.0,0.0,0.0,0.0,0.0,0.0,0.0,0.0,0.0,0.0,0.0,0.0,0.0,0.0,0.0,0.0,0.0,0.0,0.0,0.0,0.0,0.0,0.0,0.0,0.0,0.0,0.0,0.0,0.0,0.0,0.0,0.0,0.0,0.0,0.0,0.0,0.0,0.0,0.0,0.0,0.0,0.0,0.0,0.0,0.0,0.0,0.0,0.0,0.0,0.0,0.0,0.0,0.0,0.0,0.0,0.0,0.0,0.0,0.0,0.0,0.0,0.0,0.0,0.0,0.0,0.0,0.0,0.0,0.0,0.0,0.0,0.0,0.0,0.0,0.0,0.0,0.0,0.0,0.0,0.0,0.0,0.0,0.0,0.0,0.0,0.0,0.0,0.0,0.0,0.0,0.0,0.0,0.0,0.0,0.0,0.0,0.0,0.0,0.0,0.0,0.0,0.0,0.0,0.0,0.0,0.0,0.0,0.0,0.0,0.0,0.0,0.0,0.0,0.0,0.0,0.0,0.0,0.0,0.0,0.0,0.0,0.0,0.0,0.0,0.0,0.0,0.0,0.0,0.0,0.0,0.0,0.0,0.0,0.0,0.0,0.0,0.0,0.0,0.0,0.0,0.0,0.0,0.0,0.0,0.0,0.0,0.0,0.0,0.0,0.0,0.0,0.0,0.0,0.0,0.0,0.0,0.0,0.0,0.0,0.0,0.0,0.0,0.0,0.0,0.0,0.0,0.0,0.0,0.0,0.0,0.0,0.0,0.0,0.0,0.0,0.0,0.0,0.0,0.0,0.0,0.0,0.0,0.0,0.0,0.0,0.0,0.0,0.0,0.0,0.0,0.0,0.0,0.0,0.0,0.0,0.0,0.0,0.0,0.0,0.0,0.0,0.0,0.0,0.0,0.0,0.0,0.0,0.0,0.0,0.0,0.0,0.0,0.0,0.0,0.0,0.0,0.0,0.0,0.0,0.0,0.0,0.0,0.0,0.0,0.0,0.0,0.0,0.0,0.0,0.0,0.0,0.0,0.0,0.0,0.0,0.0,0.0,0.0,0.0,0.0,0.0,0.0,0.0,0.0,0.0,0.0,0.0,0.0,0.0,0.0,0.0,0.0,0.0,0.0,0.0,0.0,0.0,0.0,0.0,0.0,0.0,0.0,0.0,0.0,0.0,0.0,0.0,0.0,0.0,0.0,0.0,0.0,0.0,0.0,0.0,0.0,0.0,0.0,0.0,0.0,0.0,0.0,0.0,0.0,0.0,0.0,0.0,0.0,0.0,0.0,0.0,0.0,0.0,0.0,0.0,0.0,0.0,0.0,0.0,0.0,0.0,0.0,0.0,0.0,0.0,0.0,0.0,0.0,0.0,0.0,0.0,0.0,0.0,0.0,0.0,0.0,0.0,0.0,0.0,0.0,0.0,0.0,0.0,0.0,0.0,0.0,0.0,0.0,0.0,0.0,0.0,0.0,0.0,0.0,0.0,0.0,0.0,0.0,0.0,0.0,0.0,0.0,0.0,0.0,0.0,0.0,0.0,0.0,0.0,0.0,0.0,0.0,0.0,0.0,0.0,0.0,0.0,0.0,0.0,0.0,0.0,0.0,0.0,0.0,0.0,0.0,0.0,0.0,0.0,0.0,0.0,0.0,0.0,0.0,0.0,0.0,0.0,0.0,0.0,0.0,0.0,0.0,0.0,0.0,0.0,0.0,0.0,0.0,0.0,0.0,0.0,0.0,0.0,0.0,0.0,0.0,0.0,0.0,0.0,0.0,0.0,0.0,0.0,0.0,0.0,0.0,0.0,0.0,0.0,0.0,0.0,0.0,0.0,0.0,0.0,0.0,0.0,0.0,0.0,0.0,0.0,0.0,0.0,0.0,0.0,0.0,0.0,0.0,0.0,0.0,0.0,0.0,0.0,0.0,0.0,0.0,0.0,0.0,0.0,0.0,0.0,0.0,0.0,0.0,0.0,0.0,0.0,0.0,0.0,0.0,0.0,0.0,0.0,0.0,0.0,0.0,0.0,0.0,0.0,0.0,0.0,0.0,0.0,0.0,0.0,0.0,0.0,0.0,0.0,0.0,0.0,0.0,0.0,0.0,0.0,0.0,0.0,0.0,0.0,0.0,0.0,0.0,0.0,0.0,0.0,0.0,0.0,0.0,0.0,0.0,0.0,0.0,0.0,0.0,0.0,0.0,0.0,0.0,0.0,0.0,0.0,0.0,0.0,0.0,0.0,0.0,0.0,0.0,0.0,0.0,0.0,0.0,0.0,0.0,0.0,0.0,0.0,0.0,0.0,0.0,0.0,0.0,0.0,0.0,0.0,0.0,0.0,0.0,0.0,0.0,0.0,0.0,0.0,0.0,0.0,0.0,0.0,0.0,0.0,0.0,0.0,0.0,0.0,0.0,0.0,0.0,0.0,0.0,0.0,0.0,0.0,0.0,0.0,0.0,0.0,0.0,0.0,0.0,0.0,0.0,0.0,0.0,0.0,0.0,0.0,0.0,0.0,0.0,0.0,0.0,0.0,0.0,0.0,0.0,0.0,0.0,0.0,0.0,0.0,0.0,0.0,0.0,0.0,0.0,0.0,0.0,0.0,0.0,0.0,0.0,0.0,0.0,0.0,0.0,0.0,0.0,0.0,0.0,0.0,0.0,0.0,0.0,0.0,0.0,0.0,0.0,0.0,0.0,0.0,0.0,0.0,0.0,0.0,0.0,0.0,0.0,0.0,0.0,0.0,0.0,0.0,0.0,0.0,0.0,0.0,0.0,0.0,0.0,0.0,0.0,0.0,0.0,0.0,0.0,0.0,0.0,0.0,0.0,0.0,0.0,0.0,0.0,0.0,0.0,0.0,0.0,0.0,0.0,0.0,0.0,0.0,0.0,0.0,0.0,0.0,0.0,0.0,0.0,0.0,0.0,0.0,0.0,0.0,0.0,0.0,0.0,0.0,0.0,0.0,0.0,0.0,0.0,0.0,0.0,0.0,0.0,0.0,0.0,0.0,0.0,0.0,0.0,0.0,0.0,0.0,0.0,0.0,0.0,0.0,0.0,0.0,0.0,0.0,0.0,0.0,0.0,0.0,0.0,0.0,0.0,0.0,0.0,0.0,0.0,0.0,0.0,0.0,0.0,0.0,0.0,0.0,0.0,0.0,0.0,0.0,0.0,0.0,0.0,0.0,0.0,0.0,0.0,0.0,0.0,0.0,0.0,0.0,0.0,0.0,0.0,0.0,0.0,0.0,0.0,0.0,0.0,0.0,0.0,0.0,0.0,0.0,0.0,0.0,0.0,0.0,0.0,0.0,0.0,0.0,0.0,0.0,0.0,0.0,0.0,0.0,0.0,0.0,0.0,0.0,0.0,0.0,0.0,0.0,0.0,0.0,0.0,0.0,0.0,0.0,0.0,0.0,0.0,0.0,0.0,0.0,0.0,0.0,0.0,0.0,0.0,0.0,0.0,0.0,0.0,0.0,-1.8193,0.0,0.0,0.0,0.0,0.0,0.0,0.0,0.0,0.0,0.0,0.0,0.0,0.0,0.0,0.0,0.0,0.0,0.0,0.0,0.0,0.0,0.0,0.0,0.0,0.0,0.0,0.0,0.0,0.0,0.0,0.0,0.0,0.0,0.0,0.0,0.0,0.0,0.0,0.0,0.0,0.0,0.0,0.0,0.0,0.0,0.0,0.0,0.0,0.0,0.0,0.0,0.0,0.0,0.0,0.0,0.0,0.0,0.0,0.0,0.0,0.0,0.0,0.0,0.0,0.0,0.0,0.0,0.0,0.0,0.0,0.0,0.0,0.0,0.0,0.0,0.0,0.0,0.0,0.0,0.0,0.0,0.0,0.0,0.0,0.0,0.0,0.0,0.0,0.0,0.0,0.0,0.0,0.0,0.0,0.0,0.0,0.0,0.0,0.0,0.0,0.0,0.0,0.0,0.0,0.0,0.0,0.0,0.0,0.0,0.0,-1.7843,-1.7854,-1.7826,-1.7826,-1.7991,0.0,0.0,0.0,0.0,0.0,0.0,0.0,0.0,0.0,0.0,0.0,0.0,0.0,0.0,0.0,0.0,0.0,0.0,0.0,0.0,0.0,0.0,0.0,0.0,0.0,0.0,0.0,0.0,0.0,0.0,0.0,0.0,0.0,0.0,0.0,0.0,0.0,0.0,0.0,0.0,0.0,0.0,0.0,0.0,0.0,0.0,0.0,0.0,0.0,0.0,0.0,0.0,0.0,0.0,0.0,0.0,0.0,0.0,0.0,0.0,0.0,0.0,0.0,0.0,0.0,0.0,0.0,0.0,0.0,0.0,0.0,0.0,0.0,0.0,0.0,0.0,0.0,0.0,0.0,0.0,0.0,0.0,0.0,0.0,0.0,0.0,0.0,0.0,0.0,0.0,0.0,0.0,0.0,0.0,0.0,0.0,0.0,0.0,0.0,0.0,0.0,0.0,0.0,0.0,0.0,0.0,0.0,0.0,0.0,0.0,0.0,0.0,-1.7633,-1.7746,-1.8012,0.0,0.0,0.0,0.0,0.0,0.0,0.0,0.0,0.0,0.0,0.0,0.0,0.0,0.0,0.0,0.0,0.0,0.0,0.0,0.0,0.0,0.0,0.0,0.0,0.0,0.0,0.0,0.0,0.0,0.0,0.0,0.0,0.0,0.0,0.0,0.0,0.0,0.0,0.0,0.0,0.0,0.0,0.0,0.0,0.0,0.0,0.0,0.0,0.0,0.0,0.0,0.0,0.0,0.0,0.0,0.0,0.0,0.0,0.0,0.0,0.0,0.0,0.0,0.0,0.0,0.0,0.0,0.0,0.0,0.0,0.0,0.0,0.0,0.0,0.0,0.0,0.0,0.0,0.0,0.0,0.0,0.0,0.0,0.0,0.0,0.0,0.0,0.0,0.0,0.0,0.0,0.0,0.0,0.0,0.0,0.0,0.0,0.0,0.0,0.0,0.0,0.0,0.0,0.0,0.0,0.0,0.0,0.0,0.0,0.0,-1.7154,-1.8093,-1.8013,0.0,-1.8328,0.0,0.0,0.0,0.0,0.0,0.0,0.0,0.0,0.0,0.0,0.0,0.0,0.0,0.0,0.0,0.0,0.0,0.0,0.0,0.0,0.0,0.0,0.0,0.0,0.0,0.0,0.0,0.0,0.0,0.0,0.0,0.0,0.0,0.0,0.0,0.0,0.0,0.0,0.0,0.0,0.0,0.0,0.0,0.0,0.0,0.0,0.0,0.0,0.0,0.0,0.0,0.0,0.0,0.0,0.0,0.0,0.0,0.0,0.0,0.0,0.0,0.0,0.0,0.0,0.0,0.0,0.0,0.0,0.0,0.0,0.0,0.0,0.0,0.0,0.0,0.0,0.0,0.0,0.0,0.0,0.0,0.0,0.0,0.0,0.0,0.0,0.0,0.0,0.0,0.0,0.0,0.0,0.0,0.0,0.0,0.0,0.0,0.0,0.0,0.0,0.0,0.0,0.0,0.0,0.0,0.0,0.0,0.0,0.0,0.0,-1.7623,-1.8428,-1.823,-1.7906,0.0,0.0,0.0,0.0,0.0,0.0,0.0,0.0,0.0,0.0,0.0,0.0,0.0,0.0,0.0,0.0,0.0,0.0,0.0,0.0,0.0,0.0,0.0,0.0,0.0,0.0,0.0,0.0,0.0,0.0,0.0,0.0,0.0,0.0,0.0,0.0,0.0,0.0,0.0,0.0,0.0,0.0,0.0,0.0,0.0,0.0,0.0,0.0,0.0,0.0,0.0,0.0,0.0,0.0,0.0,0.0,0.0,0.0,0.0,0.0,0.0,0.0,0.0,0.0,0.0,0.0,0.0,0.0,0.0,0.0,0.0,0.0,0.0,0.0,0.0,0.0,0.0,0.0,0.0,0.0,0.0,0.0,0.0,0.0,0.0,0.0,0.0,0.0,0.0,0.0,0.0,0.0,0.0,0.0,0.0,0.0,0.0,0.0,0.0,0.0,0.0,0.0,0.0,0.0,0.0,0.0,0.0,0.0,0.0,0.0,-1.7893,-1.8008,-1.8489,-1.8218,-1.7813,-1.7291,0.0,0.0,0.0,0.0,0.0,0.0,0.0,0.0,0.0,0.0,0.0,0.0,0.0,0.0,0.0,0.0,0.0,0.0,0.0,0.0,0.0,0.0,0.0,0.0,0.0,0.0,0.0,0.0,0.0,0.0,0.0,0.0,0.0,0.0,0.0,0.0,0.0,0.0,0.0,0.0,0.0,0.0,0.0,0.0,0.0,0.0,0.0,0.0,0.0,0.0,0.0,0.0,0.0,0.0,0.0,0.0,0.0,0.0,0.0,0.0,0.0,0.0,0.0,0.0,0.0,0.0,0.0,0.0,0.0,0.0,0.0,0.0,0.0,0.0,0.0,0.0,0.0,0.0,0.0,0.0,0.0,0.0,0.0,0.0,0.0,0.0,0.0,0.0,0.0,0.0,0.0,0.0,0.0,0.0,0.0,0.0,0.0,0.0,0.0,0.0,0.0,0.0,0.0,0.0,0.0,0.0,0.0,0.0,-1.9042,-1.8308,-1.8048,-1.8391,-1.7936,-1.7935,0.0,0.0,0.0,0.0,0.0,0.0,0.0,0.0,0.0,0.0,0.0,0.0,0.0,0.0,0.0,0.0,0.0,0.0,0.0,0.0,0.0,0.0,0.0,0.0,0.0,0.0,0.0,0.0,0.0,0.0,0.0,0.0,0.0,0.0,0.0,0.0,0.0,0.0,0.0,0.0,0.0,0.0,0.0,0.0,0.0,0.0,0.0,0.0,0.0,0.0,0.0,0.0,0.0,0.0,0.0,0.0,0.0,0.0,0.0,0.0,0.0,0.0,0.0,0.0,0.0,0.0,0.0,0.0,0.0,0.0,0.0,0.0,0.0,0.0,0.0,0.0,0.0,0.0,0.0,0.0,0.0,0.0,0.0,0.0,0.0,0.0,0.0,0.0,0.0,0.0,0.0,0.0,0.0,0.0,0.0,0.0,0.0,0.0,0.0,0.0,0.0,0.0,0.0,0.0,0.0,0.0,0.0,0.0,0.0,-1.8771,-1.8717,-1.8512,-1.8098,-1.818,-1.826,0.0,0.0,0.0,0.0,0.0,0.0,0.0,0.0,0.0,0.0,0.0,0.0,0.0,0.0,0.0,0.0,0.0,0.0,0.0,0.0,0.0,0.0,0.0,0.0,0.0,0.0,0.0,0.0,0.0,0.0,0.0,0.0,0.0,0.0,0.0,0.0,0.0,0.0,0.0,0.0,0.0,0.0,0.0,0.0,0.0,0.0,0.0,0.0,0.0,0.0,0.0,0.0,0.0,0.0,0.0,0.0,0.0,0.0,0.0,0.0,0.0,0.0,0.0,0.0,0.0,0.0,0.0,0.0,0.0,0.0,0.0,0.0,0.0,0.0,0.0,0.0,0.0,0.0,0.0,0.0,0.0,0.0,0.0,0.0,0.0,0.0,0.0,0.0,0.0,0.0,0.0,0.0,0.0,0.0,0.0,0.0,0.0,0.0,0.0,0.0,0.0,0.0,0.0,0.0,0.0,0.0,0.0,0.0,0.0,-1.8765,0.0,-1.9049,-1.8288,-1.8552,-1.858,0.0,0.0,0.0,0.0,0.0,0.0,0.0,0.0,0.0,0.0,0.0,0.0,0.0,0.0,0.0,0.0,0.0,0.0,0.0,0.0,0.0,0.0,0.0,0.0,0.0,0.0,0.0,0.0,0.0,0.0,0.0,0.0,0.0,0.0,0.0,0.0,0.0,0.0,0.0,0.0,0.0,0.0,0.0,0.0,0.0,0.0,0.0,0.0,0.0,0.0,0.0,0.0,0.0,0.0,0.0,0.0,0.0,0.0,0.0,0.0,0.0,0.0,0.0,0.0,0.0,0.0,0.0,0.0,0.0,0.0,0.0,0.0,0.0,0.0,0.0,0.0,0.0,0.0,0.0,0.0,0.0,0.0,0.0,0.0,0.0,0.0,0.0,0.0,0.0,0.0,0.0,0.0,0.0,0.0,0.0,0.0,0.0,0.0,0.0,0.0,0.0,0.0,0.0,0.0,0.0,0.0,0.0,0.0,-1.8755,-1.9209,-1.9648,-1.9517,-1.8913,-1.9064,-1.8947,0.0,0.0,0.0,0.0,0.0,0.0,0.0,0.0,0.0,0.0,0.0,0.0,0.0,0.0,0.0,0.0,0.0,0.0,0.0,0.0,0.0,0.0,0.0,0.0,0.0,0.0,0.0,0.0,0.0,0.0,0.0,0.0,0.0,0.0,0.0,0.0,0.0,0.0,0.0,0.0,0.0,0.0,0.0,0.0,0.0,0.0,0.0,0.0,0.0,0.0,0.0,0.0,0.0,0.0,0.0,0.0,0.0,0.0,0.0,0.0,0.0,0.0,0.0,0.0,0.0,0.0,0.0,0.0,0.0,0.0,0.0,0.0,0.0,0.0,0.0,0.0,0.0,0.0,0.0,0.0,0.0,0.0,0.0,0.0,0.0,0.0,0.0,0.0,0.0,0.0,0.0,0.0,0.0,0.0,0.0,0.0,0.0,0.0,0.0,0.0,0.0,0.0,0.0,0.0,0.0,0.0,0.0,0.0,0.0,-1.7632,-1.8713,-1.9182,-1.8993,-1.8976,-1.9414,0.0,0.0,0.0,0.0,0.0,0.0,0.0,0.0,0.0,0.0,0.0,0.0,0.0,0.0,0.0,0.0,0.0,0.0,0.0,0.0,0.0,0.0,0.0,0.0,0.0,0.0,0.0,0.0,0.0,0.0,0.0,0.0,0.0,0.0,0.0,0.0,0.0,0.0,0.0,0.0,0.0,0.0,0.0,0.0,0.0,0.0,0.0,0.0,0.0,0.0,0.0,0.0,0.0,0.0,0.0,0.0,0.0,0.0,0.0,0.0,0.0,0.0,0.0,0.0,0.0,0.0,0.0,0.0,0.0,0.0,0.0,0.0,0.0,0.0,0.0,0.0,0.0,0.0,0.0,0.0,0.0,0.0,0.0,0.0,0.0,0.0,0.0,0.0,0.0,0.0,0.0,0.0,0.0,0.0,0.0,0.0,0.0,0.0,0.0,0.0,0.0,0.0,0.0,0.0,0.0,0.0,0.0,0.0,0.0,-1.8795,-1.9971,-2.0554,-2.0359,-2.0571,-2.0765,-2.0918,0.0,0.0,0.0,0.0,0.0,0.0,0.0,0.0,0.0,0.0,0.0,0.0,0.0,0.0,0.0,0.0,0.0,0.0,0.0,0.0,0.0,0.0,0.0,0.0,0.0,0.0,0.0,0.0,0.0,0.0,0.0,0.0,0.0,0.0,0.0,0.0,0.0,0.0,0.0,0.0,0.0,0.0,0.0,0.0,0.0,0.0,0.0,0.0,0.0,0.0,0.0,0.0,0.0,0.0,0.0,0.0,0.0,0.0,0.0,0.0,0.0,0.0,0.0,0.0,0.0,0.0,0.0,0.0,0.0,0.0,0.0,0.0,0.0,0.0,0.0,0.0,0.0,0.0,0.0,0.0,0.0,0.0,0.0,0.0,0.0,0.0,0.0,0.0,0.0,0.0,0.0,0.0,0.0,0.0,0.0,0.0,0.0,0.0,0.0,0.0,0.0,0.0,0.0,0.0,0.0,0.0,0.0,0.0,-2.2178,-2.322,-2.3544,-2.2982,-2.3417,-2.2815,0.0,0.0,0.0,0.0,0.0,0.0,0.0,0.0,0.0,0.0,0.0,0.0,0.0,0.0,0.0,0.0,0.0,0.0,0.0,0.0,0.0,0.0,0.0,0.0,0.0,0.0,0.0,0.0,0.0,0.0,0.0,0.0,0.0,0.0,0.0,0.0,0.0,0.0,0.0,0.0,0.0,0.0,0.0,0.0,0.0,0.0,0.0,0.0,0.0,0.0,0.0,0.0,0.0,0.0,0.0,0.0,0.0,0.0,0.0,0.0,0.0,0.0,0.0,0.0,0.0,0.0,0.0,0.0,0.0,0.0,0.0,0.0,0.0,0.0,0.0,0.0,0.0,0.0,0.0,0.0,0.0,0.0,0.0,0.0,0.0,0.0,0.0,0.0,0.0,0.0,0.0,0.0,0.0,0.0,0.0,0.0,0.0,0.0,0.0,0.0,0.0,0.0,0.0,0.0,0.0,0.0,0.0,0.0,0.0,-2.5482,-2.7374,-2.7565,-2.5947,-2.4788,-2.4336,0.0,0.0,0.0,0.0,0.0,0.0,0.0,0.0,0.0,0.0,0.0,0.0,0.0,0.0,0.0,0.0,0.0,0.0,0.0,0.0,0.0,0.0,0.0,0.0,0.0,0.0,0.0,0.0,0.0,0.0,0.0,0.0,0.0,0.0,0.0,0.0,0.0,0.0,0.0,0.0,0.0,0.0,0.0,0.0,0.0,0.0,0.0,0.0,0.0,0.0,0.0,0.0,0.0,0.0,0.0,0.0,0.0,0.0,0.0,0.0,0.0,0.0,0.0,0.0,0.0,0.0,0.0,0.0,0.0,0.0,0.0,0.0,0.0,0.0,0.0,0.0,0.0,0.0,0.0,0.0,0.0,0.0,0.0,0.0,0.0,0.0,0.0,0.0,0.0,0.0,0.0,0.0,0.0,0.0,0.0,0.0,0.0,0.0,0.0,0.0,0.0,0.0,0.0,0.0,0.0,0.0,0.0,0.0,-2.5249,-2.7463,-3.0493,-3.175,-3.1162,-2.8405,-2.6656,0.0,0.0,0.0,0.0,0.0,0.0,0.0,0.0,0.0,0.0,0.0,0.0,0.0,0.0,0.0,0.0,0.0,0.0,0.0,0.0,0.0,0.0,0.0,0.0,0.0,0.0,0.0,0.0,0.0,0.0,0.0,0.0,0.0,0.0,0.0,0.0,0.0,0.0,0.0,0.0,0.0,0.0,0.0,0.0,0.0,0.0,0.0,0.0,0.0,0.0,0.0,0.0,0.0,0.0,0.0,0.0,0.0,0.0,0.0,0.0,0.0,0.0,0.0,0.0,0.0,0.0,0.0,0.0,0.0,0.0,0.0,0.0,0.0,0.0,0.0,0.0,0.0,0.0,0.0,0.0,0.0,0.0,0.0,0.0,0.0,0.0,0.0,0.0,0.0,0.0,0.0,0.0,0.0,0.0,0.0,0.0,0.0,0.0,0.0,0.0,0.0,0.0,0.0,0.0,0.0,0.0,0.0,0.0,-2.681,-2.8602,-3.2616,-3.5329,-3.6519,-3.2641,-2.9331,0.0,0.0,0.0,0.0,0.0,0.0,0.0,0.0,0.0,0.0,0.0,0.0,0.0,0.0,0.0,0.0,0.0,0.0,0.0,0.0,0.0,0.0,0.0,0.0,0.0,0.0,0.0,0.0,0.0,0.0,0.0,0.0,0.0,0.0,0.0,0.0,0.0,0.0,0.0,0.0,0.0,0.0,0.0,0.0,0.0,0.0,0.0,0.0,0.0,0.0,0.0,0.0,0.0,0.0,0.0,0.0,0.0,0.0,0.0,0.0,0.0,0.0,0.0,0.0,0.0,0.0,0.0,0.0,0.0,0.0,0.0,0.0,0.0,0.0,0.0,0.0,0.0,0.0,0.0,0.0,0.0,0.0,0.0,0.0,0.0,0.0,0.0,0.0,0.0,0.0,0.0,0.0,0.0,0.0,0.0,0.0,0.0,0.0,0.0,0.0,0.0,0.0,0.0,0.0,0.0,0.0,0.0,0.0,-2.7868,-3.0091,-3.2779,-3.4869,-3.6329,-3.2753,-3.0625,0.0,0.0,0.0,0.0,0.0,0.0,0.0,0.0,0.0,0.0,0.0,0.0,0.0,0.0,0.0,0.0,0.0,0.0,0.0,0.0,0.0,0.0,0.0,0.0,0.0,0.0,0.0,0.0,0.0,0.0,0.0,0.0,0.0,0.0,0.0,0.0,0.0,0.0,0.0,0.0,0.0,0.0,0.0,0.0,0.0,0.0,0.0,0.0,-4.0197,0.0,0.0,0.0,0.0,0.0,0.0,0.0,0.0,0.0,0.0,0.0,0.0,0.0,0.0,0.0,0.0,0.0,0.0,0.0,0.0,0.0,0.0,0.0,0.0,0.0,0.0,0.0,0.0,0.0,0.0,0.0,0.0,0.0,0.0,0.0,0.0,0.0,0.0,0.0,0.0,0.0,0.0,0.0,0.0,0.0,0.0,0.0,0.0,0.0,0.0,0.0,0.0,0.0,0.0,0.0,0.0,0.0,0.0,0.0,-2.8738,-3.1417,-3.3756,-3.5789,-3.7316,-3.4594,-3.2469,0.0,0.0,0.0,0.0,0.0,0.0,0.0,0.0,0.0,0.0,0.0,0.0,0.0,0.0,0.0,0.0,0.0,0.0,0.0,0.0,0.0,0.0,0.0,0.0,0.0,0.0,0.0,0.0,0.0,0.0,0.0,0.0,0.0,0.0,0.0,0.0,0.0,0.0,0.0,0.0,0.0,0.0,0.0,0.0,0.0,0.0,0.0,0.0,0.0,0.0,0.0,0.0,0.0,0.0,0.0,0.0,0.0,0.0,0.0,0.0,0.0,0.0,0.0,0.0,0.0,0.0,0.0,0.0,0.0,0.0,0.0,0.0,0.0,0.0,0.0,0.0,0.0,0.0,0.0,0.0,0.0,0.0,0.0,0.0,0.0,0.0,0.0,0.0,0.0,0.0,0.0,0.0,0.0,0.0,0.0,0.0,0.0,0.0,0.0,0.0,0.0,0.0,0.0,0.0,0.0,0.0,0.0,-2.7336,-2.9533,-3.2555,-3.4718,-3.6749,-3.8579,-3.6482,-3.4234,-3.1906,0.0,0.0,0.0,0.0,0.0,0.0,0.0,0.0,0.0,0.0,0.0,0.0,0.0,0.0,0.0,0.0,0.0,0.0,0.0,0.0,0.0,0.0,0.0,0.0,0.0,0.0,0.0,0.0,0.0,0.0,0.0,0.0,0.0,0.0,0.0,0.0,0.0,0.0,-3.8967,-3.9491,0.0,0.0,0.0,0.0,0.0,0.0,0.0,0.0,-4.0885,0.0,0.0,0.0,0.0,0.0,0.0,0.0,0.0,0.0,0.0,0.0,0.0,0.0,0.0,0.0,0.0,0.0,0.0,0.0,0.0,0.0,0.0,0.0,0.0,0.0,0.0,0.0,0.0,0.0,0.0,0.0,0.0,0.0,0.0,0.0,0.0,0.0,0.0,0.0,0.0,0.0,0.0,0.0,0.0,0.0,0.0,0.0,0.0,0.0,0.0,0.0,0.0,0.0,0.0,0.0,0.0,-2.8834,-2.8746,-3.0289,-3.366,-3.4559,-3.5896,-3.7678,-3.6272,-3.4873,-3.3551,0.0,0.0,0.0,0.0,0.0,0.0,0.0,0.0,0.0,0.0,0.0,0.0,0.0,0.0,0.0,0.0,0.0,0.0,0.0,0.0,0.0,0.0,0.0,0.0,0.0,0.0,0.0,0.0,0.0,0.0,0.0,0.0,0.0,0.0,0.0,0.0,0.0,0.0,0.0,-4.2112,-4.2276,0.0,0.0,0.0,0.0,0.0,0.0,0.0,0.0,-4.1051,0.0,0.0,0.0,0.0,0.0,0.0,0.0,0.0,0.0,0.0,0.0,0.0,0.0,0.0,0.0,0.0,0.0,0.0,0.0,0.0,0.0,0.0,0.0,0.0,0.0,0.0,0.0,0.0,0.0,0.0,0.0,0.0,0.0,0.0,0.0,0.0,0.0,0.0,0.0,0.0,0.0,0.0,0.0,0.0,0.0,0.0,0.0,0.0,0.0,0.0,0.0,0.0,0.0,0.0,0.0,-2.9464,-3.0089,-3.1809,-3.4718,-3.5609,-3.6714,-3.8166,-3.7144,-3.5924,0.0,0.0,0.0,0.0,0.0,0.0,0.0,0.0,0.0,0.0,0.0,0.0,0.0,0.0,0.0,0.0,0.0,0.0,0.0,0.0,0.0,0.0,0.0,0.0,0.0,0.0,0.0,0.0,0.0,0.0,0.0,0.0,0.0,0.0,0.0,0.0,0.0,0.0,0.0,0.0,-4.2811,-4.3312,-4.3039,0.0,0.0,0.0,0.0,0.0,0.0,-4.1183,-4.0562,0.0,0.0,0.0,0.0,0.0,0.0,0.0,0.0,0.0,0.0,0.0,0.0,0.0,0.0,0.0,0.0,0.0,0.0,0.0,0.0,0.0,0.0,0.0,0.0,0.0,0.0,0.0,0.0,0.0,0.0,0.0,0.0,0.0,0.0,0.0,0.0,0.0,0.0,0.0,0.0,0.0,0.0,0.0,0.0,0.0,0.0,0.0,0.0,0.0,0.0,0.0,0.0,0.0,0.0,0.0,-2.9959,-3.1325,-3.3322,-3.5803,-3.688,-3.7906,-3.8915,-3.7775,-3.6533,0.0,0.0,0.0,0.0,0.0,0.0,0.0,0.0,0.0,0.0,0.0,0.0,0.0,0.0,0.0,0.0,0.0,0.0,0.0,0.0,0.0,0.0,0.0,0.0,0.0,0.0,0.0,0.0,0.0,0.0,0.0,0.0,0.0,0.0,0.0,0.0,0.0,0.0,0.0,0.0,0.0,-4.4314,-4.414,-4.4515,0.0,0.0,0.0,0.0,-4.2447,-4.1632,0.0,0.0,0.0,0.0,0.0,0.0,0.0,0.0,0.0,0.0,0.0,0.0,0.0,0.0,0.0,0.0,0.0,0.0,0.0,0.0,0.0,0.0,0.0,0.0,0.0,0.0,0.0,0.0,0.0,0.0,0.0,0.0,0.0,0.0,0.0,0.0,0.0,0.0,0.0,0.0,0.0,0.0,0.0,0.0,0.0,0.0,0.0,0.0,0.0,0.0,0.0,0.0,0.0,0.0,0.0,0.0,-3.1184,-3.2313,-3.4228,-3.6866,-3.7651,-3.85,-3.9517,-3.715,-3.5707,0.0,0.0,0.0,0.0,0.0,0.0,0.0,0.0,0.0,0.0,0.0,0.0,0.0,0.0,0.0,0.0,0.0,0.0,0.0,0.0,0.0,0.0,0.0,0.0,0.0,0.0,0.0,0.0,0.0,0.0,0.0,0.0,0.0,0.0,0.0,0.0,0.0,0.0,0.0,0.0,0.0,-4.5885,-4.3733,-4.4448,-4.4658,0.0,0.0,-4.3644,-4.4136,-4.4864,0.0,0.0,0.0,0.0,0.0,0.0,0.0,0.0,0.0,0.0,0.0,0.0,0.0,0.0,0.0,0.0,0.0,0.0,0.0,0.0,0.0,0.0,0.0,0.0,0.0,0.0,0.0,0.0,0.0,0.0,0.0,0.0,0.0,0.0,0.0,0.0,0.0,0.0,0.0,0.0,0.0,0.0,0.0,0.0,0.0,0.0,0.0,0.0,0.0,0.0,0.0,0.0,0.0,0.0,0.0,-2.9838,-3.1657,-3.3195,-3.518,-3.7556,-3.8214,-3.902,-4.0065,-3.7467,-3.5929,0.0,0.0,0.0,0.0,0.0,0.0,0.0,0.0,0.0,0.0,0.0,0.0,0.0,0.0,0.0,0.0,0.0,0.0,0.0,0.0,0.0,0.0,0.0,0.0,0.0,0.0,0.0,0.0,0.0,0.0,0.0,0.0,0.0,0.0,0.0,0.0,0.0,0.0,0.0,0.0,0.0,0.0,-4.4642,-4.5363,0.0,0.0,0.0,-4.4473,-4.4358,0.0,0.0,0.0,0.0,0.0,0.0,0.0,0.0,0.0,0.0,0.0,0.0,0.0,0.0,0.0,0.0,0.0,0.0,0.0,0.0,0.0,0.0,0.0,0.0,0.0,0.0,0.0,0.0,0.0,0.0,0.0,0.0,0.0,0.0,0.0,0.0,0.0,0.0,0.0,0.0,0.0,0.0,0.0,0.0,0.0,0.0,0.0,0.0,0.0,0.0,0.0,0.0,0.0,0.0,0.0,0.0,0.0,-3.2176,-3.4063,-3.6024,-3.808,-3.8791,-3.9504,-4.0308,-3.7984,0.0,0.0,0.0,0.0,0.0,0.0,0.0,0.0,0.0,0.0,0.0,0.0,0.0,0.0,0.0,0.0,0.0,0.0,0.0,0.0,0.0,0.0,0.0,0.0,0.0,0.0,0.0,-3.3277,0.0,0.0,0.0,0.0,0.0,0.0,0.0,0.0,0.0,0.0,0.0,0.0,0.0,0.0,-4.5001,-4.5292,-4.6223,-4.691,0.0,0.0,-4.552,-4.5108,-4.6044,-4.5714,0.0,0.0,0.0,0.0,0.0,0.0,0.0,0.0,0.0,0.0,0.0,0.0,0.0,0.0,0.0,0.0,0.0,0.0,0.0,0.0,0.0,0.0,0.0,0.0,0.0,0.0,0.0,0.0,0.0,0.0,0.0,0.0,0.0,0.0,0.0,0.0,0.0,0.0,0.0,0.0,0.0,0.0,0.0,0.0,0.0,0.0,0.0,0.0,0.0,0.0,0.0,0.0,0.0,0.0,-3.1378,-3.3111,-3.4875,-3.6703,-3.8603,-3.9505,-4.0089,-4.0334,-3.8475,-3.6929,0.0,0.0,0.0,0.0,0.0,0.0,0.0,0.0,0.0,0.0,0.0,0.0,0.0,0.0,0.0,0.0,0.0,0.0,0.0,0.0,0.0,0.0,0.0,0.0,0.0,0.0,0.0,0.0,0.0,0.0,0.0,0.0,0.0,0.0,0.0,0.0,0.0,0.0,0.0,0.0,0.0,-4.5571,-4.501,-4.6602,-4.8189,0.0,-4.7928,-4.691,-4.7314,-4.8744,-4.8221,-4.3365,0.0,0.0,0.0,0.0,0.0,0.0,0.0,0.0,0.0,0.0,0.0,0.0,0.0,0.0,0.0,0.0,0.0,0.0,0.0,0.0,0.0,0.0,0.0,0.0,0.0,0.0,0.0,0.0,0.0,0.0,0.0,0.0,0.0,0.0,0.0,0.0,0.0,0.0,0.0,0.0,0.0,0.0,0.0,0.0,0.0,0.0,0.0,0.0,0.0,0.0,0.0,0.0,0.0,-3.1993,-3.3398,-3.5133,-3.7079,-3.9146,-3.9607,-4.0217,-4.1192,-3.8979,-3.7299,0.0,0.0,0.0,0.0,0.0,0.0,0.0,0.0,0.0,0.0,0.0,0.0,0.0,0.0,0.0,0.0,0.0,0.0,0.0,0.0,0.0,0.0,0.0,0.0,0.0,0.0,0.0,0.0,-3.5339,-3.5337,-3.5422,0.0,0.0,0.0,0.0,0.0,0.0,0.0,0.0,0.0,0.0,-4.5324,-4.5882,-4.6963,0.0,0.0,-4.741,-4.6776,-4.693,-4.7454,-4.6768,-4.3702,-4.2854,0.0,0.0,0.0,0.0,0.0,0.0,0.0,0.0,0.0,0.0,0.0,0.0,0.0,0.0,0.0,0.0,0.0,0.0,0.0,0.0,0.0,0.0,0.0,0.0,0.0,0.0,0.0,0.0,0.0,0.0,0.0,0.0,0.0,0.0,0.0,0.0,0.0,0.0,0.0,0.0,0.0,0.0,0.0,0.0,0.0,0.0,0.0,0.0,0.0,0.0,0.0,0.0,-3.2406,-3.3556,-3.5262,-3.7063,-3.9063,-3.9429,-4.0044,-4.0839,-3.9194,-3.7812,0.0,0.0,0.0,0.0,0.0,0.0,0.0,0.0,0.0,0.0,0.0,0.0,0.0,0.0,0.0,0.0,0.0,0.0,0.0,0.0,0.0,0.0,0.0,0.0,0.0,0.0,0.0,0.0,-3.5973,-3.591,-3.5671,0.0,0.0,0.0,0.0,0.0,0.0,0.0,0.0,0.0,0.0,-4.4955,-4.615,-4.6871,-4.7354,-4.7467,-4.6855,-4.6282,-4.6244,-4.6256,-4.5615,-4.3572,0.0,0.0,0.0,0.0,0.0,0.0,0.0,0.0,0.0,0.0,0.0,0.0,0.0,0.0,0.0,0.0,0.0,0.0,0.0,0.0,0.0,0.0,0.0,0.0,0.0,0.0,0.0,0.0,0.0,0.0,-2.8364,0.0,0.0,0.0,0.0,0.0,0.0,0.0,0.0,0.0,0.0,0.0,0.0,0.0,0.0,0.0,0.0,0.0,0.0,0.0,0.0,0.0,0.0,-3.2459,-3.3793,-3.5319,-3.6711,-3.7952,-3.9024,-3.9446,-3.9255,-3.911,-3.8357,-3.6857,0.0,0.0,0.0,0.0,0.0,0.0,0.0,0.0,0.0,0.0,0.0,0.0,0.0,0.0,0.0,0.0,0.0,0.0,0.0,0.0,0.0,0.0,0.0,0.0,0.0,0.0,-3.5674,-3.5519,-3.5567,0.0,0.0,0.0,0.0,0.0,0.0,0.0,0.0,0.0,0.0,-4.2797,-4.4638,-4.5507,-4.6207,-4.6801,-4.7237,-4.6346,-4.5563,-4.5391,-4.5858,-4.5424,0.0,0.0,0.0,0.0,0.0,0.0,0.0,0.0,0.0,0.0,0.0,0.0,0.0,0.0,0.0,0.0,0.0,0.0,0.0,0.0,0.0,0.0,0.0,0.0,0.0,0.0,0.0,-2.7789,-2.8132,0.0,0.0,0.0,0.0,0.0,0.0,0.0,0.0,0.0,0.0,0.0,-3.1105,-3.1486,0.0,0.0,0.0,0.0,0.0,0.0,0.0,0.0,0.0,0.0,0.0,0.0,-3.2611,-3.3836,-3.5319,-3.697,-3.8642,-3.9062,-3.9527,-4.0121,-3.9774,-3.8711,-3.6916,0.0,0.0,0.0,0.0,0.0,0.0,0.0,0.0,0.0,0.0,0.0,0.0,0.0,0.0,0.0,0.0,0.0,0.0,0.0,0.0,0.0,0.0,0.0,0.0,0.0,-3.7782,0.0,0.0,0.0,0.0,0.0,0.0,0.0,0.0,0.0,0.0,0.0,-3.9427,-4.1091,-4.3043,-4.4392,-4.4698,-4.5684,-4.6474,0.0,0.0,0.0,0.0,0.0,0.0,0.0,0.0,0.0,0.0,0.0,0.0,0.0,0.0,-4.6612,-4.4015,-4.4179,-4.4691,-4.4545,0.0,0.0,0.0,0.0,0.0,0.0,0.0,0.0,0.0,0.0,0.0,0.0,0.0,0.0,-2.8763,0.0,-2.9364,0.0,0.0,0.0,0.0,0.0,0.0,0.0,0.0,-3.1622,-3.2078,-3.2137,-3.2512,-3.2783,0.0,-3.2928,-3.2269,0.0,0.0,0.0,0.0,0.0,0.0,0.0,0.0,-3.3098,-3.4318,-3.5792,-3.7314,-3.8833,-3.9097,-3.9502,-4.0018,-3.9649,-3.8779,-3.7387,-3.6379,-3.5468,0.0,0.0,0.0,0.0,0.0,0.0,0.0,0.0,0.0,0.0,0.0,0.0,0.0,0.0,0.0,0.0,0.0,0.0,0.0,0.0,0.0,0.0,0.0,-3.823,0.0,0.0,0.0,0.0,0.0,0.0,0.0,0.0,0.0,-3.8489,-3.9154,-4.0263,-4.2201,-4.3663,-4.4504,-4.4347,0.0,0.0,0.0,0.0,0.0,0.0,0.0,-4.3464,-4.2806,-4.3175,-4.3618,-4.3965,-4.5642,-4.6894,-4.6655,0.0,0.0,-4.6007,-4.6097,-4.6568,-4.6621,-4.6426,-4.6282,-4.6432,-4.6534,-4.6454,0.0,0.0,0.0,0.0,0.0,0.0,0.0,0.0,-2.891,-2.9758,0.0,-3.0644,0.0,0.0,0.0,0.0,0.0,-3.1273,0.0,0.0,-3.3693,-3.4386,-3.3683,-3.3875,-3.4114,-3.4314,-3.3819,-3.3469,-3.3162,-3.2628,0.0,0.0,0.0,0.0,0.0,0.0,-3.4012,-3.5303,-3.6687,-3.7806,-3.8602,-3.9122,-3.9259,-3.8993,-3.8894,-3.8664,-3.8228,-3.7297,-3.6484,-3.5896,-3.524,0.0,0.0,0.0,0.0,0.0,0.0,0.0,0.0,0.0,0.0,0.0,0.0,0.0,0.0,0.0,0.0,0.0,0.0,0.0,0.0,-3.7767,0.0,0.0,0.0,0.0,0.0,0.0,0.0,0.0,0.0,0.0,-3.8863,-3.946,-4.0834,-4.3534,0.0,0.0,0.0,0.0,-4.4825,-4.3589,-4.3408,-4.3201,-4.2707,-4.3569,-4.4137,-4.3469,0.0,0.0,-4.6005,-4.6781,-4.7232,-4.6547,-4.8225,-4.9481,-4.9119,-4.8479,-4.8145,-4.8202,-4.7456,-4.6883,-4.716,-4.7414,-4.7369,-2.9526,0.0,0.0,0.0,0.0,-2.9439,-3.0236,-3.1339,-3.1633,-3.1878,-3.2124,-3.1848,0.0,0.0,0.0,0.0,0.0,0.0,-3.2182,-3.3029,-3.4043,-3.4481,-3.446,-3.5259,-3.549,-3.5221,-3.519,-3.5247,-3.5363,-3.4996,-3.3839,-3.1924,0.0,0.0,0.0,0.0,-3.4389,-3.6168,-3.7148,-3.7976,-3.8819,-3.8948,-3.9186,-3.9452,-3.9582,-3.9457,-3.9075,-3.8393,-3.7716,-3.709,-3.673,0.0,0.0,0.0,0.0,0.0,0.0,0.0,0.0,0.0,0.0,0.0,0.0,0.0,0.0,0.0,0.0,0.0,0.0,0.0,-3.9063,-3.9244,-3.9068,0.0,0.0,0.0,0.0,0.0,0.0,0.0,0.0,0.0,-4.0495,-4.0562,-4.105,0.0,0.0,-4.3578,-4.3015,-4.3902,-4.4624,-4.468,0.0,0.0,0.0,-4.508,-4.4945,-4.4751,-4.5909,-4.6989,-4.7511,-4.8576,-4.9385,-4.9419,-5.0376,-5.1092,-5.099,-5.0314,-4.9769,-4.9756,-4.9577,-4.9658,-5.0098,-4.9828,-4.9423,-3.1358,-3.0224,-2.9683,-2.9916,-3.0646,-3.0758,-3.1549,-3.2801,-3.3104,-3.3227,-3.3152,-3.2924,-3.2388,-3.157,-3.1065,0.0,0.0,0.0,-3.2773,-3.3504,-3.4569,-3.5005,-3.4987,-3.5825,-3.5975,-3.5613,-3.5646,-3.5841,-3.6335,-3.6146,-3.5392,-3.4165,0.0,0.0,-3.4339,-3.4713,-3.5674,-3.7137,-3.7824,-3.8514,-3.9189,-3.9278,-3.9513,-3.995,-4.011,-3.9949,-3.9592,-3.9215,-3.8691,-3.8,-3.7708,-3.7339,0.0,0.0,0.0,0.0,0.0,0.0,0.0,0.0,0.0,0.0,0.0,-3.7084,-3.6527,0.0,0.0,0.0,-3.8821,-3.9365,-3.9758,-3.9839,0.0,0.0,0.0,0.0,0.0,0.0,0.0,-3.9427,-3.978,-4.0397,-4.137,-4.1612,-4.2075,-4.307,-4.389,-4.4191,-4.3614,0.0,-4.5143,-4.5289,-4.509,-4.5111,-4.5786,-4.5574,-4.5552,-4.6259,-4.7069,-4.784,-4.8602,-4.9655,-5.0477,-5.08,-5.1338,-5.1778,-5.1778,-5.1152,-5.0687,-5.0803,-5.0762,-5.0851,-5.121,-5.094,-5.0595,-3.2825,-3.2157,-3.0693,-3.0591,-3.1357,-3.14,-3.2022,-3.293,-3.3584,-3.381,-3.3657,-3.3856,-3.3373,-3.2397,-3.2009,0.0,-3.1917,-3.2787,-3.3319,-3.3503,-3.5109,-3.566,-3.5253,-3.573,-3.5818,-3.5541,-3.5366,-3.5691,-3.6443,-3.64,-3.6625,-3.7127,-3.6352,-3.6053,-3.6209,-3.6607,-3.7297,-3.8186,-3.8657,-3.9149,-3.97,-3.9936,-4.0154,-4.0399,-4.0399,-4.0221,-3.9816,-3.9732,-3.9348,-3.8571,-3.8284,-3.8046,-3.7889,0.0,0.0,0.0,0.0,0.0,0.0,0.0,0.0,0.0,0.0,0.0,0.0,0.0,0.0,0.0,-3.9636,0.0,-4.0031,-3.9884,0.0,0.0,0.0,-4.0435,-4.0234,-4.0806,-4.113,-4.0908,0.0,0.0,-4.1809,-4.2659,-4.3681,-4.4873,-4.5501,-4.5692,-4.5271,-4.5642,-4.5942,-4.5327,-4.4814,-4.4684,-4.5372,-4.5443,-4.594,-4.7399,-4.8217,-4.8532,-4.9075,-4.9882,-5.0546,-5.0655,-5.1218,-5.1602,-5.1634,-5.1172,-5.1007,-5.1235,-5.1004,-5.0742,-5.0774,-5.0884,-5.0781,-3.3229,-3.27,-3.2426,-3.2269,-3.2147,-3.2538,-3.301,-3.3618,-3.3835,-3.3914,-3.3879,-3.3614,-3.2879,-3.1855,-3.1789,-3.1949,-3.2328,-3.2569,-3.3454,-3.472,-3.4783,-3.5014,-3.5477,-3.5629,-3.5474,-3.5033,-3.5542,-3.6184,-3.6928,-3.7326,-3.7826,-3.8439,-3.8438,-3.8189,-3.7588,-3.6836,-3.7284,-3.9,-3.8688,-3.8901,-3.9672,-4.0081,-4.0342,-4.0399,-4.0558,-4.0378,-3.9802,-3.938,-3.9045,-3.8957,-3.8475,-3.8282,-3.8472,-3.8635,0.0,0.0,0.0,0.0,0.0,0.0,0.0,0.0,0.0,-3.8683,-3.7861,0.0,-3.9304,0.0,-3.9656,-4.0242,-4.0242,-4.0629,0.0,0.0,-4.1163,-4.1482,-4.1145,-4.1805,-4.2171,-4.1754,-4.2159,-4.2634,-4.3099,-4.3778,-4.4544,-4.5315,-4.5016,-4.4597,-4.4357,-4.4714,-4.5023,-4.5097,-4.5322,-4.5586,-4.5701,-4.5864,-4.627,-4.7065,-4.7391,-4.77,-4.8297,-4.8811,-4.9346,-4.9802,-5.0107,-5.0387,-5.0593,-5.0464,-5.0345,-5.0319,-5.0317,-5.03,-5.0192,-5.0233,-5.0265,-3.3394,-3.3112,-3.3334,-3.3005,-3.2394,-3.2709,-3.314,-3.371,-3.3827,-3.3862,-3.3817,-3.3449,-3.2971,-3.2454,-3.265,-3.2776,-3.2929,-3.3684,-3.4484,-3.5218,-3.5624,-3.6067,-3.6495,-3.6519,-3.6407,-3.6242,-3.6288,-3.6787,-3.7626,-3.7801,-3.8241,-3.8908,-3.9415,-3.9478,-3.9006,-3.8101,-3.8171,-3.9292,-3.9199,-3.9417,-3.9993,-4.0342,-4.0418,-4.0152,-4.0351,-3.9998,-3.9096,-3.8866,-3.8782,-3.8958,-3.8631,-3.859,-3.8817,-3.8979,-3.8708,0.0,0.0,0.0,0.0,0.0,0.0,0.0,0.0,0.0,0.0,0.0,-3.9914,-3.934,-4.0182,-4.0598,-4.0187,-4.0766,-4.0984,-4.0572,-4.1149,-4.1576,-4.1625,-4.241,-4.2939,-4.2917,-4.3365,-4.3786,-4.4035,-4.4637,-4.5098,-4.5264,-4.5037,-4.4889,-4.5008,-4.5173,-4.5334,-4.542,-4.5516,-4.5607,-4.5616,-4.6045,-4.6484,-4.6959,-4.7348,-4.7754,-4.8281,-4.8847,-4.9349,-4.9684,-4.988,-5.0052,-5.0187,-4.9888,-4.9655,-4.9572,-4.9391,-4.9458,-4.9781,-4.9969,-5.0021,-3.3474,-3.3256,-3.3584,-3.3158,-3.2295,-3.2295,-3.2672,-3.3351,-3.3584,-3.3664,-3.3532,-3.3364,-3.3315,-3.3407,-3.3809,-3.3809,-3.363,-3.5167,-3.5707,-3.5433,-3.6779,-3.7394,-3.7447,-3.7375,-3.7398,-3.7529,-3.7066,-3.7294,-3.8182,-3.8178,-3.8496,-3.9011,-3.9848,-4.0228,-4.0065,-3.9631,-3.9346,-3.9241,-3.9736,-4.014,-4.0399,-4.0587,-4.0407,-3.99,-3.9997,-3.9527,-3.8295,-3.8421,-3.8534,-3.8642,-3.8672,-3.8784,-3.8936,-3.9009,-3.8562,0.0,-3.7548,0.0,0.0,0.0,0.0,0.0,0.0,0.0,0.0,-3.9994,-4.0207,-4.0031,-4.0741,-4.0868,-4.0127,-4.0674,-4.0913,-4.0491,-4.0903,-4.1383,-4.193,-4.2709,-4.3342,-4.3731,-4.4136,-4.4363,-4.437,-4.491,-4.5094,-4.4794,-4.496,-4.518,-4.5708,-4.5804,-4.5822,-4.5824,-4.5419,-4.5125,-4.5179,-4.5664,-4.6191,-4.6778,-4.7239,-4.7951,-4.8369,-4.9017,-4.9538,-4.9548,-4.9622,-4.9792,-4.9906,-4.9375,-4.8995,-4.8978,-4.8613,-4.858,-4.9291,-4.9707,-4.9826,-3.3292,-3.2771,-3.3084,-3.2656,-3.1771,-3.1771,-3.1958,-3.2303,-3.2621,-3.2994,-3.3369,-3.3338,-3.3499,-3.3866,-3.3958,-3.4188,-3.4521,-3.5086,-3.566,-3.6174,-3.6251,-3.6403,-3.6573,-3.6177,-3.5795,-3.5485,-3.6787,-3.7554,-3.7759,-3.9416,-4.0012,-3.9642,-4.0497,-4.0458,-3.9536,0.0,0.0,0.0,-3.9617,-4.014,-4.0385,-4.0587,-4.0492,-4.0067,-4.0081,0.0,-3.8521,-3.8475,-3.8318,-3.8032,-3.7979,0.0,0.0,0.0,0.0,0.0,0.0,0.0,0.0,0.0,0.0,0.0,-4.0059,-4.0286,-4.0147,-4.0095,-4.0117,-4.0242,-4.0399,-4.0484,-4.0416,-4.1065,-4.1382,-4.1087,-4.1791,-4.2266,-4.219,-4.2444,-4.2707,-4.2763,-4.2867,-4.305,-4.3402,-4.3521,-4.3675,-4.3933,-4.3878,-4.3845,-4.3977,-4.4666,-4.5164,-4.5277,-4.4794,-4.4417,-4.4554,-4.4325,-4.462,-4.5377,-4.585,-4.6472,-4.7304,-4.7761,-4.8015,-4.8149,-4.815,-4.8282,-4.8431,-4.8299,-4.8282,-4.8363,-4.8295,-4.8278,-4.8479,-4.8807,-4.9015,-3.3219,0.0,-3.2865,-3.2569,0.0,-3.1826,-3.1914,-3.238,-3.2442,-3.2807,-3.3281,-3.3281,-3.3419,-3.3671,-3.4165,-3.4498,-3.4647,-3.569,-3.6162,-3.6223,-3.6761,-3.6932,-3.6795,-3.6795,-3.6672,-3.6427,-3.7196,-3.7737,-3.8144,-3.9079,-3.9508,-3.9555,-4.0272,-4.035,-3.978,-4.0187,-4.0066,-3.9381,-3.9944,-4.0284,-4.0544,-4.0659,-4.0449,-3.9984,0.0,0.0,0.0,0.0,0.0,0.0,0.0,0.0,0.0,0.0,0.0,-3.8794,-3.8916,-3.8967,-3.8982,-3.9323,-3.9628,-3.9967,-4.029,-4.0455,-4.0401,-4.0296,-4.0296,-4.0416,-4.0708,-4.0819,-4.0551,-4.1295,-4.1663,-4.1268,-4.1724,-4.212,-4.2255,-4.2423,-4.2634,-4.2905,-4.3038,-4.3165,-4.3392,-4.3376,-4.3481,-4.3671,-4.3621,-4.3535,-4.3563,-4.3897,-4.4221,-4.4407,-4.4232,-4.4106,-4.4234,-4.422,-4.4343,-4.5325,-4.5774,-4.6122,-4.6648,-4.6995,-4.7227,-4.7308,-4.7308,-4.744,-4.7885,-4.8049,-4.8115,-4.8195,-4.8356,-4.85,-4.8517,-4.866,-4.8803,-3.3318,-3.3726,-3.2951,-3.2787,-3.3048,-3.2132,-3.2152,-3.2727,0.0,0.0,0.0,-3.3373,-3.3407,-3.3488,-3.4527,-3.4889,-3.4771,-3.6309,-3.6802,-3.6375,-3.7376,-3.7553,-3.7084,-3.7505,-3.7733,-3.7798,-3.7755,-3.8117,-3.8828,-3.8833,-3.9125,-3.964,-4.0214,-4.0445,-4.035,-4.0476,-4.0357,-4.0037,-4.0241,-4.0515,-4.0702,-4.0702,-4.0407,-3.9886,-3.9997,-3.9329,-3.7753,-3.7837,-3.7996,-3.8135,-3.8024,-3.8344,-3.9234,-3.9799,-3.9719,-3.89,-3.9318,-3.9659,-3.9693,-3.9693,-3.9905,-4.0459,-4.0489,-4.0489,-4.0489,-4.0489,-4.0489,-4.0489,-4.1078,-4.112,-4.0566,-4.126,-4.1626,-4.1151,-4.1323,-4.1708,-4.2145,-4.2374,-4.2611,-4.3079,-4.3229,-4.3411,-4.3348,-4.3332,-4.3411,-4.3411,-4.3318,-4.3445,-4.3493,-4.3494,-4.3642,-4.3848,-4.3828,-4.3827,-4.4013,-4.407,-4.4641,-4.5242,-4.5669,-4.6028,-4.634,-4.6585,-4.6781,-4.7207,-4.7044,-4.7243,-4.7836,-4.8115,-4.8195,-4.8243,-4.8415,-4.8616,-4.8616,-4.8529,-4.8526,-3.3609,-3.3781,-3.365,-3.3399,-3.3027,-3.2503,-3.2377,-3.2555,-3.2752,-3.298,-3.3304,-3.3729,-3.3901,-3.3947,-3.5242,-3.5829,-3.5823,-3.6508,-3.7032,0.0,-3.7352,-3.7024,-3.6531,-3.6591,-3.6793,-3.7108,-3.818,-3.9062,-3.9849,-4.0884,-4.1274,-4.0914,-4.1449,-4.1476,-4.0947,-4.0405,-4.0049,-4.0009,-4.0241,-4.0515,-4.0702,-4.0702,-4.0492,-4.0081,-4.0081,-3.985,-3.9216,-3.9213,-3.9322,-3.9436,-3.8885,-3.892,-3.9561,-3.9458,-3.9474,-3.9782,-4.0132,-4.0351,-4.0351,-4.0336,-4.0397,-4.0474,-4.0489,-4.0489,-4.0489,-4.0489,-4.0489,-4.0505,-4.0612,-4.0612,-4.0505,-4.0666,-4.0938,-4.1086,-4.1156,-4.1402,-4.1926,-4.2023,-4.2121,-4.233,-4.2316,-4.2364,-4.2411,-4.2395,-4.2411,-4.238,-4.2507,-4.2461,-4.2717,-4.3202,-4.3714,-4.3849,-4.3558,-4.3406,-4.3491,-4.317,-4.3506,-4.4248,-4.4555,-4.5156,-4.6367,-4.6237,-4.6336,-4.7538,-4.716,-4.721,-4.7819,-4.8131,-4.8226,-4.8336,-4.814,-4.7925,-4.7997,-4.7571,-4.7551,-3.3447,-3.377,-3.3508,-3.3431,-3.3474,-3.3281,-3.3057,-3.2886,-3.3044,-3.3181,-3.3304,-3.3522,-3.3614,-3.3733,-3.4692,-3.5223,-3.539,-3.6034,-3.6554,-3.69,-3.684,-3.6651,-3.6423,-3.6715,-3.7121,-3.7772,-3.8743,-3.9437,-3.9954,-4.0694,-4.0865,-4.0635,-4.1044,-4.1254,-4.1287,-4.0931,-4.0697,-4.0727,-4.096,-4.0923,-4.0716,-4.1025,-4.0941,-4.0435,-4.0407,-4.0209,-3.9684,-3.9656,-3.9765,-3.9892,-3.9288,-3.9327,-4.0203,-4.0203,-4.0182,-4.0202,-4.0769,-4.0905,-4.0505,-4.0489,-4.0489,-4.0489,-4.0489,-4.0489,-4.0489,-4.0489,-4.0489,-4.0489,-4.0489,-4.0489,-4.0524,-4.0851,-4.1156,-4.1372,-4.1687,-4.2029,-4.2238,-4.2206,-4.2206,-4.2254,-4.219,-4.2077,-4.2077,-4.2077,-4.2077,-4.2109,-4.2174,-4.2333,-4.2476,-4.2832,-4.3184,-4.3347,-4.325,-4.3247,-4.3355,-4.3266,-4.3532,-4.4327,-4.4474,-4.4799,-4.5586,-4.5367,-4.5551,-4.6068,-4.6267,-4.6778,-4.7451,-4.8107,-4.8314,-4.7991,-4.7928,-4.768,-4.7365,-4.7065,-4.7162,-3.3351,-3.377,-3.3508,-3.3551,-3.3825,-3.4113,-3.3877,-3.3245,-3.3486,-3.3499,-3.3315,-3.3384,-3.3396,-3.3388,-3.4206,-3.4668,-3.4875,-3.5521,-3.6036,-3.6386,-3.6278,-3.6281,-3.6432,-3.6884,-3.7568,-3.8424,-3.9112,-3.9632,-4.0064,-4.0313,-4.0518,-4.0672,-4.0882,-4.1279,-4.181,-4.1581,-4.1444,-4.1318,-4.1651,-4.146,-4.0744,-4.1179,-4.1165,-4.0744,-4.0702,-4.0463,-4.0027,-4.0125,-4.0301,-4.0499,-3.9862,-3.99,-4.0813,-4.0813,-4.0649,-4.0399,-4.0957,-4.1109,-4.0566,-4.0489,-4.0489,-4.0489,-4.0524,-4.0558,-4.0489,-4.0524,-4.0524,-4.0505,-4.0489,-4.0489,-4.0558,-4.1055,-4.1522,-4.1621,-4.2109,-4.2476,-4.2571,-4.2492,-4.2445,-4.2445,-4.2318,-4.2206,-4.2206,-4.2206,-4.2238,-4.2302,-4.2429,-4.2618,-4.2741,-4.2772,-4.2851,-4.3007,-4.3099,-4.3176,-4.3372,-4.3509,-4.3783,-4.4406,-4.4423,-4.4522,-4.4677,-4.4634,-4.4751,-4.5088,-4.5493,-4.6205,-4.7058,-4.7862,-4.8236,-4.7998,-4.7953,-4.7601,-4.6735,-4.6603,-4.6644,-3.3641,-3.3835,-3.4185,-3.4152,-3.3923,-3.4791,-3.4448,-3.3454,-3.4245,-3.4119,-3.3384,-3.374,-3.3671,-3.3492,-3.4541,-3.4948,-3.4804,-3.5103,-3.5678,-3.624,-3.5905,-3.5938,-3.637,-3.6652,-3.744,-3.8561,-3.9023,-3.9788,-4.0827,-4.0914,-4.1352,-4.2103,-4.2219,-4.2304,-4.2578,-4.23,-4.1865,-4.1332,-4.2116,-4.191,-4.0786,-4.0758,-4.0758,-4.0716,-4.0702,-4.0674,-4.0575,-4.1043,-4.142,-4.1703,-4.0944,-4.0831,-4.14,-4.0661,-4.0142,-4.0277,-4.0497,-4.0536,-4.0505,-4.0489,-4.0489,-4.0539,-4.0677,-4.0681,-4.0539,-4.0662,-4.0696,-4.0524,-4.0489,-4.0505,-4.0524,-4.0935,-4.1323,-4.1654,-4.198,-4.2238,-4.2523,-4.2602,-4.2555,-4.2571,-4.2539,-4.2571,-4.2508,-4.2523,-4.2602,-4.2775,-4.2914,-4.3052,-4.3221,-4.3281,-4.3295,-4.3402,-4.3312,-4.3221,-4.3372,-4.3509,-4.3664,-4.3747,-4.3731,-4.4009,-4.431,-4.418,-4.4062,-4.4995,-4.534,-4.568,-4.6709,-4.762,-4.7962,-4.8107,-4.7865,-4.7415,-4.6244,-4.5833,-4.5891,-3.3856,-3.424,-3.4436,-3.4536,-3.4549,-3.4511,-3.4477,-3.4351,-3.4022,-3.3809,-3.3706,-3.3625,-3.3465,-3.3365,-3.4009,-3.4318,-3.4431,-3.4617,-3.5127,-3.5807,-3.5388,-3.5574,-3.637,-3.6618,-3.7381,-3.8692,-3.9256,-3.9851,-4.048,-4.0567,-4.084,-4.1288,-4.1439,-4.2012,-4.2865,-4.2607,-4.2309,-4.2099,-4.2413,-4.1966,-4.0912,-4.1053,-4.1067,-4.0744,-4.0702,-4.0702,-4.0674,-4.0534,-4.0768,-4.1271,-4.0353,-4.0168,-4.1046,-4.0389,-4.0101,-4.0277,-4.042,-4.0489,-4.0489,-4.0489,-4.0489,-4.0489,-4.0696,-4.073,-4.0524,-4.0696,-4.073,-4.0539,-4.0489,-4.0593,-4.0833,-4.1205,-4.1522,-4.1867,-4.2206,-4.2445,-4.2571,-4.2602,-4.2602,-4.2602,-4.2602,-4.2602,-4.2602,-4.2696,-4.2883,-4.3115,-4.3251,-4.3342,-4.3462,-4.3522,-4.3539,-4.3568,-4.3462,-4.3432,-4.3509,-4.3552,-4.3598,-4.3615,-4.3615,-4.3797,-4.391,-4.3863,-4.3923,-4.47,-4.4884,-4.5238,-4.5954,-4.715,-4.7831,-4.7845,-4.7085,-4.638,-4.5805,-4.5405,-4.5264,-3.3888,-3.4271,-3.4327,-3.4581,-3.498,-3.4499,-3.4541,-3.4763,-3.4051,-3.3752,-3.3752,-3.343,-3.3281,-3.3342,-3.3481,-3.3779,-3.4075,-3.4261,-3.4684,-3.534,-3.5101,-3.5527,-3.6464,-3.683,-3.7614,-3.8695,-3.9371,-3.9829,-4.0173,-4.0468,-4.0741,-4.1164,-4.1252,-4.1921,-4.304,-4.2848,-4.2486,-4.2317,-4.2317,-4.1783,-4.087,-4.0969,-4.0983,-4.073,-4.0702,-4.0617,-4.0449,-4.0309,-4.0386,-4.0706,-3.9964,-3.9894,-4.0676,-4.0288,-4.0101,-4.0347,-4.042,-4.0489,-4.0489,-4.0489,-4.0489,-4.0524,-4.073,-4.0799,-4.0662,-4.078,-4.0765,-4.0627,-4.0539,-4.0662,-4.1055,-4.139,-4.172,-4.2061,-4.2397,-4.2602,-4.2602,-4.2602,-4.2602,-4.2602,-4.2602,-4.2634,-4.2696,-4.2852,-4.3084,-4.3312,-4.3419,-4.3479,-4.3568,-4.3598,-4.3615,-4.3615,-4.3598,-4.3598,-4.3615,-4.3598,-4.3615,-4.3615,-4.3615,-4.3628,-4.3645,-4.3691,-4.3763,-4.4445,-4.4732,-4.519,-4.5727,-4.6743,-4.7661,-4.7153,-4.6561,-4.5986,-4.5794,-4.5354,-4.5054,-3.3695,-3.3813,-3.3835,-3.4296,-3.5024,-3.5134,-3.4892,-3.4422,-3.4514,-3.4188,-3.3442,-3.3304,-3.3281,-3.3281,-3.3342,-3.363,-3.4075,-3.4125,-3.4382,-3.4907,-3.5344,-3.5943,-3.67,-3.7407,-3.8141,-3.8836,-3.919,-3.9644,-4.0205,-4.0918,-4.1791,-4.2509,-4.2129,-4.2496,-4.3185,-4.2781,-4.2261,-4.1783,-4.1671,-4.1334,-4.0702,-4.014,-4.0154,-4.0547,-4.0674,-4.0364,-4.0013,-4.0773,-4.0918,-4.0191,-4.0368,-4.0664,-4.0889,-4.036,-4.0172,-4.0436,-4.0489,-4.0489,-4.0489,-4.0489,-4.0489,-4.0524,-4.0848,-4.1,-4.0799,-4.095,-4.1,-4.0814,-4.0643,-4.0696,-4.1088,-4.1439,-4.1737,-4.2109,-4.2413,-4.2571,-4.2602,-4.2602,-4.2602,-4.2602,-4.2634,-4.2696,-4.2868,-4.299,-4.319,-4.3372,-4.3492,-4.3598,-4.3598,-4.3615,-4.3615,-4.3615,-4.3615,-4.3615,-4.3615,-4.3615,-4.3615,-4.3615,-4.3628,-4.3658,-4.3767,-4.3889,-4.4031,-4.4155,-4.4378,-4.4829,-4.5539,-4.6324,-4.7111,-4.714,-4.6874,-4.645,-4.5857,-4.576,-4.5411,-3.3856,-3.4261,-3.4261,-3.4362,-3.446,-3.4454,-3.4418,-3.435,-3.3982,-3.3821,-3.3706,-3.3419,-3.3281,-3.3281,-3.3281,-3.358,-3.4075,-3.4075,-3.4359,-3.4835,-3.5548,-3.6156,-3.6756,-3.7638,-3.8323,-3.8863,-3.9158,-3.94,-3.9604,-4.0086,-4.0546,-4.0921,-4.1077,-4.1479,-4.2104,-4.2078,-4.1826,-4.1615,-4.125,-4.073,-4.014,-3.9521,-3.9352,-3.9563,-3.9563,-3.9647,-3.9774,-3.9651,-3.9711,-4.0217,-3.9885,-3.992,-4.0467,-4.0399,-4.0366,-4.0489,-4.0489,-4.0489,-4.0489,-4.0489,-4.0489,-4.0524,-4.0848,-4.1049,-4.0901,-4.1037,-4.1138,-4.1018,-4.0932,-4.1102,-4.1454,-4.1604,-4.1802,-4.2302,-4.2539,-4.2602,-4.2602,-4.2602,-4.2602,-4.2602,-4.2696,-4.2852,-4.3007,-4.3174,-4.3342,-4.3509,-4.3568,-4.3598,-4.3615,-4.3615,-4.3615,-4.3615,-4.3615,-4.3615,-4.3615,-4.3615,-4.3615,-4.3658,-4.3687,-4.3793,-4.3885,-4.4002,-4.4143,-4.4281,-4.435,-4.4626,-4.5394,-4.5818,-4.6623,-4.7037,-4.6758,-4.6174,-4.5823,-4.5473,-4.5111,-3.4076,-3.4479,-3.4579,-3.4527,-3.4314,-3.4314,-3.4294,-3.4216,-3.3758,-3.3625,-3.3694,-3.3419,-3.3281,-3.3281,-3.3281,-3.3542,-3.3927,-3.4075,-3.4457,-3.5102,-3.5858,-3.6581,-3.7222,-3.805,-3.8639,-3.9011,-3.9203,-3.9305,-3.9363,-3.9567,-3.9914,-4.0313,-4.0366,-4.0779,-4.1459,-4.1432,-4.132,-4.1235,-4.0898,-4.0407,-3.9788,-3.9211,-3.8916,-3.8888,-3.8719,-3.8775,-3.9197,-3.8956,-3.9032,-3.9571,-3.9483,-3.9655,-4.0222,-4.0436,-4.0489,-4.0489,-4.0489,-4.0489,-4.0489,-4.0489,-4.0489,-4.0539,-4.0864,-4.1034,-4.095,-4.1171,-4.1239,-4.1187,-4.1153,-4.1388,-4.1735,-4.1817,-4.1996,-4.2476,-4.2602,-4.2602,-4.2602,-4.2602,-4.2634,-4.2728,-4.2852,-4.3007,-4.319,-4.3312,-4.3432,-4.3552,-4.3615,-4.3615,-4.3615,-4.3615,-4.3615,-4.3615,-4.3615,-4.3615,-4.3645,-4.3674,-4.3734,-4.3763,-4.3776,-4.3881,-4.4027,-4.4126,-4.427,-4.439,-4.4564,-4.4788,-4.5103,-4.5521,-4.5998,-4.6567,-4.6158,-4.5495,-4.5218,-4.501,-4.4817,-3.4255,-3.4524,-3.4813,-3.4736,-3.4486,-3.475,-3.4603,-3.3959,-3.3935,-3.366,-3.3384,-3.3281,-3.3281,-3.3281,-3.3281,-3.3431,-3.3729,-3.3977,-3.4592,-3.5523,-3.6332,-3.7188,-3.8063,-3.8594,-3.9011,-3.9261,-3.9305,-3.9305,-3.9305,-3.9567,-4.0065,-4.0645,-4.0477,-4.078,-4.1573,-4.1053,-4.0758,-4.073,-4.0631,-4.0266,-3.9774,-3.9099,-3.8761,-3.8775,-3.8271,-3.8072,-3.8086,-3.8996,-3.9254,-3.8858,-3.9535,-4.0074,-4.0298,-4.0436,-4.0489,-4.0489,-4.0489,-4.0489,-4.0489,-4.0489,-4.0489,-4.0574,-4.0864,-4.1083,-4.1117,-4.1205,-4.1323,-4.1323,-4.1323,-4.1505,-4.185,-4.2029,-4.2222,-4.2523,-4.2602,-4.2634,-4.2602,-4.2602,-4.2665,-4.2868,-4.3037,-4.319,-4.3342,-4.3402,-4.3479,-4.3568,-4.3615,-4.3615,-4.3615,-4.3615,-4.3615,-4.3615,-4.3598,-4.3598,-4.3674,-4.378,-4.3839,-4.391,-4.3939,-4.3998,-4.4184,-4.4327,-4.4485,-4.462,-4.479,-4.5002,-4.5207,-4.5545,-4.56,-4.5853,-4.5265,-4.5046,-4.4984,-4.4895,-4.4777,-3.4423,-3.448,-3.4428,-3.4227,-3.3879,-3.4009,-3.3725,-3.3281,-3.341,-3.3419,-3.3304,-3.3281,-3.3281,-3.3281,-3.3281,-3.3331,-3.3481,-3.3878,-3.4628,-3.5619,-3.6534,-3.742,-3.82,-3.889,-3.9189,-3.9305,-3.9305,-3.9305,-3.9349,-3.9554,-3.9942,-4.0217,-4.0352,-4.0612,-4.0953,-4.08,-4.0702,-4.0603,-3.9859,-3.938,-3.9099,-3.8171,-3.7779,-3.8145,-3.8004,-3.8194,-3.8968,-3.9581,-3.9697,-3.9325,-4.0188,-4.0592,-4.0469,-4.0455,-4.0489,-4.0489,-4.0489,-4.0489,-4.0489,-4.0489,-4.0489,-4.0574,-4.0864,-4.1083,-4.1151,-4.1339,-4.1489,-4.1522,-4.1637,-4.1817,-4.1996,-4.219,-4.2365,-4.2571,-4.2744,-4.2744,-4.273,-4.276,-4.2883,-4.3021,-4.319,-4.3312,-4.3419,-4.3495,-4.3539,-4.3598,-4.3615,-4.3615,-4.3615,-4.3615,-4.3615,-4.3615,-4.3598,-4.3691,-4.378,-4.3935,-4.4119,-4.4106,-4.4097,-4.4126,-4.4327,-4.4525,-4.4709,-4.4858,-4.5042,-4.5192,-4.5397,-4.551,-4.552,-4.5451,-4.525,-4.5101,-4.5022,-4.4923,-4.4831,-3.4356,-3.4647,-3.4427,-3.4155,-3.3805,-3.377,-3.3475,-3.3126,-3.3242,-3.3281,-3.3281,-3.3281,-3.3281,-3.3281,-3.3281,-3.3281,-3.3331,-3.3866,-3.4726,-3.5833,-3.6675,-3.7513,-3.8349,-3.8993,-3.9305,-3.9305,-3.9305,-3.9305,-3.9305,-3.9452,-3.9672,-3.9892,-4.0168,-4.0385,-4.0587,-4.0645,-4.0702,-4.0561,-3.9746,-3.9127,-3.8747,-3.7864,-3.7498,-3.785,-3.7906,-3.8342,-3.9085,-3.9737,-4.0071,-4.0069,-4.0538,-4.0674,-4.0501,-4.0489,-4.0489,-4.0489,-4.0489,-4.0489,-4.0489,-4.0489,-4.0489,-4.0574,-4.0864,-4.1083,-4.1151,-4.1421,-4.1588,-4.1621,-4.1801,-4.1996,-4.2109,-4.2333,-4.2508,-4.2602,-4.2713,-4.2889,-4.302,-4.3353,-4.3704,-4.3957,-4.3981,-4.3908,-4.3889,-4.3638,-4.3631,-4.3615,-4.3615,-4.3615,-4.3615,-4.3615,-4.3598,-4.3744,-4.3929,-4.3969,-4.3935,-4.4119,-4.4353,-4.4335,-4.4253,-4.4327,-4.444,-4.4682,-4.4892,-4.5049,-4.523,-4.5247,-4.5446,-4.5438,-4.543,-4.5318,-4.5247,-4.5167,-4.5086,-4.5005,-4.494,-3.4199,-3.4914,-3.472,-3.4432,-3.4245,-3.4011,-3.3671,-3.3338,-3.3281,-3.3281,-3.3281,-3.3281,-3.3281,-3.3281,-3.3281,-3.3331,-3.3431,-3.3828,-3.486,-3.6023,-3.6837,-3.7618,-3.8634,-3.9114,-3.9305,-3.9305,-3.9305,-3.9305,-3.9305,-3.9349,-3.9452,-3.973,-3.9922,-4.014,-4.0428,-4.0587,-4.0702,-4.0603,-4.0055,-3.9507,-3.8986,-3.8215,-3.7934,-3.799,-3.7948,-3.8215,-3.8878,-3.9755,-4.0268,-4.0397,-4.0548,-4.0532,-4.0505,-4.0489,-4.0489,-4.0489,-4.0489,-4.0489,-4.0489,-4.0489,-4.0489,-4.0539,-4.083,-4.1117,-4.1135,-4.1339,-4.1555,-4.1621,-4.1883,-4.2077,-4.2142,-4.2381,-4.2555,-4.2618,-4.2696,-4.3035,-4.3794,-4.414,-4.4329,-4.4869,-4.4927,-4.4589,-4.4406,-4.3926,-4.3711,-4.3674,-4.3674,-4.3687,-4.3687,-4.3717,-4.3658,-4.3853,-4.4129,-4.4151,-4.4077,-4.4219,-4.4435,-4.4529,-4.4592,-4.4846,-4.4835,-4.5069,-4.5108,-4.5289,-4.5344,-4.5371,-4.5397,-4.5397,-4.5414,-4.5371,-4.5318,-4.5247,-4.5194,-4.5157,-4.513,-3.4769,-3.4958,-3.4535,-3.4362,-3.423,-3.3702,-3.3407,-3.3292,-3.3281,-3.3281,-3.3281,-3.3281,-3.3281,-3.3281,-3.3281,-3.3431,-3.363,-3.3927,-3.4775,-3.5976,-3.6777,-3.7867,-3.8904,-3.9216,-3.9305,-3.9305,-3.9305,-3.9305,-3.9305,-3.9305,-3.9438,-3.9686,-3.9878,-4.0097,-4.0385,-4.0587,-4.0702,-4.0617,-4.0083,-3.9718,-3.9451,-3.8454,-3.8159,-3.8579,-3.8145,-3.8504,-3.9555,-4.0357,-4.0776,-4.0801,-4.0613,-4.0505,-4.0489,-4.0489,-4.0489,-4.0489,-4.0489,-4.0489,-4.0489,-4.0489,-4.0489,-4.0539,-4.0746,-4.0966,-4.1102,-4.1272,-4.1456,-4.1621,-4.1867,-4.2077,-4.2142,-4.2397,-4.2649,-4.2929,-4.2883,-4.3059,-4.361,-4.3715,-4.3828,-4.4051,-4.4078,-4.4029,-4.3992,-4.3933,-4.3809,-4.3839,-4.3881,-4.3952,-4.3894,-4.3894,-4.3894,-4.3952,-4.4127,-4.4198,-4.4251,-4.4392,-4.4529,-4.4699,-4.5015,-4.5603,-4.5631,-4.5702,-4.5603,-4.5516,-4.5405,-4.5397,-4.5397,-4.5414,-4.5414,-4.5483,-4.5388,-4.5335,-4.5361,-4.5335,-4.5291,-3.4813,-3.5124,-3.4561,-3.4407,-3.4386,-3.3655,-3.3281,-3.3281,-3.3281,-3.3281,-3.3281,-3.3281,-3.3281,-3.3281,-3.3281,-3.3442,-3.3741,-3.3977,-3.4823,-3.6118,-3.7335,-3.8413,-3.9114,-3.9305,-3.9305,-3.9305,-3.9305,-3.9305,-3.9305,-3.9305,-3.9407,-3.954,-3.9834,-4.0097,-4.0241,-4.053,-4.0702,-4.0603,-4.0112,-3.9774,-3.969,-3.8833,-3.8355,-3.848,-3.81,-3.847,-3.9377,-4.0157,-4.0715,-4.0898,-4.0714,-4.0489,-4.0489,-4.0489,-4.0489,-4.0489,-4.0489,-4.0489,-4.0489,-4.0489,-4.0489,-4.0524,-4.0696,-4.0833,-4.0984,-4.1156,-4.1374,-4.1456,-4.1851,-4.2045,-4.2142,-4.2397,-4.2774,-4.3129,-4.3099,-4.3291,-4.3949,-4.4018,-4.4167,-4.4327,-4.4274,-4.4075,-4.4042,-4.3992,-4.3885,-4.391,-4.3998,-4.4039,-4.4068,-4.4097,-4.4126,-4.4126,-4.4294,-4.4452,-4.451,-4.4601,-4.4715,-4.4869,-4.5388,-4.601,-4.6236,-4.6227,-4.5873,-4.5646,-4.5518,-4.5466,-4.5587,-4.5656,-4.5673,-4.569,-4.5552,-4.5569,-4.5638,-4.5432,-4.5414,-3.4669,-3.531,-3.4645,-3.4489,-3.4503,-3.3717,-3.3281,-3.3281,-3.3281,-3.3281,-3.3281,-3.3281,-3.3281,-3.3281,-3.3281,-3.3481,-3.379,-3.4125,-3.515,-3.6555,-3.7946,-3.8966,-3.9158,-3.9305,-3.9305,-3.9305,-3.9305,-3.9305,-3.9305,-3.9305,-3.9305,-3.9438,-3.9791,-3.9966,-4.014,-4.0473,-4.0702,-4.0617,-4.0252,-3.9999,-3.9887,-3.9311,-3.8819,-3.8494,-3.8272,-3.8278,-3.8823,-3.9535,-4.034,-4.1087,-4.0727,-4.0536,-4.0489,-4.0489,-4.0489,-4.0489,-4.0489,-4.0489,-4.0489,-4.0489,-4.0489,-4.0524,-4.0662,-4.0799,-4.0916,-4.1088,-4.129,-4.139,-4.1818,-4.2077,-4.2238,-4.246,-4.2867,-4.3281,-4.3281,-4.3655,-4.4343,-4.4633,-4.4868,-4.5417,-4.4887,-4.4638,-4.4483,-4.4241,-4.3927,-4.3998,-4.4114,-4.4258,-4.4286,-4.4286,-4.427,-4.4241,-4.4493,-4.48,-4.482,-4.4827,-4.4936,-4.5106,-4.5732,-4.6309,-4.6653,-4.6563,-4.6092,-4.587,-4.6224,-4.6268,-4.6086,-4.6104,-4.6,-4.5914,-4.5811,-4.5975,-4.6096,-4.5604,-4.5414,-3.5133,-3.5162,-3.4827,-3.4503,-3.4108,-3.3545,-3.3281,-3.3281,-3.3281,-3.3281,-3.3281,-3.3281,-3.3281,-3.3281,-3.3331,-3.353,-3.4026,-3.4543,-3.5596,-3.7248,-3.8323,-3.8863,-3.9056,-3.9203,-3.9305,-3.9305,-3.9305,-3.9319,-3.9332,-3.9386,-3.9319,-3.9421,-3.9829,-4.0009,-4.0097,-4.0443,-4.0702,-4.0688,-4.0533,-4.0463,-4.035,-3.9901,-3.9535,-3.9281,-3.8985,-3.8779,-3.8907,-3.9553,-4.0197,-4.0489,-4.0562,-4.0489,-4.0489,-4.0489,-4.0489,-4.0489,-4.0489,-4.0489,-4.0489,-4.0489,-4.0489,-4.0489,-4.0558,-4.0696,-4.1016,-4.1102,-4.1272,-4.1538,-4.1883,-4.2206,-4.246,-4.2696,-4.3068,-4.3402,-4.3522,-4.3707,-4.4165,-4.4068,-4.4072,-4.4092,-4.4075,-4.3847,-4.3893,-4.4094,-4.4027,-4.4085,-4.4258,-4.4457,-4.4485,-4.4457,-4.4429,-4.4355,-4.4501,-4.4754,-4.4766,-4.4818,-4.4993,-4.5245,-4.586,-4.6423,-4.6766,-4.7362,-4.7069,-4.7052,-4.7279,-4.701,-4.6328,-4.6293,-4.6155,-4.613,-4.6044,-4.5949,-4.5845,-4.5535,-4.5432,-3.5321,-3.5375,-3.5001,-3.4636,-3.428,-3.3614,-3.3281,-3.3281,-3.3281,-3.3281,-3.3281,-3.3281,-3.3281,-3.3281,-3.3342,-3.358,-3.4261,-3.5163,-3.6216,-3.7459,-3.8349,-3.8787,-3.8953,-3.9158,-3.9305,-3.9305,-3.9305,-3.9427,-3.9644,-3.9685,-3.9753,-3.9757,-4.0161,-4.0258,-4.0124,-4.0473,-4.0702,-4.0702,-4.0702,-4.0702,-4.0631,-4.0407,-4.0181,-3.9924,-3.9546,-3.9288,-4.0055,-3.9947,-4.038,-4.0758,-4.0689,-4.0505,-4.0489,-4.0489,-4.0489,-4.0489,-4.0489,-4.0489,-4.0489,-4.0489,-4.0489,-4.0489,-4.0558,-4.0746,-4.095,-4.1086,-4.1239,-4.1489,-4.1851,-4.227,-4.2696,-4.2883,-4.3221,-4.3535,-4.3625,-4.3805,-4.4051,-4.3923,-4.3734,-4.3734,-4.3724,-4.3678,-4.3704,-4.3923,-4.4039,-4.4097,-4.4344,-4.4542,-4.4542,-4.4542,-4.4542,-4.4542,-4.4542,-4.4621,-4.4637,-4.4766,-4.499,-4.5326,-4.5799,-4.6308,-4.6694,-4.7496,-4.8252,-4.7993,-4.7517,-4.6751,-4.6173,-4.6224,-4.6379,-4.631,-4.6173,-4.5862,-4.5673,-4.5638,-4.5518,-3.5278,-3.5611,-3.5047,-3.4716,-3.4452,-3.3637,-3.3281,-3.3281,-3.3281,-3.3281,-3.3281,-3.3281,-3.3281,-3.3281,-3.3381,-3.3729,-3.464,-3.5644,-3.6747,-3.7598,-3.8239,-3.8621,-3.8832,-3.9069,-3.9261,-3.9305,-3.9305,-3.9563,-3.9834,-4.0024,-3.9821,-4.006,-4.0477,-4.0338,-4.0152,-4.0443,-4.0702,-4.0702,-4.0702,-4.0702,-4.0702,-4.0631,-4.0548,-4.0228,-3.9985,-4.0099,-4.08,-4.0825,-4.0812,-4.1627,-4.112,-4.0812,-4.0643,-4.0505,-4.0489,-4.0489,-4.0489,-4.0489,-4.0489,-4.0489,-4.0489,-4.0489,-4.0696,-4.0892,-4.1075,-4.1232,-4.14,-4.1649,-4.1994,-4.2365,-4.2868,-4.3068,-4.3355,-4.3684,-4.373,-4.3789,-4.401,-4.3998,-4.3898,-4.3793,-4.3734,-4.3704,-4.3763,-4.3894,-4.401,-4.4155,-4.4412,-4.4598,-4.4598,-4.4598,-4.4598,-4.4609,-4.4637,-4.472,-4.4748,-4.4865,-4.5097,-4.5573,-4.5959,-4.6389,-4.6861,-4.7765,-4.8407,-4.7875,-4.7341,-4.6938,-4.6707,-4.6793,-4.6828,-4.6621,-4.6155,-4.5707,-4.5638,-4.5742,-4.5638,-3.517,-3.4932,-3.4877,-3.4326,-3.3591,-3.3338,-3.3281,-3.3281,-3.3281,-3.3281,-3.3281,-3.3281,-3.3281,-3.3342,-3.358,-3.4347,-3.5343,-3.6168,-3.6888,-3.7644,-3.8135,-3.844,-3.8666,-3.889,-3.9069,-3.9261,-3.9305,-3.9369,-3.9522,-3.9441,-3.9658,-3.9611,-4.0024,-4.0134,-4.0196,-4.043,-4.0702,-4.0702,-4.0702,-4.0702,-4.0702,-4.0716,-4.0704,-4.058,-4.0513,-4.093,-4.1383,-4.1662,-4.191,-4.2329,-4.2309,-4.1909,-4.1355,-4.0797,-4.0536,-4.0489,-4.0489,-4.0489,-4.0489,-4.0489,-4.0489,-4.0558,-4.0758,-4.1243,-4.1566,-4.1628,-4.1862,-4.2177,-4.2364,-4.2539,-4.3021,-4.3235,-4.3582,-4.3848,-4.3919,-4.3889,-4.4109,-4.4085,-4.3898,-4.3793,-4.3793,-4.3793,-4.3793,-4.3864,-4.401,-4.4184,-4.4429,-4.457,-4.4598,-4.4598,-4.4598,-4.4637,-4.4703,-4.4814,-4.494,-4.5083,-4.5321,-4.5932,-4.6367,-4.6744,-4.7336,-4.8152,-4.8407,-4.8105,-4.8346,-4.862,-4.8293,-4.7569,-4.7189,-4.6914,-4.6242,-4.55,-4.5596,-4.5699,-4.5734,-3.5075,-3.5129,-3.4624,-3.4119,-3.366,-3.3373,-3.3281,-3.3281,-3.3281,-3.3281,-3.3281,-3.3281,-3.3281,-3.3381,-3.358,-3.4445,-3.5452,-3.6216,-3.6794,-3.7446,-3.7939,-3.8245,-3.8395,-3.8621,-3.8769,-3.8948,-3.9038,-3.9379,-3.9739,-3.978,-3.9712,-3.9915,-4.0244,-4.0313,-4.0138,-4.043,-4.0659,-4.0702,-4.0702,-4.0702,-4.0702,-4.0702,-4.0802,-4.1173,-4.1291,-4.1715,-4.255,-4.2212,-4.2493,-4.2842,-4.2448,-4.1986,-4.1524,-4.1016,-4.0505,-4.052,-4.052,-4.0505,-4.0505,-4.0489,-4.0489,-4.057,-4.1028,-4.1607,-4.2106,-4.2357,-4.2582,-4.2725,-4.2589,-4.2634,-4.319,-4.3446,-4.3789,-4.4064,-4.4109,-4.4138,-4.4207,-4.4138,-4.3981,-4.3805,-4.3763,-4.3763,-4.3687,-4.3835,-4.4039,-4.4212,-4.4429,-4.4514,-4.4598,-4.4598,-4.4598,-4.4654,-4.472,-4.4869,-4.5005,-4.5157,-4.5522,-4.6161,-4.6687,-4.7064,-4.7637,-4.8383,-4.8684,-4.8621,-4.9125,-4.9568,-4.8528,-4.7327,-4.7258,-4.7121,-4.631,-4.569,-4.5613,-4.564,-4.5864,-3.4849,-3.5141,-3.4337,-3.3935,-3.3798,-3.3453,-3.3281,-3.3281,-3.3281,-3.3281,-3.3281,-3.3281,-3.3331,-3.3431,-3.3767,-3.4396,-3.532,-3.6073,-3.6687,-3.7201,-3.7802,-3.8167,-3.8258,-3.8408,-3.8557,-3.8679,-3.889,-3.9253,-3.9631,-3.9803,-4.0024,-4.016,-4.0574,-4.0617,-4.036,-4.0584,-4.0672,-4.0702,-4.0702,-4.0702,-4.0702,-4.0744,-4.11,-4.1893,-4.1755,-4.2372,-4.3499,-4.3251,-4.3057,-4.315,-4.2694,-4.1955,-4.1571,-4.1028,-4.072,-4.0705,-4.0705,-4.0643,-4.0536,-4.0735,-4.0735,-4.0586,-4.1364,-4.1831,-4.225,-4.2714,-4.3244,-4.3003,-4.28,-4.2759,-4.3342,-4.3684,-4.3948,-4.4179,-4.4236,-4.4253,-4.4212,-4.4126,-4.4023,-4.3894,-4.3776,-4.3776,-4.3835,-4.3906,-4.4167,-4.4241,-4.444,-4.4542,-4.4598,-4.4598,-4.4598,-4.4688,-4.4782,-4.4913,-4.5059,-4.5194,-4.5679,-4.6352,-4.6852,-4.7296,-4.7883,-4.8499,-4.8724,-4.8993,-4.924,-4.9378,-4.8217,-4.751,-4.7569,-4.7293,-4.6397,-4.6086,-4.6389,-4.6546,-4.6729,-3.4453,-3.4176,-3.405,-3.3763,-3.3419,-3.3315,-3.3281,-3.3281,-3.3281,-3.3281,-3.3281,-3.3281,-3.3431,-3.3729,-3.4101,-3.4787,-3.5464,-3.6121,-3.6593,-3.7062,-3.7644,-3.8083,-3.8194,-3.82,-3.8429,-3.8565,-3.8782,-3.8935,-3.92,-3.9361,-3.9712,-4.0047,-4.0182,-4.0272,-4.052,-4.0693,-4.0716,-4.0716,-4.0716,-4.0702,-4.0702,-4.0702,-4.1184,-4.1811,-4.2205,-4.2727,-4.384,-4.3846,-4.3883,-4.351,-4.3439,-4.2709,-4.1848,-4.154,-4.1478,-4.1478,-4.1401,-4.1166,-4.0797,-4.092,-4.1001,-4.0716,-4.11,-4.152,-4.221,-4.2643,-4.2902,-4.2285,-4.2556,-4.3037,-4.3476,-4.3848,-4.4109,-4.4196,-4.4224,-4.4126,-4.4056,-4.4184,-4.4068,-4.4068,-4.401,-4.4056,-4.4085,-4.4167,-4.4281,-4.4338,-4.444,-4.4542,-4.4666,-4.4761,-4.4902,-4.5071,-4.5488,-4.5655,-4.5617,-4.5694,-4.5998,-4.6621,-4.7052,-4.7534,-4.8155,-4.8723,-4.9068,-4.9332,-4.9516,-4.9413,-4.8603,-4.8155,-4.8086,-4.7638,-4.6983,-4.7086,-4.7493,-4.7565,-4.7578,-3.4136,-3.397,-3.3706,-3.3476,-3.3304,-3.3281,-3.3281,-3.3281,-3.3281,-3.3281,-3.3281,-3.3281,-3.353,-3.3927,-3.4298,-3.4689,-3.5271,-3.6026,-3.6499,-3.6875,-3.7485,-3.809,-3.8352,-3.8208,-3.8208,-3.8615,-3.8703,-3.8724,-3.8845,-3.9083,-3.9481,-3.9716,-4.0093,-4.0216,-4.0498,-4.0799,-4.0751,-4.067,-4.063,-4.0716,-4.0702,-4.0773,-4.1184,-4.2129,-4.2374,-4.3061,-4.3918,-4.4343,-4.4158,-4.3685,-4.3279,-4.2602,-4.1724,-4.1278,-4.1109,-4.1617,-4.1986,-4.1817,-4.1278,-4.1124,-4.0913,-4.0959,-4.1293,-4.211,-4.2708,-4.2857,-4.2921,-4.2912,-4.286,-4.3162,-4.3625,-4.3952,-4.4109,-4.4224,-4.4196,-4.4184,-4.4097,-4.4155,-4.4184,-4.4212,-4.4258,-4.4286,-4.427,-4.4281,-4.4338,-4.4367,-4.444,-4.457,-4.4891,-4.5202,-4.5405,-4.5636,-4.6122,-4.6621,-4.655,-4.6495,-4.6601,-4.7069,-4.7327,-4.7844,-4.8448,-4.8965,-4.9361,-4.9602,-4.9775,-4.9482,-4.8947,-4.8706,-4.8499,-4.8103,-4.77,-4.7907,-4.8096,-4.8311,-4.8408,-3.4074,-3.4117,-3.3531,-3.3281,-3.3281,-3.3281,-3.3281,-3.3281,-3.3281,-3.3281,-3.3331,-3.3431,-3.3779,-3.4162,-3.4396,-3.4677,-3.4872,-3.593,-3.6323,-3.6747,-3.7384,-3.8154,-3.8344,-3.824,-3.8187,-3.8697,-3.8542,-3.857,-3.8724,-3.902,-3.9284,-3.9536,-4.0254,-4.0343,-4.0368,-4.0855,-4.1188,-4.0777,-4.0728,-4.0716,-4.0702,-4.0702,-4.1325,-4.202,-4.2618,-4.3126,-4.4112,-4.4458,-4.4249,-4.334,-4.291,-4.2279,-4.1355,-4.0858,-4.0951,-4.1478,-4.1971,-4.1986,-4.1601,-4.1355,-4.0998,-4.1062,-4.1395,-4.204,-4.274,-4.2817,-4.2779,-4.2928,-4.3146,-4.3331,-4.3684,-4.3981,-4.4126,-4.4196,-4.4224,-4.4224,-4.4224,-4.4224,-4.4241,-4.4212,-4.4286,-4.4412,-4.4412,-4.4395,-4.4395,-4.4395,-4.4468,-4.4615,-4.4953,-4.536,-4.5478,-4.564,-4.6223,-4.6711,-4.6766,-4.6866,-4.7145,-4.7482,-4.7741,-4.8086,-4.8637,-4.9223,-4.9723,-4.9942,-5.0011,-4.9533,-4.8965,-4.893,-4.8896,-4.8568,-4.8344,-4.8441,-4.8607,-4.883,-4.9083,-3.4357,-3.4688,-3.3679,-3.3331,-3.3331,-3.3281,-3.3281,-3.3281,-3.3281,-3.3331,-3.3381,-3.3779,-3.4113,-3.4396,-3.4592,-3.4726,-3.4872,-3.593,-3.636,-3.6798,-3.7371,-3.8173,-3.8436,-3.8383,-3.8161,-3.8587,-3.8457,-3.8434,-3.8602,-3.8872,-3.9438,-4.0065,-4.0327,-4.0504,-4.069,-4.1103,-4.1373,-4.1023,-4.0867,-4.0673,-4.0702,-4.0816,-4.1311,-4.2129,-4.2563,-4.3126,-4.4243,-4.4496,-4.4095,-4.3002,-4.2709,-4.2094,-4.1186,-4.0674,-4.0874,-4.1478,-4.1848,-4.1909,-4.1786,-4.1848,-4.1723,-4.1267,-4.1198,-4.1657,-4.2062,-4.2186,-4.2238,-4.2622,-4.3027,-4.3449,-4.3772,-4.3993,-4.4138,-4.4184,-4.4196,-4.4167,-4.4196,-4.4253,-4.427,-4.4241,-4.4298,-4.4468,-4.4497,-4.4468,-4.4497,-4.4497,-4.4553,-4.4699,-4.4873,-4.5211,-4.5278,-4.548,-4.6073,-4.6447,-4.656,-4.6849,-4.7379,-4.7775,-4.8068,-4.8361,-4.8741,-4.9344,-4.9993,-5.0011,-4.9959,-4.9465,-4.9172,-4.9338,-4.9355,-4.912,-4.9016,-4.9114,-4.9235,-4.9464,-4.962,-3.4787,-3.4726,-3.4075,-3.3679,-3.353,-3.3542,-3.3431,-3.3281,-3.3281,-3.3381,-3.358,-3.4064,-3.4347,-3.4482,-3.4677,-3.4775,-3.4957,-3.5918,-3.6438,-3.6991,-3.7642,-3.8395,-3.8632,-3.8488,-3.8174,-3.8535,-3.8392,-3.8477,-3.8892,-3.8871,-3.9311,-3.9829,-4.0205,-4.0577,-4.0872,-4.1018,-4.1111,-4.1202,-4.0848,-4.0572,-4.0787,-4.1198,-4.1673,-4.24,-4.3021,-4.3615,-4.4358,-4.4549,-4.4018,-4.3371,-4.2863,-4.2094,-4.1294,-4.0828,-4.0986,-4.1601,-4.194,-4.2125,-4.2063,-4.2114,-4.1615,-4.1327,-4.1272,-4.1507,-4.1621,-4.1916,-4.2302,-4.2713,-4.3115,-4.3552,-4.4035,-4.4196,-4.4224,-4.4224,-4.4212,-4.4155,-4.4196,-4.4281,-4.4355,-4.4372,-4.4429,-4.4542,-4.457,-4.4542,-4.457,-4.4598,-4.4682,-4.4771,-4.4956,-4.5186,-4.5302,-4.5634,-4.6217,-4.6701,-4.6849,-4.7265,-4.77,-4.7982,-4.831,-4.8586,-4.8861,-4.951,-4.9993,-4.9993,-5.0011,-4.9723,-4.9666,-4.9838,-4.97,-4.9292,-4.943,-4.9786,-4.9942,-5.0011,-5.0011,-3.5307,-3.5211,-3.4604,-3.4075,-3.3729,-3.3779,-3.363,-3.3331,-3.3381,-3.358,-3.3817,-3.4237,-3.4433,-3.4531,-3.4677,-3.4932,-3.5271,-3.5968,-3.6644,-3.7155,-3.7697,-3.8467,-3.871,-3.8579,-3.8161,-3.8508,-3.8352,-3.8385,-3.8734,-3.8781,-3.9248,-3.9653,-3.9888,-4.0187,-4.0341,-4.0677,-4.0883,-4.1165,-4.1026,-4.0611,-4.0815,-4.1325,-4.1964,-4.2603,-4.322,-4.3864,-4.4381,-4.4541,-4.4255,-4.3685,-4.3162,-4.2586,-4.1925,-4.1432,-4.1324,-4.1801,-4.2294,-4.2602,-4.2448,-4.2113,-4.1682,-4.152,-4.1435,-4.162,-4.172,-4.1948,-4.2302,-4.2867,-4.3251,-4.3641,-4.4196,-4.4224,-4.4224,-4.4196,-4.4184,-4.4155,-4.427,-4.4338,-4.4468,-4.4542,-4.4587,-4.457,-4.457,-4.457,-4.457,-4.4598,-4.4626,-4.4754,-4.4981,-4.5227,-4.5517,-4.5935,-4.65,-4.6931,-4.7327,-4.7482,-4.7665,-4.7907,-4.8224,-4.8603,-4.8999,-4.9614,-4.9976,-4.9993,-5.0011,-5.0011,-4.9993,-4.9976,-4.97,-4.9327,-4.962,-5.0011,-5.0011,-5.0011,-5.0011,-3.5798,-3.6228,-3.5162,-3.4299,-3.3735,-3.3977,-3.3828,-3.3431,-3.363,-3.3866,-3.4113,-3.4347,-3.4531,-3.4726,-3.4835,-3.5126,-3.5597,-3.6231,-3.6805,-3.7266,-3.7811,-3.8311,-3.8397,-3.8318,-3.8109,-3.8436,-3.826,-3.8123,-3.8352,-3.8506,-3.9039,-3.9454,-3.9573,-3.9604,-3.9526,-4.0195,-4.0954,-4.1594,-4.1421,-4.0946,-4.1013,-4.1481,-4.2114,-4.2589,-4.3379,-4.4112,-4.4458,-4.461,-4.4317,-4.3886,-4.3578,-4.3094,-4.2586,-4.194,-4.1909,-4.2417,-4.2586,-4.2663,-4.2586,-4.2295,-4.2093,-4.1916,-4.1736,-4.1653,-4.185,-4.2061,-4.2429,-4.3021,-4.3312,-4.37,-4.3964,-4.4126,-4.4184,-4.4196,-4.4212,-4.4241,-4.4355,-4.444,-4.4542,-4.457,-4.4598,-4.4598,-4.4598,-4.4598,-4.4598,-4.4598,-4.4598,-4.4726,-4.4937,-4.5152,-4.5441,-4.5713,-4.619,-4.6362,-4.6707,-4.7293,-4.7603,-4.7827,-4.8172,-4.8603,-4.9034,-4.9562,-4.9838,-4.9959,-5.0011,-5.0011,-5.0011,-4.9993,-4.9757,-4.9602,-4.974,-5.0011,-5.0011,-5.0011,-5.0011,-3.4943,-3.4746,-3.4084,-3.3577,-3.3291,-3.3977,-3.4101,-3.3927,-3.4052,-3.42,-3.4347,-3.4531,-3.4677,-3.4884,-3.5187,-3.5416,-3.5801,-3.7061,-3.7612,-3.7715,-3.8197,-3.8481,-3.8514,-3.8214,-3.8031,-3.8083,-3.7952,-3.8155,-3.8555,-3.8424,-3.8798,-3.9285,-3.942,-3.9776,-4.0214,-4.0677,-4.0909,-4.1879,-4.1328,-4.0648,-4.1294,-4.1904,-4.243,-4.2684,-4.3654,-4.4305,-4.4572,-4.4572,-4.444,-4.4163,-4.391,-4.351,-4.3171,-4.2617,-4.2417,-4.2756,-4.291,-4.3285,-4.3189,-4.2942,-4.2552,-4.2219,-4.1846,-4.1718,-4.1898,-4.2158,-4.2618,-4.3129,-4.3452,-4.3822,-4.4138,-4.4126,-4.4155,-4.4253,-4.4281,-4.4384,-4.4468,-4.4525,-4.4598,-4.4598,-4.4598,-4.4598,-4.4598,-4.4598,-4.4598,-4.4626,-4.4626,-4.4694,-4.4912,-4.5002,-4.5172,-4.5272,-4.5551,-4.5654,-4.5956,-4.6586,-4.6896,-4.6983,-4.7775,-4.8689,-4.912,-4.9407,-4.9786,-4.9959,-4.9976,-5.0011,-5.0011,-5.0011,-5.0011,-4.9976,-5.0011,-5.0011,-5.0011,-5.0011,-5.0011,-3.4668,-3.4202,-3.3722,-3.3319,-3.3183,-3.3911,-3.4206,-3.4225,-3.4347,-3.4384,-3.4433,-3.4677,-3.492,-3.5126,-3.5428,-3.5955,-3.6196,-3.734,-3.7947,-3.8032,-3.8457,-3.8494,-3.8318,-3.8109,-3.7965,-3.79,-3.7926,-3.8096,-3.8338,-3.8234,-3.8593,-3.9077,-3.9298,-3.9803,-4.0309,-4.055,-4.0745,-4.1461,-4.1076,-4.1056,-4.1739,-4.2341,-4.2935,-4.3295,-4.3888,-4.4572,-4.461,-4.461,-4.4594,-4.4433,-4.4202,-4.3932,-4.371,-4.3371,-4.311,-4.3356,-4.3618,-4.3947,-4.3883,-4.3645,-4.3281,-4.2993,-4.2129,-4.1893,-4.2139,-4.2398,-4.3245,-4.3713,-4.3773,-4.4131,-4.4519,-4.4428,-4.4152,-4.4251,-4.4365,-4.4468,-4.4564,-4.4637,-4.4598,-4.4598,-4.4598,-4.4598,-4.4598,-4.4598,-4.4598,-4.4626,-4.4671,-4.4755,-4.4834,-4.4926,-4.5032,-4.5194,-4.5266,-4.543,-4.5595,-4.5862,-4.6104,-4.6155,-4.7138,-4.8293,-4.8648,-4.8821,-4.939,-4.9924,-4.9907,-4.9924,-4.9976,-4.9993,-4.9873,-4.989,-5.0011,-5.0011,-5.0011,-5.0011,-5.0011,-3.5067,-3.4585,-3.4061,-3.3579,-3.3343,-3.367,-3.4066,-3.4421,-3.4433,-3.4433,-3.4482,-3.4787,-3.5126,-3.5512,-3.5656,-3.6181,-3.7053,-3.7809,-3.795,-3.8179,-3.8585,-3.8383,-3.8148,-3.7926,-3.79,-3.79,-3.7913,-3.7939,-3.7985,-3.8207,-3.857,-3.8899,-3.9181,-3.964,-3.997,-4.0151,-4.0513,-4.1131,-4.1201,-4.1329,-4.1966,-4.2765,-4.3201,-4.3608,-4.4135,-4.4518,-4.461,-4.461,-4.461,-4.4579,-4.4548,-4.4548,-4.4363,-4.3963,-4.4178,-4.4363,-4.4479,-4.4486,-4.4315,-4.4008,-4.3909,-4.345,-4.2585,-4.2546,-4.2813,-4.3122,-4.3892,-4.4412,-4.4556,-4.4857,-4.511,-4.4624,-4.4173,-4.4273,-4.4447,-4.4545,-4.4682,-4.4716,-4.4632,-4.4598,-4.4598,-4.4598,-4.4598,-4.4598,-4.4598,-4.4598,-4.4671,-4.4794,-4.4856,-4.4899,-4.5039,-4.5253,-4.5325,-4.5371,-4.55,-4.5604,-4.5897,-4.6155,-4.6655,-4.7586,-4.7889,-4.8338,-4.8861,-4.9344,-4.9654,-4.97,-4.9338,-4.939,-4.9597,-4.9648,-4.951,-4.9878,-4.9844,-4.9976,-5.0011,-3.375,-3.3076,-3.2887,-3.2589,-3.2259,-3.2731,-3.3798,-3.5078,-3.4872,-3.4872,-3.5271,-3.5332,-3.5464,-3.5608,-3.631,-3.6781,-3.754,-3.8196,-3.8327,-3.8546,-3.8867,-3.8553,-3.8227,-3.7926,-3.79,-3.79,-3.79,-3.79,-3.7992,-3.8239,-3.8498,-3.8737,-3.9127,-3.9423,-3.9536,-3.9576,-4.0381,-4.0938,-4.0935,-4.1405,-4.2051,-4.2816,-4.3263,-4.3744,-4.4251,-4.4534,-4.461,-4.461,-4.461,-4.461,-4.461,-4.461,-4.4564,-4.4409,-4.4502,-4.4533,-4.4548,-4.4478,-4.418,-4.4085,-4.407,-4.3932,-4.3315,-4.3566,-4.3905,-4.4302,-4.4721,-4.5214,-4.5258,-4.538,-4.563,-4.5323,-4.4992,-4.501,-4.5026,-4.4894,-4.4981,-4.475,-4.4666,-4.4598,-4.4598,-4.4598,-4.4598,-4.4598,-4.4598,-4.4598,-4.4643,-4.4766,-4.4895,-4.4909,-4.5039,-4.528,-4.5316,-4.5344,-4.5397,-4.55,-4.5845,-4.6207,-4.6672,-4.7103,-4.7614,-4.8051,-4.8408,-4.8643,-4.8803,-4.8614,-4.8258,-4.8493,-4.8855,-4.8734,-4.8665,-4.9258,-4.9757,-4.989,-4.9976,-3.3428,-3.268,-3.2624,-3.2399,-3.2168,-3.2584,-3.3741,-3.4989,-3.4702,-3.4956,-3.5835,-3.5668,-3.5812,-3.6263,-3.6841,-3.733,-3.7898,-3.886,-3.9133,-3.9042,-3.9233,-3.8893,-3.8462,-3.7991,-3.79,-3.79,-3.79,-3.79,-3.8024,-3.8344,-3.8602,-3.8756,-3.9158,-3.9261,-3.9346,-3.9458,-3.9939,-4.0512,-4.0938,-4.1396,-4.2077,-4.2852,-4.3453,-4.3895,-4.4458,-4.4534,-4.461,-4.461,-4.461,-4.461,-4.461,-4.461,-4.461,-4.4594,-4.4579,-4.461,-4.4594,-4.4547,-4.4449,-4.4526,-4.4388,-4.4317,-4.4374,-4.4912,-4.5037,-4.5244,-4.5864,-4.6412,-4.5998,-4.5778,-4.6053,-4.623,-4.6072,-4.5929,-4.5652,-4.5356,-4.5105,-4.4807,-4.4699,-4.4615,-4.4598,-4.4598,-4.4598,-4.4598,-4.4598,-4.4598,-4.4615,-4.4722,-4.4833,-4.4909,-4.5076,-4.5291,-4.5318,-4.5327,-4.5371,-4.5432,-4.569,-4.6052,-4.651,-4.6958,-4.7379,-4.7679,-4.7941,-4.7931,-4.7869,-4.7727,-4.7707,-4.7786,-4.7993,-4.7976,-4.8206,-4.8861,-4.9447,-4.9786,-4.989,-3.3882,-3.3031,-3.2988,-3.2797,-3.2608,-3.2967,-3.3702,-3.461,-3.4316,-3.4924,-3.6053,-3.587,-3.6228,-3.6828,-3.7214,-3.7712,-3.8262,-3.9016,-3.9246,-3.9455,-3.9324,-3.8985,-3.8462,-3.8161,-3.7939,-3.79,-3.79,-3.7946,-3.807,-3.8389,-3.8679,-3.8908,-3.9158,-3.9305,-3.9305,-3.9305,-3.969,-4.0112,-4.0833,-4.1511,-4.2349,-4.322,-4.4048,-4.445,-4.4572,-4.461,-4.461,-4.461,-4.461,-4.461,-4.461,-4.461,-4.461,-4.461,-4.461,-4.461,-4.461,-4.4677,-4.4765,-4.4905,-4.519,-4.5342,-4.5719,-4.6023,-4.6078,-4.6026,-4.6602,-4.725,-4.7013,-4.6999,-4.7224,-4.6976,-4.6754,-4.6578,-4.638,-4.6005,-4.564,-4.519,-4.4649,-4.4598,-4.4598,-4.4598,-4.4598,-4.4598,-4.4598,-4.4598,-4.4615,-4.4677,-4.4816,-4.492,-4.5076,-4.5283,-4.5353,-4.5353,-4.5371,-4.5432,-4.5518,-4.5862,-4.6424,-4.6648,-4.6983,-4.7224,-4.7447,-4.7166,-4.6874,-4.7279,-4.7379,-4.7407,-4.751,-4.7827,-4.8155,-4.862,-4.9085,-4.9562,-4.9855,-3.405,-3.3501,-3.3013,-3.2798,-3.2854,-3.2822,-3.3539,-3.4608,-3.4585,-3.5169,-3.61,-3.6272,-3.6546,-3.7121,-3.7505,-3.7905,-3.8232,-3.8762,-3.8632,-3.8736,-3.8854,-3.8828,-3.824,-3.8057,-3.7913,-3.79,-3.7946,-3.7979,-3.8194,-3.8453,-3.8679,-3.8908,-3.9158,-3.9305,-3.9305,-3.9305,-3.9496,-3.9963,-4.0671,-4.1638,-4.2532,-4.3,-4.3563,-4.4251,-4.4572,-4.461,-4.461,-4.461,-4.461,-4.461,-4.461,-4.461,-4.461,-4.461,-4.461,-4.461,-4.461,-4.4685,-4.4874,-4.5077,-4.5315,-4.5662,-4.5952,-4.649,-4.6747,-4.6777,-4.7095,-4.7793,-4.8188,-4.8228,-4.8138,-4.7723,-4.7356,-4.7211,-4.7047,-4.6621,-4.616,-4.5382,-4.4682,-4.4598,-4.4598,-4.4598,-4.4598,-4.4598,-4.4598,-4.4598,-4.4598,-4.4671,-4.4848,-4.4968,-4.5039,-4.5238,-4.5344,-4.5371,-4.5397,-4.5432,-4.5518,-4.6052,-4.6672,-4.6769,-4.6655,-4.6548,-4.6481,-4.6108,-4.5924,-4.6562,-4.6948,-4.6889,-4.7079,-4.7586,-4.8172,-4.8689,-4.9034,-4.9476,-4.9769,-3.4147,-3.3628,-3.2957,-3.2828,-3.2945,-3.2927,-3.3374,-3.4186,-3.4629,-3.5302,-3.6161,-3.6534,-3.6981,-3.7413,-3.7762,-3.807,-3.82,-3.8553,-3.8854,-3.8828,-3.8501,-3.8553,-3.8292,-3.8004,-3.7926,-3.79,-3.7946,-3.8024,-3.8357,-3.8498,-3.8724,-3.9038,-3.9274,-3.9305,-3.9305,-3.9349,-3.9615,-4.0154,-4.0745,-4.1617,-4.2684,-4.314,-4.3591,-4.4266,-4.4549,-4.4572,-4.461,-4.461,-4.461,-4.461,-4.461,-4.461,-4.461,-4.461,-4.461,-4.461,-4.461,-4.4685,-4.4874,-4.5114,-4.5352,-4.5662,-4.6064,-4.6528,-4.715,-4.7225,-4.7556,-4.8204,-4.8534,-4.8652,-4.8669,-4.8385,-4.7983,-4.7757,-4.7466,-4.7043,-4.6177,-4.5196,-4.4767,-4.4598,-4.4598,-4.4598,-4.4598,-4.4598,-4.4598,-4.4598,-4.4598,-4.4654,-4.4831,-4.5005,-4.5076,-4.5201,-4.5318,-4.5397,-4.5414,-4.5449,-4.55,-4.6138,-4.6793,-4.6776,-4.6542,-4.5897,-4.5432,-4.5604,-4.5828,-4.6268,-4.6544,-4.6872,-4.7113,-4.7648,-4.8206,-4.8775,-4.9103,-4.9459,-4.9752,-3.4147,-3.3683,-3.3129,-3.302,-3.3187,-3.3268,-3.3558,-3.4088,-3.4806,-3.5545,-3.6228,-3.6869,-3.7453,-3.7762,-3.7926,-3.824,-3.8423,-3.841,-3.8815,-3.8906,-3.8684,-3.8449,-3.8266,-3.8122,-3.7965,-3.79,-3.79,-3.8326,-3.8783,-3.8767,-3.8854,-3.927,-3.9346,-3.9305,-3.9305,-3.9513,-3.9851,-4.0516,-4.1184,-4.1881,-4.2659,-4.3394,-4.3825,-4.4189,-4.4473,-4.4572,-4.461,-4.461,-4.461,-4.461,-4.461,-4.461,-4.461,-4.461,-4.461,-4.461,-4.461,-4.4685,-4.4852,-4.5055,-4.5315,-4.5609,-4.6052,-4.6601,-4.727,-4.7721,-4.8065,-4.8452,-4.8813,-4.8937,-4.8954,-4.8917,-4.8545,-4.821,-4.7838,-4.7297,-4.621,-4.5196,-4.4925,-4.4716,-4.4615,-4.4615,-4.4598,-4.4598,-4.4598,-4.4598,-4.4626,-4.4709,-4.4803,-4.4951,-4.5059,-4.5211,-4.5344,-4.5397,-4.5414,-4.5432,-4.5483,-4.5776,-4.631,-4.6473,-4.6429,-4.5853,-4.5595,-4.5792,-4.605,-4.6517,-4.7069,-4.7596,-4.7786,-4.8045,-4.8648,-4.9258,-4.9327,-4.9648,-4.9855,-3.4272,-3.4034,-3.3865,-3.3995,-3.4237,-3.43,-3.4599,-3.5129,-3.5718,-3.6232,-3.6586,-3.7124,-3.7611,-3.79,-3.79,-3.8044,-3.8122,-3.8148,-3.8083,-3.8109,-3.8227,-3.8148,-3.8135,-3.8187,-3.7965,-3.7913,-3.8024,-3.8497,-3.9049,-3.8901,-3.914,-3.9983,-3.9495,-3.9431,-3.9407,-3.976,-4.0298,-4.0873,-4.1563,-4.2293,-4.2673,-4.3329,-4.3825,-4.4189,-4.4511,-4.4572,-4.461,-4.461,-4.461,-4.461,-4.461,-4.461,-4.461,-4.461,-4.461,-4.461,-4.461,-4.461,-4.4776,-4.5055,-4.5278,-4.5667,-4.6195,-4.6894,-4.7454,-4.7935,-4.8292,-4.869,-4.8923,-4.894,-4.8956,-4.9001,-4.8765,-4.8545,-4.8227,-4.7263,-4.6244,-4.5669,-4.5297,-4.4942,-4.4666,-4.4632,-4.4598,-4.4598,-4.4598,-4.4598,-4.4598,-4.4699,-4.5029,-4.507,-4.5076,-4.5375,-4.556,-4.5397,-4.5414,-4.5414,-4.5466,-4.5673,-4.588,-4.6146,-4.6153,-4.5826,-4.5723,-4.6033,-4.6507,-4.7,-4.7569,-4.8258,-4.8741,-4.9097,-4.9476,-4.9838,-4.9804,-4.9786,-4.9942]}]]